<?xml version="1.0" encoding="UTF-8" standalone="no" ?>
<gpx xmlns="http://www.topografix.com/GPX/1/1" xmlns:xsi="http://www.w3.org/2001/XMLSchema-instance" xsi:schemaLocation="http://www.topografix.com/GPX/1/1 http://www.topografix.com/GPX/1/1/gpx.xsd" version="1.1" creator="VisuGPX - https://www.visugpx.com">
  <metadata>
    <name>Séance vélo USSH 28/01/12</name>
    <desc><![CDATA[Séance vélo USSH 28/01/12]]></desc>
  </metadata>
  <trk>
    <name><![CDATA[Séance vélo USSH 28/01/12_1]]></name>
    <trkseg>
      <trkpt lat="47.23703" lon="-1.61185">
        <ele>-77.75</ele>
        <time>2012-01-28T13:37:32Z</time>
      </trkpt>
      <trkpt lat="47.23695" lon="-1.61175">
        <ele>-62.75</ele>
        <time>2012-01-28T13:37:41Z</time>
      </trkpt>
      <trkpt lat="47.23701" lon="-1.61186">
        <ele>-71</ele>
        <time>2012-01-28T13:39:24Z</time>
      </trkpt>
      <trkpt lat="47.23704" lon="-1.61199">
        <ele>-75</ele>
        <time>2012-01-28T13:40:51Z</time>
      </trkpt>
      <trkpt lat="47.23703" lon="-1.61216">
        <ele>-73.5</ele>
        <time>2012-01-28T13:40:54Z</time>
      </trkpt>
      <trkpt lat="47.23703" lon="-1.61233">
        <ele>-72.5</ele>
        <time>2012-01-28T13:40:57Z</time>
      </trkpt>
      <trkpt lat="47.23693" lon="-1.61236">
        <ele>-74.75</ele>
        <time>2012-01-28T13:41:05Z</time>
      </trkpt>
      <trkpt lat="47.23688" lon="-1.61251">
        <ele>-76.25</ele>
        <time>2012-01-28T13:41:12Z</time>
      </trkpt>
      <trkpt lat="47.23691" lon="-1.61264">
        <ele>-76</ele>
        <time>2012-01-28T13:41:14Z</time>
      </trkpt>
      <trkpt lat="47.23696" lon="-1.6128">
        <ele>-74.5</ele>
        <time>2012-01-28T13:41:17Z</time>
      </trkpt>
      <trkpt lat="47.23703" lon="-1.61296">
        <ele>-69.75</ele>
        <time>2012-01-28T13:41:22Z</time>
      </trkpt>
      <trkpt lat="47.23711" lon="-1.61303">
        <ele>-69.75</ele>
        <time>2012-01-28T13:41:25Z</time>
      </trkpt>
      <trkpt lat="47.23721" lon="-1.61308">
        <ele>-72</ele>
        <time>2012-01-28T13:41:28Z</time>
      </trkpt>
      <trkpt lat="47.23732" lon="-1.61312">
        <ele>-73.5</ele>
        <time>2012-01-28T13:41:31Z</time>
      </trkpt>
      <trkpt lat="47.23741" lon="-1.6132">
        <ele>-74</ele>
        <time>2012-01-28T13:41:35Z</time>
      </trkpt>
      <trkpt lat="47.23752" lon="-1.6133">
        <ele>-72.5</ele>
        <time>2012-01-28T13:41:38Z</time>
      </trkpt>
      <trkpt lat="47.23759" lon="-1.6134">
        <ele>-70.5</ele>
        <time>2012-01-28T13:41:40Z</time>
      </trkpt>
      <trkpt lat="47.23768" lon="-1.61353">
        <ele>-68.75</ele>
        <time>2012-01-28T13:41:42Z</time>
      </trkpt>
      <trkpt lat="47.23776" lon="-1.61366">
        <ele>-67.5</ele>
        <time>2012-01-28T13:41:45Z</time>
      </trkpt>
      <trkpt lat="47.23781" lon="-1.61381">
        <ele>-67.25</ele>
        <time>2012-01-28T13:41:48Z</time>
      </trkpt>
      <trkpt lat="47.23781" lon="-1.61401">
        <ele>-69.5</ele>
        <time>2012-01-28T13:41:51Z</time>
      </trkpt>
      <trkpt lat="47.23777" lon="-1.61418">
        <ele>-70.5</ele>
        <time>2012-01-28T13:41:53Z</time>
      </trkpt>
      <trkpt lat="47.23775" lon="-1.61437">
        <ele>-71.25</ele>
        <time>2012-01-28T13:41:56Z</time>
      </trkpt>
      <trkpt lat="47.23773" lon="-1.61452">
        <ele>-72.25</ele>
        <time>2012-01-28T13:41:58Z</time>
      </trkpt>
      <trkpt lat="47.23769" lon="-1.61469">
        <ele>-73.25</ele>
        <time>2012-01-28T13:42:01Z</time>
      </trkpt>
      <trkpt lat="47.23763" lon="-1.61484">
        <ele>-74.5</ele>
        <time>2012-01-28T13:42:04Z</time>
      </trkpt>
      <trkpt lat="47.23758" lon="-1.61496">
        <ele>-74.5</ele>
        <time>2012-01-28T13:42:06Z</time>
      </trkpt>
      <trkpt lat="47.23755" lon="-1.6151">
        <ele>-72.5</ele>
        <time>2012-01-28T13:42:09Z</time>
      </trkpt>
      <trkpt lat="47.23752" lon="-1.61525">
        <ele>-72.25</ele>
        <time>2012-01-28T13:42:12Z</time>
      </trkpt>
      <trkpt lat="47.23752" lon="-1.61538">
        <ele>-68</ele>
        <time>2012-01-28T13:42:16Z</time>
      </trkpt>
      <trkpt lat="47.2376" lon="-1.61546">
        <ele>-68.75</ele>
        <time>2012-01-28T13:42:19Z</time>
      </trkpt>
      <trkpt lat="47.23766" lon="-1.61557">
        <ele>-72.25</ele>
        <time>2012-01-28T13:42:23Z</time>
      </trkpt>
      <trkpt lat="47.23771" lon="-1.6157">
        <ele>-74.25</ele>
        <time>2012-01-28T13:42:30Z</time>
      </trkpt>
      <trkpt lat="47.23773" lon="-1.61586">
        <ele>-76.5</ele>
        <time>2012-01-28T13:42:35Z</time>
      </trkpt>
      <trkpt lat="47.23775" lon="-1.61603">
        <ele>-76.5</ele>
        <time>2012-01-28T13:42:39Z</time>
      </trkpt>
      <trkpt lat="47.23772" lon="-1.61618">
        <ele>-75.25</ele>
        <time>2012-01-28T13:42:42Z</time>
      </trkpt>
      <trkpt lat="47.23769" lon="-1.61632">
        <ele>-75.5</ele>
        <time>2012-01-28T13:42:44Z</time>
      </trkpt>
      <trkpt lat="47.23762" lon="-1.61649">
        <ele>-76</ele>
        <time>2012-01-28T13:42:47Z</time>
      </trkpt>
      <trkpt lat="47.23754" lon="-1.61667">
        <ele>-74.5</ele>
        <time>2012-01-28T13:42:49Z</time>
      </trkpt>
      <trkpt lat="47.23751" lon="-1.6169">
        <ele>-74</ele>
        <time>2012-01-28T13:42:51Z</time>
      </trkpt>
      <trkpt lat="47.2375" lon="-1.61707">
        <ele>-74.5</ele>
        <time>2012-01-28T13:42:54Z</time>
      </trkpt>
      <trkpt lat="47.2375" lon="-1.61724">
        <ele>-78.5</ele>
        <time>2012-01-28T13:42:57Z</time>
      </trkpt>
      <trkpt lat="47.23753" lon="-1.61742">
        <ele>-80.5</ele>
        <time>2012-01-28T13:43:00Z</time>
      </trkpt>
      <trkpt lat="47.23756" lon="-1.61756">
        <ele>-79.5</ele>
        <time>2012-01-28T13:43:02Z</time>
      </trkpt>
      <trkpt lat="47.2376" lon="-1.61769">
        <ele>-77.25</ele>
        <time>2012-01-28T13:43:05Z</time>
      </trkpt>
      <trkpt lat="47.23766" lon="-1.61786">
        <ele>-75.25</ele>
        <time>2012-01-28T13:43:08Z</time>
      </trkpt>
      <trkpt lat="47.23772" lon="-1.61803">
        <ele>-73.25</ele>
        <time>2012-01-28T13:43:11Z</time>
      </trkpt>
      <trkpt lat="47.23779" lon="-1.61818">
        <ele>-72</ele>
        <time>2012-01-28T13:43:13Z</time>
      </trkpt>
      <trkpt lat="47.23786" lon="-1.61834">
        <ele>-71</ele>
        <time>2012-01-28T13:43:16Z</time>
      </trkpt>
      <trkpt lat="47.23791" lon="-1.61846">
        <ele>-69.5</ele>
        <time>2012-01-28T13:43:18Z</time>
      </trkpt>
      <trkpt lat="47.23797" lon="-1.61859">
        <ele>-67.5</ele>
        <time>2012-01-28T13:43:20Z</time>
      </trkpt>
      <trkpt lat="47.23803" lon="-1.61872">
        <ele>-66.25</ele>
        <time>2012-01-28T13:43:22Z</time>
      </trkpt>
      <trkpt lat="47.2381" lon="-1.61887">
        <ele>-66</ele>
        <time>2012-01-28T13:43:24Z</time>
      </trkpt>
      <trkpt lat="47.2382" lon="-1.61902">
        <ele>-65.75</ele>
        <time>2012-01-28T13:43:27Z</time>
      </trkpt>
      <trkpt lat="47.23829" lon="-1.61912">
        <ele>-65.25</ele>
        <time>2012-01-28T13:43:29Z</time>
      </trkpt>
      <trkpt lat="47.23838" lon="-1.61922">
        <ele>-64.5</ele>
        <time>2012-01-28T13:43:31Z</time>
      </trkpt>
      <trkpt lat="47.23849" lon="-1.61935">
        <ele>-64.75</ele>
        <time>2012-01-28T13:43:34Z</time>
      </trkpt>
      <trkpt lat="47.23861" lon="-1.61945">
        <ele>-64.75</ele>
        <time>2012-01-28T13:43:38Z</time>
      </trkpt>
      <trkpt lat="47.2387" lon="-1.61949">
        <ele>-65.25</ele>
        <time>2012-01-28T13:43:40Z</time>
      </trkpt>
      <trkpt lat="47.23879" lon="-1.61954">
        <ele>-65.5</ele>
        <time>2012-01-28T13:43:42Z</time>
      </trkpt>
      <trkpt lat="47.23888" lon="-1.6196">
        <ele>-65.5</ele>
        <time>2012-01-28T13:43:44Z</time>
      </trkpt>
      <trkpt lat="47.23898" lon="-1.61964">
        <ele>-66</ele>
        <time>2012-01-28T13:43:46Z</time>
      </trkpt>
      <trkpt lat="47.23909" lon="-1.61967">
        <ele>-67.25</ele>
        <time>2012-01-28T13:43:48Z</time>
      </trkpt>
      <trkpt lat="47.23919" lon="-1.61968">
        <ele>-68.25</ele>
        <time>2012-01-28T13:43:51Z</time>
      </trkpt>
      <trkpt lat="47.2393" lon="-1.61971">
        <ele>-70.25</ele>
        <time>2012-01-28T13:43:54Z</time>
      </trkpt>
      <trkpt lat="47.23941" lon="-1.61977">
        <ele>-72.25</ele>
        <time>2012-01-28T13:43:57Z</time>
      </trkpt>
      <trkpt lat="47.23951" lon="-1.61984">
        <ele>-72.75</ele>
        <time>2012-01-28T13:43:59Z</time>
      </trkpt>
      <trkpt lat="47.23961" lon="-1.61993">
        <ele>-73.25</ele>
        <time>2012-01-28T13:44:03Z</time>
      </trkpt>
      <trkpt lat="47.23971" lon="-1.62002">
        <ele>-73</ele>
        <time>2012-01-28T13:44:06Z</time>
      </trkpt>
      <trkpt lat="47.23981" lon="-1.62011">
        <ele>-71.5</ele>
        <time>2012-01-28T13:44:09Z</time>
      </trkpt>
      <trkpt lat="47.2399" lon="-1.62022">
        <ele>-71.5</ele>
        <time>2012-01-28T13:44:12Z</time>
      </trkpt>
      <trkpt lat="47.23998" lon="-1.62036">
        <ele>-72.5</ele>
        <time>2012-01-28T13:44:16Z</time>
      </trkpt>
      <trkpt lat="47.24005" lon="-1.6205">
        <ele>-73.75</ele>
        <time>2012-01-28T13:44:19Z</time>
      </trkpt>
      <trkpt lat="47.24007" lon="-1.62065">
        <ele>-75.25</ele>
        <time>2012-01-28T13:44:22Z</time>
      </trkpt>
      <trkpt lat="47.24008" lon="-1.62084">
        <ele>-74.5</ele>
        <time>2012-01-28T13:44:26Z</time>
      </trkpt>
      <trkpt lat="47.24008" lon="-1.62102">
        <ele>-72.75</ele>
        <time>2012-01-28T13:44:29Z</time>
      </trkpt>
      <trkpt lat="47.24007" lon="-1.6212">
        <ele>-71.75</ele>
        <time>2012-01-28T13:44:32Z</time>
      </trkpt>
      <trkpt lat="47.24008" lon="-1.62133">
        <ele>-72</ele>
        <time>2012-01-28T13:44:34Z</time>
      </trkpt>
      <trkpt lat="47.24012" lon="-1.62147">
        <ele>-72.75</ele>
        <time>2012-01-28T13:44:37Z</time>
      </trkpt>
      <trkpt lat="47.24013" lon="-1.6216">
        <ele>-74.5</ele>
        <time>2012-01-28T13:44:40Z</time>
      </trkpt>
      <trkpt lat="47.24012" lon="-1.62174">
        <ele>-74.25</ele>
        <time>2012-01-28T13:44:43Z</time>
      </trkpt>
      <trkpt lat="47.2401" lon="-1.62194">
        <ele>-73.75</ele>
        <time>2012-01-28T13:44:46Z</time>
      </trkpt>
      <trkpt lat="47.2401" lon="-1.62211">
        <ele>-73</ele>
        <time>2012-01-28T13:44:50Z</time>
      </trkpt>
      <trkpt lat="47.2401" lon="-1.62229">
        <ele>-70</ele>
        <time>2012-01-28T13:44:53Z</time>
      </trkpt>
      <trkpt lat="47.24012" lon="-1.62248">
        <ele>-67.75</ele>
        <time>2012-01-28T13:44:56Z</time>
      </trkpt>
      <trkpt lat="47.24014" lon="-1.62265">
        <ele>-67.25</ele>
        <time>2012-01-28T13:44:59Z</time>
      </trkpt>
      <trkpt lat="47.24016" lon="-1.62278">
        <ele>-67</ele>
        <time>2012-01-28T13:45:01Z</time>
      </trkpt>
      <trkpt lat="47.24015" lon="-1.62296">
        <ele>-67.5</ele>
        <time>2012-01-28T13:45:04Z</time>
      </trkpt>
      <trkpt lat="47.24012" lon="-1.6231">
        <ele>-68.5</ele>
        <time>2012-01-28T13:45:06Z</time>
      </trkpt>
      <trkpt lat="47.24004" lon="-1.62322">
        <ele>-70.5</ele>
        <time>2012-01-28T13:45:10Z</time>
      </trkpt>
      <trkpt lat="47.24003" lon="-1.62339">
        <ele>-69.75</ele>
        <time>2012-01-28T13:45:14Z</time>
      </trkpt>
      <trkpt lat="47.24008" lon="-1.62355">
        <ele>-65.5</ele>
        <time>2012-01-28T13:45:16Z</time>
      </trkpt>
      <trkpt lat="47.24011" lon="-1.62374">
        <ele>-62.25</ele>
        <time>2012-01-28T13:45:18Z</time>
      </trkpt>
      <trkpt lat="47.24012" lon="-1.62392">
        <ele>-62.75</ele>
        <time>2012-01-28T13:45:21Z</time>
      </trkpt>
      <trkpt lat="47.24014" lon="-1.6241">
        <ele>-67.5</ele>
        <time>2012-01-28T13:45:24Z</time>
      </trkpt>
      <trkpt lat="47.24012" lon="-1.62428">
        <ele>-69.75</ele>
        <time>2012-01-28T13:45:27Z</time>
      </trkpt>
      <trkpt lat="47.24012" lon="-1.62447">
        <ele>-68.75</ele>
        <time>2012-01-28T13:45:31Z</time>
      </trkpt>
      <trkpt lat="47.24021" lon="-1.62461">
        <ele>-68.25</ele>
        <time>2012-01-28T13:45:34Z</time>
      </trkpt>
      <trkpt lat="47.24028" lon="-1.62471">
        <ele>-67.75</ele>
        <time>2012-01-28T13:45:36Z</time>
      </trkpt>
      <trkpt lat="47.24034" lon="-1.62482">
        <ele>-67</ele>
        <time>2012-01-28T13:45:38Z</time>
      </trkpt>
      <trkpt lat="47.24042" lon="-1.62495">
        <ele>-66.25</ele>
        <time>2012-01-28T13:45:40Z</time>
      </trkpt>
      <trkpt lat="47.24051" lon="-1.62506">
        <ele>-65.5</ele>
        <time>2012-01-28T13:45:43Z</time>
      </trkpt>
      <trkpt lat="47.24057" lon="-1.62516">
        <ele>-65.25</ele>
        <time>2012-01-28T13:45:45Z</time>
      </trkpt>
      <trkpt lat="47.24065" lon="-1.6253">
        <ele>-67.25</ele>
        <time>2012-01-28T13:45:48Z</time>
      </trkpt>
      <trkpt lat="47.24073" lon="-1.62538">
        <ele>-68.25</ele>
        <time>2012-01-28T13:45:50Z</time>
      </trkpt>
      <trkpt lat="47.24082" lon="-1.62544">
        <ele>-69</ele>
        <time>2012-01-28T13:45:53Z</time>
      </trkpt>
      <trkpt lat="47.24091" lon="-1.62551">
        <ele>-70.75</ele>
        <time>2012-01-28T13:45:56Z</time>
      </trkpt>
      <trkpt lat="47.24098" lon="-1.62564">
        <ele>-72.75</ele>
        <time>2012-01-28T13:45:59Z</time>
      </trkpt>
      <trkpt lat="47.24101" lon="-1.62584">
        <ele>-74.75</ele>
        <time>2012-01-28T13:46:02Z</time>
      </trkpt>
      <trkpt lat="47.24097" lon="-1.62599">
        <ele>-76.5</ele>
        <time>2012-01-28T13:46:05Z</time>
      </trkpt>
      <trkpt lat="47.24092" lon="-1.62611">
        <ele>-77.75</ele>
        <time>2012-01-28T13:46:07Z</time>
      </trkpt>
      <trkpt lat="47.24084" lon="-1.62625">
        <ele>-78.25</ele>
        <time>2012-01-28T13:46:10Z</time>
      </trkpt>
      <trkpt lat="47.24079" lon="-1.62638">
        <ele>-79.25</ele>
        <time>2012-01-28T13:46:13Z</time>
      </trkpt>
      <trkpt lat="47.24074" lon="-1.62649">
        <ele>-79.5</ele>
        <time>2012-01-28T13:46:17Z</time>
      </trkpt>
      <trkpt lat="47.24069" lon="-1.6266">
        <ele>-70.25</ele>
        <time>2012-01-28T13:46:58Z</time>
      </trkpt>
      <trkpt lat="47.24064" lon="-1.62673">
        <ele>-71.25</ele>
        <time>2012-01-28T13:47:10Z</time>
      </trkpt>
      <trkpt lat="47.24074" lon="-1.62679">
        <ele>-67.75</ele>
        <time>2012-01-28T13:47:19Z</time>
      </trkpt>
      <trkpt lat="47.24082" lon="-1.62685">
        <ele>-67.75</ele>
        <time>2012-01-28T13:47:23Z</time>
      </trkpt>
      <trkpt lat="47.24086" lon="-1.62699">
        <ele>-67.5</ele>
        <time>2012-01-28T13:47:29Z</time>
      </trkpt>
      <trkpt lat="47.24084" lon="-1.62712">
        <ele>-71.25</ele>
        <time>2012-01-28T13:47:44Z</time>
      </trkpt>
      <trkpt lat="47.24091" lon="-1.62721">
        <ele>-72.5</ele>
        <time>2012-01-28T13:47:56Z</time>
      </trkpt>
      <trkpt lat="47.24098" lon="-1.62729">
        <ele>-72</ele>
        <time>2012-01-28T13:48:03Z</time>
      </trkpt>
      <trkpt lat="47.24099" lon="-1.62746">
        <ele>-71.75</ele>
        <time>2012-01-28T13:48:09Z</time>
      </trkpt>
      <trkpt lat="47.24101" lon="-1.62759">
        <ele>-75</ele>
        <time>2012-01-28T13:48:26Z</time>
      </trkpt>
      <trkpt lat="47.2411" lon="-1.62772">
        <ele>-74.25</ele>
        <time>2012-01-28T13:48:30Z</time>
      </trkpt>
      <trkpt lat="47.24118" lon="-1.62785">
        <ele>-73.5</ele>
        <time>2012-01-28T13:48:32Z</time>
      </trkpt>
      <trkpt lat="47.24125" lon="-1.62799">
        <ele>-73</ele>
        <time>2012-01-28T13:48:35Z</time>
      </trkpt>
      <trkpt lat="47.2413" lon="-1.62812">
        <ele>-72.75</ele>
        <time>2012-01-28T13:48:38Z</time>
      </trkpt>
      <trkpt lat="47.24135" lon="-1.62826">
        <ele>-72.5</ele>
        <time>2012-01-28T13:48:41Z</time>
      </trkpt>
      <trkpt lat="47.24142" lon="-1.6284">
        <ele>-73</ele>
        <time>2012-01-28T13:48:44Z</time>
      </trkpt>
      <trkpt lat="47.2415" lon="-1.62852">
        <ele>-73</ele>
        <time>2012-01-28T13:48:48Z</time>
      </trkpt>
      <trkpt lat="47.24156" lon="-1.62867">
        <ele>-72.5</ele>
        <time>2012-01-28T13:48:51Z</time>
      </trkpt>
      <trkpt lat="47.24161" lon="-1.62879">
        <ele>-71.25</ele>
        <time>2012-01-28T13:48:53Z</time>
      </trkpt>
      <trkpt lat="47.24165" lon="-1.62894">
        <ele>-70.5</ele>
        <time>2012-01-28T13:48:55Z</time>
      </trkpt>
      <trkpt lat="47.2417" lon="-1.6291">
        <ele>-71.5</ele>
        <time>2012-01-28T13:48:57Z</time>
      </trkpt>
      <trkpt lat="47.24176" lon="-1.62925">
        <ele>-73.25</ele>
        <time>2012-01-28T13:49:00Z</time>
      </trkpt>
      <trkpt lat="47.24181" lon="-1.62938">
        <ele>-74.25</ele>
        <time>2012-01-28T13:49:02Z</time>
      </trkpt>
      <trkpt lat="47.24185" lon="-1.62951">
        <ele>-75.25</ele>
        <time>2012-01-28T13:49:04Z</time>
      </trkpt>
      <trkpt lat="47.24189" lon="-1.62964">
        <ele>-77</ele>
        <time>2012-01-28T13:49:06Z</time>
      </trkpt>
      <trkpt lat="47.24192" lon="-1.62978">
        <ele>-78.5</ele>
        <time>2012-01-28T13:49:08Z</time>
      </trkpt>
      <trkpt lat="47.24194" lon="-1.62993">
        <ele>-79</ele>
        <time>2012-01-28T13:49:10Z</time>
      </trkpt>
      <trkpt lat="47.24196" lon="-1.63007">
        <ele>-79.75</ele>
        <time>2012-01-28T13:49:13Z</time>
      </trkpt>
      <trkpt lat="47.24199" lon="-1.63027">
        <ele>-80.5</ele>
        <time>2012-01-28T13:49:16Z</time>
      </trkpt>
      <trkpt lat="47.242" lon="-1.63041">
        <ele>-79.5</ele>
        <time>2012-01-28T13:49:18Z</time>
      </trkpt>
      <trkpt lat="47.24201" lon="-1.63055">
        <ele>-78.5</ele>
        <time>2012-01-28T13:49:20Z</time>
      </trkpt>
      <trkpt lat="47.24201" lon="-1.6307">
        <ele>-78</ele>
        <time>2012-01-28T13:49:22Z</time>
      </trkpt>
      <trkpt lat="47.24202" lon="-1.63085">
        <ele>-77.75</ele>
        <time>2012-01-28T13:49:25Z</time>
      </trkpt>
      <trkpt lat="47.24207" lon="-1.63102">
        <ele>-77.25</ele>
        <time>2012-01-28T13:49:28Z</time>
      </trkpt>
      <trkpt lat="47.24213" lon="-1.63119">
        <ele>-76.25</ele>
        <time>2012-01-28T13:49:31Z</time>
      </trkpt>
      <trkpt lat="47.24219" lon="-1.63132">
        <ele>-76</ele>
        <time>2012-01-28T13:49:33Z</time>
      </trkpt>
      <trkpt lat="47.24225" lon="-1.63143">
        <ele>-75.5</ele>
        <time>2012-01-28T13:49:36Z</time>
      </trkpt>
      <trkpt lat="47.24232" lon="-1.63156">
        <ele>-75</ele>
        <time>2012-01-28T13:49:39Z</time>
      </trkpt>
      <trkpt lat="47.24241" lon="-1.63171">
        <ele>-75</ele>
        <time>2012-01-28T13:49:42Z</time>
      </trkpt>
      <trkpt lat="47.24248" lon="-1.63183">
        <ele>-75.25</ele>
        <time>2012-01-28T13:49:44Z</time>
      </trkpt>
      <trkpt lat="47.24257" lon="-1.63194">
        <ele>-75.5</ele>
        <time>2012-01-28T13:49:47Z</time>
      </trkpt>
      <trkpt lat="47.24267" lon="-1.63202">
        <ele>-77</ele>
        <time>2012-01-28T13:49:50Z</time>
      </trkpt>
      <trkpt lat="47.24275" lon="-1.6321">
        <ele>-78.25</ele>
        <time>2012-01-28T13:49:53Z</time>
      </trkpt>
      <trkpt lat="47.24284" lon="-1.63222">
        <ele>-76.75</ele>
        <time>2012-01-28T13:49:56Z</time>
      </trkpt>
      <trkpt lat="47.24292" lon="-1.63233">
        <ele>-75.75</ele>
        <time>2012-01-28T13:50:00Z</time>
      </trkpt>
      <trkpt lat="47.243" lon="-1.63244">
        <ele>-74.75</ele>
        <time>2012-01-28T13:50:03Z</time>
      </trkpt>
      <trkpt lat="47.24309" lon="-1.63257">
        <ele>-74.75</ele>
        <time>2012-01-28T13:50:06Z</time>
      </trkpt>
      <trkpt lat="47.24316" lon="-1.63268">
        <ele>-74.25</ele>
        <time>2012-01-28T13:50:08Z</time>
      </trkpt>
      <trkpt lat="47.24324" lon="-1.63278">
        <ele>-73.75</ele>
        <time>2012-01-28T13:50:11Z</time>
      </trkpt>
      <trkpt lat="47.24331" lon="-1.63288">
        <ele>-75.25</ele>
        <time>2012-01-28T13:50:16Z</time>
      </trkpt>
      <trkpt lat="47.24339" lon="-1.63294">
        <ele>-76.25</ele>
        <time>2012-01-28T13:50:20Z</time>
      </trkpt>
      <trkpt lat="47.24349" lon="-1.63305">
        <ele>-78</ele>
        <time>2012-01-28T13:50:25Z</time>
      </trkpt>
      <trkpt lat="47.24357" lon="-1.63319">
        <ele>-78.75</ele>
        <time>2012-01-28T13:50:28Z</time>
      </trkpt>
      <trkpt lat="47.24365" lon="-1.63333">
        <ele>-79</ele>
        <time>2012-01-28T13:50:31Z</time>
      </trkpt>
      <trkpt lat="47.24371" lon="-1.63343">
        <ele>-79.5</ele>
        <time>2012-01-28T13:50:33Z</time>
      </trkpt>
      <trkpt lat="47.24375" lon="-1.63356">
        <ele>-79.75</ele>
        <time>2012-01-28T13:50:37Z</time>
      </trkpt>
      <trkpt lat="47.24378" lon="-1.63369">
        <ele>-77</ele>
        <time>2012-01-28T13:51:15Z</time>
      </trkpt>
      <trkpt lat="47.24375" lon="-1.63383">
        <ele>-77</ele>
        <time>2012-01-28T13:51:26Z</time>
      </trkpt>
      <trkpt lat="47.24367" lon="-1.63397">
        <ele>-78.25</ele>
        <time>2012-01-28T13:51:29Z</time>
      </trkpt>
      <trkpt lat="47.24363" lon="-1.6341">
        <ele>-78</ele>
        <time>2012-01-28T13:51:33Z</time>
      </trkpt>
      <trkpt lat="47.24372" lon="-1.63414">
        <ele>-71.25</ele>
        <time>2012-01-28T13:51:44Z</time>
      </trkpt>
      <trkpt lat="47.2438" lon="-1.63425">
        <ele>-81.25</ele>
        <time>2012-01-28T13:52:40Z</time>
      </trkpt>
      <trkpt lat="47.24385" lon="-1.63441">
        <ele>-76.5</ele>
        <time>2012-01-28T13:52:45Z</time>
      </trkpt>
      <trkpt lat="47.24389" lon="-1.63456">
        <ele>-74</ele>
        <time>2012-01-28T13:52:48Z</time>
      </trkpt>
      <trkpt lat="47.24393" lon="-1.6347">
        <ele>-72.75</ele>
        <time>2012-01-28T13:52:52Z</time>
      </trkpt>
      <trkpt lat="47.24395" lon="-1.63485">
        <ele>-72</ele>
        <time>2012-01-28T13:52:55Z</time>
      </trkpt>
      <trkpt lat="47.24395" lon="-1.63503">
        <ele>-72</ele>
        <time>2012-01-28T13:52:58Z</time>
      </trkpt>
      <trkpt lat="47.2439" lon="-1.63521">
        <ele>-72.25</ele>
        <time>2012-01-28T13:53:02Z</time>
      </trkpt>
      <trkpt lat="47.24385" lon="-1.63534">
        <ele>-72</ele>
        <time>2012-01-28T13:53:04Z</time>
      </trkpt>
      <trkpt lat="47.24381" lon="-1.63552">
        <ele>-71</ele>
        <time>2012-01-28T13:53:06Z</time>
      </trkpt>
      <trkpt lat="47.24379" lon="-1.63568">
        <ele>-70.25</ele>
        <time>2012-01-28T13:53:09Z</time>
      </trkpt>
      <trkpt lat="47.24384" lon="-1.63582">
        <ele>-68.25</ele>
        <time>2012-01-28T13:53:12Z</time>
      </trkpt>
      <trkpt lat="47.24391" lon="-1.63593">
        <ele>-67</ele>
        <time>2012-01-28T13:53:14Z</time>
      </trkpt>
      <trkpt lat="47.24398" lon="-1.63607">
        <ele>-67.25</ele>
        <time>2012-01-28T13:53:16Z</time>
      </trkpt>
      <trkpt lat="47.24401" lon="-1.63622">
        <ele>-68.75</ele>
        <time>2012-01-28T13:53:19Z</time>
      </trkpt>
      <trkpt lat="47.24402" lon="-1.63637">
        <ele>-70</ele>
        <time>2012-01-28T13:53:21Z</time>
      </trkpt>
      <trkpt lat="47.24402" lon="-1.63657">
        <ele>-71.25</ele>
        <time>2012-01-28T13:53:24Z</time>
      </trkpt>
      <trkpt lat="47.24401" lon="-1.6367">
        <ele>-71.75</ele>
        <time>2012-01-28T13:53:26Z</time>
      </trkpt>
      <trkpt lat="47.24398" lon="-1.63686">
        <ele>-72.5</ele>
        <time>2012-01-28T13:53:28Z</time>
      </trkpt>
      <trkpt lat="47.24396" lon="-1.637">
        <ele>-73.5</ele>
        <time>2012-01-28T13:53:31Z</time>
      </trkpt>
      <trkpt lat="47.24392" lon="-1.63717">
        <ele>-74</ele>
        <time>2012-01-28T13:53:34Z</time>
      </trkpt>
      <trkpt lat="47.24389" lon="-1.63733">
        <ele>-74</ele>
        <time>2012-01-28T13:53:37Z</time>
      </trkpt>
      <trkpt lat="47.2439" lon="-1.63746">
        <ele>-74</ele>
        <time>2012-01-28T13:53:41Z</time>
      </trkpt>
      <trkpt lat="47.24398" lon="-1.63753">
        <ele>-76.75</ele>
        <time>2012-01-28T13:53:57Z</time>
      </trkpt>
      <trkpt lat="47.24405" lon="-1.63744">
        <ele>-77.25</ele>
        <time>2012-01-28T13:54:02Z</time>
      </trkpt>
      <trkpt lat="47.24414" lon="-1.63741">
        <ele>-78</ele>
        <time>2012-01-28T13:54:06Z</time>
      </trkpt>
      <trkpt lat="47.24424" lon="-1.63744">
        <ele>-79.25</ele>
        <time>2012-01-28T13:54:10Z</time>
      </trkpt>
      <trkpt lat="47.24428" lon="-1.63761">
        <ele>-81.75</ele>
        <time>2012-01-28T13:54:15Z</time>
      </trkpt>
      <trkpt lat="47.2443" lon="-1.63775">
        <ele>-82</ele>
        <time>2012-01-28T13:54:18Z</time>
      </trkpt>
      <trkpt lat="47.24431" lon="-1.63792">
        <ele>-82.25</ele>
        <time>2012-01-28T13:54:20Z</time>
      </trkpt>
      <trkpt lat="47.24429" lon="-1.6381">
        <ele>-80.75</ele>
        <time>2012-01-28T13:54:22Z</time>
      </trkpt>
      <trkpt lat="47.24425" lon="-1.63828">
        <ele>-77.75</ele>
        <time>2012-01-28T13:54:24Z</time>
      </trkpt>
      <trkpt lat="47.24422" lon="-1.63844">
        <ele>-76.25</ele>
        <time>2012-01-28T13:54:26Z</time>
      </trkpt>
      <trkpt lat="47.24423" lon="-1.63858">
        <ele>-75.75</ele>
        <time>2012-01-28T13:54:29Z</time>
      </trkpt>
      <trkpt lat="47.24426" lon="-1.63875">
        <ele>-74.5</ele>
        <time>2012-01-28T13:54:32Z</time>
      </trkpt>
      <trkpt lat="47.24432" lon="-1.63892">
        <ele>-73.5</ele>
        <time>2012-01-28T13:54:35Z</time>
      </trkpt>
      <trkpt lat="47.24437" lon="-1.63907">
        <ele>-73.75</ele>
        <time>2012-01-28T13:54:37Z</time>
      </trkpt>
      <trkpt lat="47.24441" lon="-1.63921">
        <ele>-74.5</ele>
        <time>2012-01-28T13:54:40Z</time>
      </trkpt>
      <trkpt lat="47.24446" lon="-1.63939">
        <ele>-74.75</ele>
        <time>2012-01-28T13:54:43Z</time>
      </trkpt>
      <trkpt lat="47.24451" lon="-1.63955">
        <ele>-75</ele>
        <time>2012-01-28T13:54:46Z</time>
      </trkpt>
      <trkpt lat="47.24454" lon="-1.63967">
        <ele>-75.5</ele>
        <time>2012-01-28T13:54:48Z</time>
      </trkpt>
      <trkpt lat="47.24458" lon="-1.63981">
        <ele>-76.5</ele>
        <time>2012-01-28T13:54:51Z</time>
      </trkpt>
      <trkpt lat="47.24462" lon="-1.63994">
        <ele>-77</ele>
        <time>2012-01-28T13:54:53Z</time>
      </trkpt>
      <trkpt lat="47.24467" lon="-1.64008">
        <ele>-76.75</ele>
        <time>2012-01-28T13:54:55Z</time>
      </trkpt>
      <trkpt lat="47.24472" lon="-1.6402">
        <ele>-77</ele>
        <time>2012-01-28T13:54:57Z</time>
      </trkpt>
      <trkpt lat="47.24477" lon="-1.64032">
        <ele>-78</ele>
        <time>2012-01-28T13:54:59Z</time>
      </trkpt>
      <trkpt lat="47.24482" lon="-1.64049">
        <ele>-79.75</ele>
        <time>2012-01-28T13:55:03Z</time>
      </trkpt>
      <trkpt lat="47.24488" lon="-1.64062">
        <ele>-79</ele>
        <time>2012-01-28T13:55:06Z</time>
      </trkpt>
      <trkpt lat="47.24495" lon="-1.64074">
        <ele>-75.75</ele>
        <time>2012-01-28T13:55:09Z</time>
      </trkpt>
      <trkpt lat="47.24501" lon="-1.64085">
        <ele>-74.5</ele>
        <time>2012-01-28T13:55:11Z</time>
      </trkpt>
      <trkpt lat="47.24507" lon="-1.64097">
        <ele>-75.25</ele>
        <time>2012-01-28T13:55:14Z</time>
      </trkpt>
      <trkpt lat="47.24512" lon="-1.64112">
        <ele>-77</ele>
        <time>2012-01-28T13:55:17Z</time>
      </trkpt>
      <trkpt lat="47.24519" lon="-1.64127">
        <ele>-78.5</ele>
        <time>2012-01-28T13:55:20Z</time>
      </trkpt>
      <trkpt lat="47.24525" lon="-1.6414">
        <ele>-79.5</ele>
        <time>2012-01-28T13:55:22Z</time>
      </trkpt>
      <trkpt lat="47.24532" lon="-1.64154">
        <ele>-80.25</ele>
        <time>2012-01-28T13:55:25Z</time>
      </trkpt>
      <trkpt lat="47.24539" lon="-1.64166">
        <ele>-80.75</ele>
        <time>2012-01-28T13:55:27Z</time>
      </trkpt>
      <trkpt lat="47.24545" lon="-1.64177">
        <ele>-81.5</ele>
        <time>2012-01-28T13:55:29Z</time>
      </trkpt>
      <trkpt lat="47.24551" lon="-1.64188">
        <ele>-82.25</ele>
        <time>2012-01-28T13:55:31Z</time>
      </trkpt>
      <trkpt lat="47.24557" lon="-1.642">
        <ele>-83</ele>
        <time>2012-01-28T13:55:33Z</time>
      </trkpt>
      <trkpt lat="47.24563" lon="-1.64212">
        <ele>-84</ele>
        <time>2012-01-28T13:55:35Z</time>
      </trkpt>
      <trkpt lat="47.24569" lon="-1.64224">
        <ele>-84.25</ele>
        <time>2012-01-28T13:55:39Z</time>
      </trkpt>
      <trkpt lat="47.24574" lon="-1.64236">
        <ele>-83</ele>
        <time>2012-01-28T13:55:42Z</time>
      </trkpt>
      <trkpt lat="47.2458" lon="-1.64248">
        <ele>-81.25</ele>
        <time>2012-01-28T13:55:45Z</time>
      </trkpt>
      <trkpt lat="47.24589" lon="-1.64255">
        <ele>-78.5</ele>
        <time>2012-01-28T13:55:52Z</time>
      </trkpt>
      <trkpt lat="47.24595" lon="-1.64266">
        <ele>-80</ele>
        <time>2012-01-28T13:56:01Z</time>
      </trkpt>
      <trkpt lat="47.24604" lon="-1.6427">
        <ele>-89.25</ele>
        <time>2012-01-28T13:56:22Z</time>
      </trkpt>
      <trkpt lat="47.24606" lon="-1.64286">
        <ele>-81.25</ele>
        <time>2012-01-28T13:56:53Z</time>
      </trkpt>
      <trkpt lat="47.24612" lon="-1.643">
        <ele>-79.5</ele>
        <time>2012-01-28T13:56:58Z</time>
      </trkpt>
      <trkpt lat="47.24623" lon="-1.64305">
        <ele>-76.75</ele>
        <time>2012-01-28T13:57:02Z</time>
      </trkpt>
      <trkpt lat="47.24633" lon="-1.64303">
        <ele>-76.25</ele>
        <time>2012-01-28T13:57:06Z</time>
      </trkpt>
      <trkpt lat="47.24642" lon="-1.64299">
        <ele>-77.5</ele>
        <time>2012-01-28T13:57:10Z</time>
      </trkpt>
      <trkpt lat="47.24651" lon="-1.64293">
        <ele>-79</ele>
        <time>2012-01-28T13:57:14Z</time>
      </trkpt>
      <trkpt lat="47.24659" lon="-1.64286">
        <ele>-79.75</ele>
        <time>2012-01-28T13:57:18Z</time>
      </trkpt>
      <trkpt lat="47.24667" lon="-1.64277">
        <ele>-81</ele>
        <time>2012-01-28T13:57:22Z</time>
      </trkpt>
      <trkpt lat="47.24675" lon="-1.6427">
        <ele>-81</ele>
        <time>2012-01-28T13:57:26Z</time>
      </trkpt>
      <trkpt lat="47.24685" lon="-1.64261">
        <ele>-82</ele>
        <time>2012-01-28T13:57:30Z</time>
      </trkpt>
      <trkpt lat="47.24695" lon="-1.64253">
        <ele>-82.25</ele>
        <time>2012-01-28T13:57:35Z</time>
      </trkpt>
      <trkpt lat="47.24704" lon="-1.64245">
        <ele>-83</ele>
        <time>2012-01-28T13:57:39Z</time>
      </trkpt>
      <trkpt lat="47.24714" lon="-1.64235">
        <ele>-84</ele>
        <time>2012-01-28T13:57:43Z</time>
      </trkpt>
      <trkpt lat="47.24722" lon="-1.64227">
        <ele>-84</ele>
        <time>2012-01-28T13:57:47Z</time>
      </trkpt>
      <trkpt lat="47.24731" lon="-1.64218">
        <ele>-84</ele>
        <time>2012-01-28T13:57:51Z</time>
      </trkpt>
      <trkpt lat="47.24741" lon="-1.64214">
        <ele>-84.25</ele>
        <time>2012-01-28T13:57:55Z</time>
      </trkpt>
      <trkpt lat="47.24754" lon="-1.6421">
        <ele>-85</ele>
        <time>2012-01-28T13:58:00Z</time>
      </trkpt>
      <trkpt lat="47.24764" lon="-1.64207">
        <ele>-86</ele>
        <time>2012-01-28T13:58:05Z</time>
      </trkpt>
      <trkpt lat="47.24775" lon="-1.64207">
        <ele>-86</ele>
        <time>2012-01-28T13:58:10Z</time>
      </trkpt>
      <trkpt lat="47.24785" lon="-1.64207">
        <ele>-87</ele>
        <time>2012-01-28T13:58:15Z</time>
      </trkpt>
      <trkpt lat="47.24794" lon="-1.64207">
        <ele>-88</ele>
        <time>2012-01-28T13:58:22Z</time>
      </trkpt>
      <trkpt lat="47.24804" lon="-1.64211">
        <ele>-90.5</ele>
        <time>2012-01-28T13:59:40Z</time>
      </trkpt>
      <trkpt lat="47.24813" lon="-1.64216">
        <ele>-91</ele>
        <time>2012-01-28T13:59:44Z</time>
      </trkpt>
      <trkpt lat="47.24823" lon="-1.6422">
        <ele>-91</ele>
        <time>2012-01-28T13:59:47Z</time>
      </trkpt>
      <trkpt lat="47.24833" lon="-1.64222">
        <ele>-91</ele>
        <time>2012-01-28T13:59:50Z</time>
      </trkpt>
      <trkpt lat="47.24842" lon="-1.64223">
        <ele>-91</ele>
        <time>2012-01-28T13:59:52Z</time>
      </trkpt>
      <trkpt lat="47.24852" lon="-1.64224">
        <ele>-91</ele>
        <time>2012-01-28T13:59:55Z</time>
      </trkpt>
      <trkpt lat="47.24862" lon="-1.64224">
        <ele>-91.75</ele>
        <time>2012-01-28T13:59:58Z</time>
      </trkpt>
      <trkpt lat="47.24871" lon="-1.64226">
        <ele>-92</ele>
        <time>2012-01-28T14:00:01Z</time>
      </trkpt>
      <trkpt lat="47.2488" lon="-1.64227">
        <ele>-92.25</ele>
        <time>2012-01-28T14:00:04Z</time>
      </trkpt>
      <trkpt lat="47.2489" lon="-1.6423">
        <ele>-93</ele>
        <time>2012-01-28T14:00:08Z</time>
      </trkpt>
      <trkpt lat="47.249" lon="-1.64233">
        <ele>-93</ele>
        <time>2012-01-28T14:00:12Z</time>
      </trkpt>
      <trkpt lat="47.24911" lon="-1.64236">
        <ele>-93.5</ele>
        <time>2012-01-28T14:00:16Z</time>
      </trkpt>
      <trkpt lat="47.24919" lon="-1.64242">
        <ele>-94</ele>
        <time>2012-01-28T14:00:21Z</time>
      </trkpt>
      <trkpt lat="47.24925" lon="-1.64253">
        <ele>-94.75</ele>
        <time>2012-01-28T14:00:26Z</time>
      </trkpt>
      <trkpt lat="47.24929" lon="-1.64269">
        <ele>-94</ele>
        <time>2012-01-28T14:00:31Z</time>
      </trkpt>
      <trkpt lat="47.24932" lon="-1.64283">
        <ele>-92.75</ele>
        <time>2012-01-28T14:00:35Z</time>
      </trkpt>
      <trkpt lat="47.24937" lon="-1.643">
        <ele>-93.25</ele>
        <time>2012-01-28T14:00:39Z</time>
      </trkpt>
      <trkpt lat="47.2494" lon="-1.64316">
        <ele>-94.5</ele>
        <time>2012-01-28T14:00:43Z</time>
      </trkpt>
      <trkpt lat="47.24944" lon="-1.64329">
        <ele>-95</ele>
        <time>2012-01-28T14:00:46Z</time>
      </trkpt>
      <trkpt lat="47.24948" lon="-1.64344">
        <ele>-94.25</ele>
        <time>2012-01-28T14:00:49Z</time>
      </trkpt>
      <trkpt lat="47.24952" lon="-1.64361">
        <ele>-94</ele>
        <time>2012-01-28T14:00:53Z</time>
      </trkpt>
      <trkpt lat="47.24956" lon="-1.64373">
        <ele>-93.25</ele>
        <time>2012-01-28T14:00:55Z</time>
      </trkpt>
      <trkpt lat="47.24961" lon="-1.64389">
        <ele>-92</ele>
        <time>2012-01-28T14:00:58Z</time>
      </trkpt>
      <trkpt lat="47.24967" lon="-1.64408">
        <ele>-92</ele>
        <time>2012-01-28T14:01:01Z</time>
      </trkpt>
      <trkpt lat="47.24971" lon="-1.64424">
        <ele>-92</ele>
        <time>2012-01-28T14:01:03Z</time>
      </trkpt>
      <trkpt lat="47.24975" lon="-1.64438">
        <ele>-92</ele>
        <time>2012-01-28T14:01:06Z</time>
      </trkpt>
      <trkpt lat="47.24979" lon="-1.64454">
        <ele>-92</ele>
        <time>2012-01-28T14:01:09Z</time>
      </trkpt>
      <trkpt lat="47.24983" lon="-1.64469">
        <ele>-92</ele>
        <time>2012-01-28T14:01:12Z</time>
      </trkpt>
      <trkpt lat="47.24988" lon="-1.64483">
        <ele>-92</ele>
        <time>2012-01-28T14:01:14Z</time>
      </trkpt>
      <trkpt lat="47.24992" lon="-1.64497">
        <ele>-91.5</ele>
        <time>2012-01-28T14:01:17Z</time>
      </trkpt>
      <trkpt lat="47.24996" lon="-1.64509">
        <ele>-91</ele>
        <time>2012-01-28T14:01:19Z</time>
      </trkpt>
      <trkpt lat="47.25" lon="-1.64522">
        <ele>-91</ele>
        <time>2012-01-28T14:01:21Z</time>
      </trkpt>
      <trkpt lat="47.25004" lon="-1.64534">
        <ele>-90.5</ele>
        <time>2012-01-28T14:01:23Z</time>
      </trkpt>
      <trkpt lat="47.25009" lon="-1.64549">
        <ele>-89.5</ele>
        <time>2012-01-28T14:01:25Z</time>
      </trkpt>
      <trkpt lat="47.25014" lon="-1.64563">
        <ele>-89</ele>
        <time>2012-01-28T14:01:28Z</time>
      </trkpt>
      <trkpt lat="47.25019" lon="-1.64575">
        <ele>-88.5</ele>
        <time>2012-01-28T14:01:31Z</time>
      </trkpt>
      <trkpt lat="47.25027" lon="-1.64581">
        <ele>-86.75</ele>
        <time>2012-01-28T14:01:53Z</time>
      </trkpt>
      <trkpt lat="47.25036" lon="-1.64574">
        <ele>-89.75</ele>
        <time>2012-01-28T14:01:58Z</time>
      </trkpt>
      <trkpt lat="47.25047" lon="-1.64566">
        <ele>-92.75</ele>
        <time>2012-01-28T14:02:03Z</time>
      </trkpt>
      <trkpt lat="47.25057" lon="-1.64556">
        <ele>-92.75</ele>
        <time>2012-01-28T14:02:06Z</time>
      </trkpt>
      <trkpt lat="47.25066" lon="-1.64547">
        <ele>-93.5</ele>
        <time>2012-01-28T14:02:10Z</time>
      </trkpt>
      <trkpt lat="47.25074" lon="-1.64539">
        <ele>-95.5</ele>
        <time>2012-01-28T14:02:16Z</time>
      </trkpt>
      <trkpt lat="47.25081" lon="-1.6453">
        <ele>-96.25</ele>
        <time>2012-01-28T14:02:20Z</time>
      </trkpt>
      <trkpt lat="47.25091" lon="-1.64528">
        <ele>-96.75</ele>
        <time>2012-01-28T14:02:25Z</time>
      </trkpt>
      <trkpt lat="47.25095" lon="-1.64542">
        <ele>-96</ele>
        <time>2012-01-28T14:02:29Z</time>
      </trkpt>
      <trkpt lat="47.25096" lon="-1.64558">
        <ele>-96</ele>
        <time>2012-01-28T14:02:32Z</time>
      </trkpt>
      <trkpt lat="47.25097" lon="-1.64573">
        <ele>-96</ele>
        <time>2012-01-28T14:02:34Z</time>
      </trkpt>
      <trkpt lat="47.25098" lon="-1.64587">
        <ele>-95.75</ele>
        <time>2012-01-28T14:02:37Z</time>
      </trkpt>
      <trkpt lat="47.251" lon="-1.64604">
        <ele>-95</ele>
        <time>2012-01-28T14:02:40Z</time>
      </trkpt>
      <trkpt lat="47.25101" lon="-1.64621">
        <ele>-95.25</ele>
        <time>2012-01-28T14:02:43Z</time>
      </trkpt>
      <trkpt lat="47.251" lon="-1.64639">
        <ele>-96</ele>
        <time>2012-01-28T14:02:46Z</time>
      </trkpt>
      <trkpt lat="47.25098" lon="-1.64658">
        <ele>-96.5</ele>
        <time>2012-01-28T14:02:50Z</time>
      </trkpt>
      <trkpt lat="47.25096" lon="-1.64672">
        <ele>-96.5</ele>
        <time>2012-01-28T14:02:52Z</time>
      </trkpt>
      <trkpt lat="47.25094" lon="-1.6469">
        <ele>-95.5</ele>
        <time>2012-01-28T14:02:54Z</time>
      </trkpt>
      <trkpt lat="47.25092" lon="-1.64711">
        <ele>-94.5</ele>
        <time>2012-01-28T14:02:56Z</time>
      </trkpt>
      <trkpt lat="47.25091" lon="-1.64724">
        <ele>-94</ele>
        <time>2012-01-28T14:02:57Z</time>
      </trkpt>
      <trkpt lat="47.25089" lon="-1.64737">
        <ele>-93.25</ele>
        <time>2012-01-28T14:02:58Z</time>
      </trkpt>
      <trkpt lat="47.25088" lon="-1.6475">
        <ele>-92.75</ele>
        <time>2012-01-28T14:03:00Z</time>
      </trkpt>
      <trkpt lat="47.25085" lon="-1.6477">
        <ele>-91.75</ele>
        <time>2012-01-28T14:03:02Z</time>
      </trkpt>
      <trkpt lat="47.25083" lon="-1.64788">
        <ele>-91.25</ele>
        <time>2012-01-28T14:03:04Z</time>
      </trkpt>
      <trkpt lat="47.25081" lon="-1.64806">
        <ele>-90.5</ele>
        <time>2012-01-28T14:03:06Z</time>
      </trkpt>
      <trkpt lat="47.25085" lon="-1.64822">
        <ele>-90.75</ele>
        <time>2012-01-28T14:03:10Z</time>
      </trkpt>
      <trkpt lat="47.25095" lon="-1.64829">
        <ele>-90.75</ele>
        <time>2012-01-28T14:03:14Z</time>
      </trkpt>
      <trkpt lat="47.25104" lon="-1.64834">
        <ele>-90</ele>
        <time>2012-01-28T14:03:19Z</time>
      </trkpt>
      <trkpt lat="47.25113" lon="-1.64842">
        <ele>-90.75</ele>
        <time>2012-01-28T14:03:26Z</time>
      </trkpt>
      <trkpt lat="47.25122" lon="-1.64849">
        <ele>-92.25</ele>
        <time>2012-01-28T14:03:30Z</time>
      </trkpt>
      <trkpt lat="47.2513" lon="-1.64856">
        <ele>-93.5</ele>
        <time>2012-01-28T14:03:35Z</time>
      </trkpt>
      <trkpt lat="47.2514" lon="-1.64864">
        <ele>-94</ele>
        <time>2012-01-28T14:03:39Z</time>
      </trkpt>
      <trkpt lat="47.25149" lon="-1.64872">
        <ele>-94.75</ele>
        <time>2012-01-28T14:03:43Z</time>
      </trkpt>
      <trkpt lat="47.25154" lon="-1.64885">
        <ele>-96.5</ele>
        <time>2012-01-28T14:03:48Z</time>
      </trkpt>
      <trkpt lat="47.25158" lon="-1.64901">
        <ele>-96.5</ele>
        <time>2012-01-28T14:03:52Z</time>
      </trkpt>
      <trkpt lat="47.25163" lon="-1.64916">
        <ele>-96</ele>
        <time>2012-01-28T14:03:57Z</time>
      </trkpt>
      <trkpt lat="47.25167" lon="-1.64931">
        <ele>-96</ele>
        <time>2012-01-28T14:04:01Z</time>
      </trkpt>
      <trkpt lat="47.25169" lon="-1.64946">
        <ele>-97.25</ele>
        <time>2012-01-28T14:04:04Z</time>
      </trkpt>
      <trkpt lat="47.2517" lon="-1.64963">
        <ele>-98</ele>
        <time>2012-01-28T14:04:08Z</time>
      </trkpt>
      <trkpt lat="47.25169" lon="-1.64981">
        <ele>-98</ele>
        <time>2012-01-28T14:04:12Z</time>
      </trkpt>
      <trkpt lat="47.25169" lon="-1.65">
        <ele>-95.75</ele>
        <time>2012-01-28T14:04:15Z</time>
      </trkpt>
      <trkpt lat="47.25169" lon="-1.65016">
        <ele>-93.5</ele>
        <time>2012-01-28T14:04:17Z</time>
      </trkpt>
      <trkpt lat="47.25169" lon="-1.6503">
        <ele>-92.5</ele>
        <time>2012-01-28T14:04:20Z</time>
      </trkpt>
      <trkpt lat="47.2517" lon="-1.65049">
        <ele>-93</ele>
        <time>2012-01-28T14:04:23Z</time>
      </trkpt>
      <trkpt lat="47.2517" lon="-1.65068">
        <ele>-93</ele>
        <time>2012-01-28T14:04:26Z</time>
      </trkpt>
      <trkpt lat="47.2517" lon="-1.65083">
        <ele>-93.5</ele>
        <time>2012-01-28T14:04:28Z</time>
      </trkpt>
      <trkpt lat="47.25169" lon="-1.651">
        <ele>-93.75</ele>
        <time>2012-01-28T14:04:31Z</time>
      </trkpt>
      <trkpt lat="47.25168" lon="-1.65116">
        <ele>-93.75</ele>
        <time>2012-01-28T14:04:33Z</time>
      </trkpt>
      <trkpt lat="47.25165" lon="-1.6513">
        <ele>-94.5</ele>
        <time>2012-01-28T14:04:35Z</time>
      </trkpt>
      <trkpt lat="47.25162" lon="-1.65144">
        <ele>-95</ele>
        <time>2012-01-28T14:04:37Z</time>
      </trkpt>
      <trkpt lat="47.25157" lon="-1.65161">
        <ele>-94.75</ele>
        <time>2012-01-28T14:04:39Z</time>
      </trkpt>
      <trkpt lat="47.25153" lon="-1.65181">
        <ele>-94.25</ele>
        <time>2012-01-28T14:04:41Z</time>
      </trkpt>
      <trkpt lat="47.2515" lon="-1.65201">
        <ele>-93.5</ele>
        <time>2012-01-28T14:04:44Z</time>
      </trkpt>
      <trkpt lat="47.25151" lon="-1.65218">
        <ele>-93</ele>
        <time>2012-01-28T14:04:46Z</time>
      </trkpt>
      <trkpt lat="47.25154" lon="-1.65235">
        <ele>-93</ele>
        <time>2012-01-28T14:04:48Z</time>
      </trkpt>
      <trkpt lat="47.25156" lon="-1.65252">
        <ele>-93</ele>
        <time>2012-01-28T14:04:50Z</time>
      </trkpt>
      <trkpt lat="47.25156" lon="-1.65272">
        <ele>-92.75</ele>
        <time>2012-01-28T14:04:52Z</time>
      </trkpt>
      <trkpt lat="47.25154" lon="-1.65291">
        <ele>-91.75</ele>
        <time>2012-01-28T14:04:55Z</time>
      </trkpt>
      <trkpt lat="47.25151" lon="-1.65306">
        <ele>-90.5</ele>
        <time>2012-01-28T14:04:57Z</time>
      </trkpt>
      <trkpt lat="47.25148" lon="-1.65323">
        <ele>-89.5</ele>
        <time>2012-01-28T14:04:59Z</time>
      </trkpt>
      <trkpt lat="47.25143" lon="-1.65338">
        <ele>-88.5</ele>
        <time>2012-01-28T14:05:01Z</time>
      </trkpt>
      <trkpt lat="47.25139" lon="-1.65356">
        <ele>-88</ele>
        <time>2012-01-28T14:05:03Z</time>
      </trkpt>
      <trkpt lat="47.25133" lon="-1.65376">
        <ele>-87.5</ele>
        <time>2012-01-28T14:05:05Z</time>
      </trkpt>
      <trkpt lat="47.25128" lon="-1.65394">
        <ele>-87</ele>
        <time>2012-01-28T14:05:08Z</time>
      </trkpt>
      <trkpt lat="47.25122" lon="-1.65411">
        <ele>-87</ele>
        <time>2012-01-28T14:05:10Z</time>
      </trkpt>
      <trkpt lat="47.25115" lon="-1.65428">
        <ele>-87</ele>
        <time>2012-01-28T14:05:12Z</time>
      </trkpt>
      <trkpt lat="47.2511" lon="-1.65445">
        <ele>-86.5</ele>
        <time>2012-01-28T14:05:14Z</time>
      </trkpt>
      <trkpt lat="47.25106" lon="-1.65469">
        <ele>-85.5</ele>
        <time>2012-01-28T14:05:17Z</time>
      </trkpt>
      <trkpt lat="47.25105" lon="-1.65492">
        <ele>-84.5</ele>
        <time>2012-01-28T14:05:19Z</time>
      </trkpt>
      <trkpt lat="47.25103" lon="-1.65509">
        <ele>-83.75</ele>
        <time>2012-01-28T14:05:21Z</time>
      </trkpt>
      <trkpt lat="47.251" lon="-1.65527">
        <ele>-83</ele>
        <time>2012-01-28T14:05:23Z</time>
      </trkpt>
      <trkpt lat="47.25096" lon="-1.65545">
        <ele>-82</ele>
        <time>2012-01-28T14:05:25Z</time>
      </trkpt>
      <trkpt lat="47.25088" lon="-1.65566">
        <ele>-81.25</ele>
        <time>2012-01-28T14:05:28Z</time>
      </trkpt>
      <trkpt lat="47.2508" lon="-1.65588">
        <ele>-80.5</ele>
        <time>2012-01-28T14:05:30Z</time>
      </trkpt>
      <trkpt lat="47.25076" lon="-1.65606">
        <ele>-80</ele>
        <time>2012-01-28T14:05:32Z</time>
      </trkpt>
      <trkpt lat="47.25073" lon="-1.6562">
        <ele>-80.5</ele>
        <time>2012-01-28T14:05:34Z</time>
      </trkpt>
      <trkpt lat="47.25071" lon="-1.65639">
        <ele>-80.5</ele>
        <time>2012-01-28T14:05:37Z</time>
      </trkpt>
      <trkpt lat="47.25072" lon="-1.65653">
        <ele>-81</ele>
        <time>2012-01-28T14:05:41Z</time>
      </trkpt>
      <trkpt lat="47.2508" lon="-1.6566">
        <ele>-85</ele>
        <time>2012-01-28T14:06:53Z</time>
      </trkpt>
      <trkpt lat="47.25091" lon="-1.65667">
        <ele>-85.75</ele>
        <time>2012-01-28T14:06:57Z</time>
      </trkpt>
      <trkpt lat="47.25099" lon="-1.65671">
        <ele>-86</ele>
        <time>2012-01-28T14:07:01Z</time>
      </trkpt>
      <trkpt lat="47.25111" lon="-1.65676">
        <ele>-86.75</ele>
        <time>2012-01-28T14:07:05Z</time>
      </trkpt>
      <trkpt lat="47.25122" lon="-1.65681">
        <ele>-87</ele>
        <time>2012-01-28T14:07:09Z</time>
      </trkpt>
      <trkpt lat="47.25133" lon="-1.65685">
        <ele>-87</ele>
        <time>2012-01-28T14:07:13Z</time>
      </trkpt>
      <trkpt lat="47.25143" lon="-1.65688">
        <ele>-87</ele>
        <time>2012-01-28T14:07:16Z</time>
      </trkpt>
      <trkpt lat="47.25153" lon="-1.6569">
        <ele>-86.75</ele>
        <time>2012-01-28T14:07:19Z</time>
      </trkpt>
      <trkpt lat="47.25162" lon="-1.65692">
        <ele>-87.5</ele>
        <time>2012-01-28T14:07:23Z</time>
      </trkpt>
      <trkpt lat="47.25172" lon="-1.65694">
        <ele>-88</ele>
        <time>2012-01-28T14:07:29Z</time>
      </trkpt>
      <trkpt lat="47.25176" lon="-1.65707">
        <ele>-90.25</ele>
        <time>2012-01-28T14:07:42Z</time>
      </trkpt>
      <trkpt lat="47.25178" lon="-1.65721">
        <ele>-91.25</ele>
        <time>2012-01-28T14:07:46Z</time>
      </trkpt>
      <trkpt lat="47.25181" lon="-1.65735">
        <ele>-93.75</ele>
        <time>2012-01-28T14:07:51Z</time>
      </trkpt>
      <trkpt lat="47.25185" lon="-1.65749">
        <ele>-94</ele>
        <time>2012-01-28T14:07:54Z</time>
      </trkpt>
      <trkpt lat="47.25188" lon="-1.65762">
        <ele>-94</ele>
        <time>2012-01-28T14:07:57Z</time>
      </trkpt>
      <trkpt lat="47.25194" lon="-1.65777">
        <ele>-94</ele>
        <time>2012-01-28T14:08:00Z</time>
      </trkpt>
      <trkpt lat="47.25198" lon="-1.65791">
        <ele>-93.5</ele>
        <time>2012-01-28T14:08:03Z</time>
      </trkpt>
      <trkpt lat="47.25203" lon="-1.65803">
        <ele>-91.75</ele>
        <time>2012-01-28T14:08:05Z</time>
      </trkpt>
      <trkpt lat="47.25207" lon="-1.65815">
        <ele>-90</ele>
        <time>2012-01-28T14:08:08Z</time>
      </trkpt>
      <trkpt lat="47.25213" lon="-1.6583">
        <ele>-89</ele>
        <time>2012-01-28T14:08:11Z</time>
      </trkpt>
      <trkpt lat="47.25217" lon="-1.65844">
        <ele>-89</ele>
        <time>2012-01-28T14:08:14Z</time>
      </trkpt>
      <trkpt lat="47.25221" lon="-1.65856">
        <ele>-90.25</ele>
        <time>2012-01-28T14:08:16Z</time>
      </trkpt>
      <trkpt lat="47.25226" lon="-1.65868">
        <ele>-91.75</ele>
        <time>2012-01-28T14:08:19Z</time>
      </trkpt>
      <trkpt lat="47.25231" lon="-1.65884">
        <ele>-92.25</ele>
        <time>2012-01-28T14:08:22Z</time>
      </trkpt>
      <trkpt lat="47.25236" lon="-1.65899">
        <ele>-91.5</ele>
        <time>2012-01-28T14:08:25Z</time>
      </trkpt>
      <trkpt lat="47.2524" lon="-1.65917">
        <ele>-92</ele>
        <time>2012-01-28T14:08:28Z</time>
      </trkpt>
      <trkpt lat="47.25244" lon="-1.6593">
        <ele>-92.75</ele>
        <time>2012-01-28T14:08:31Z</time>
      </trkpt>
      <trkpt lat="47.25249" lon="-1.65946">
        <ele>-93</ele>
        <time>2012-01-28T14:08:34Z</time>
      </trkpt>
      <trkpt lat="47.25255" lon="-1.65961">
        <ele>-93</ele>
        <time>2012-01-28T14:08:37Z</time>
      </trkpt>
      <trkpt lat="47.2526" lon="-1.65973">
        <ele>-93</ele>
        <time>2012-01-28T14:08:39Z</time>
      </trkpt>
      <trkpt lat="47.25265" lon="-1.65985">
        <ele>-92.75</ele>
        <time>2012-01-28T14:08:42Z</time>
      </trkpt>
      <trkpt lat="47.25272" lon="-1.65999">
        <ele>-92</ele>
        <time>2012-01-28T14:08:45Z</time>
      </trkpt>
      <trkpt lat="47.25279" lon="-1.66012">
        <ele>-92</ele>
        <time>2012-01-28T14:08:48Z</time>
      </trkpt>
      <trkpt lat="47.25284" lon="-1.66023">
        <ele>-92</ele>
        <time>2012-01-28T14:08:50Z</time>
      </trkpt>
      <trkpt lat="47.2529" lon="-1.66034">
        <ele>-91.75</ele>
        <time>2012-01-28T14:08:53Z</time>
      </trkpt>
      <trkpt lat="47.25296" lon="-1.66047">
        <ele>-91.25</ele>
        <time>2012-01-28T14:08:56Z</time>
      </trkpt>
      <trkpt lat="47.25302" lon="-1.6606">
        <ele>-91.75</ele>
        <time>2012-01-28T14:08:59Z</time>
      </trkpt>
      <trkpt lat="47.2531" lon="-1.66075">
        <ele>-91</ele>
        <time>2012-01-28T14:09:03Z</time>
      </trkpt>
      <trkpt lat="47.25317" lon="-1.66091">
        <ele>-90.75</ele>
        <time>2012-01-28T14:09:06Z</time>
      </trkpt>
      <trkpt lat="47.25322" lon="-1.66111">
        <ele>-90.25</ele>
        <time>2012-01-28T14:09:08Z</time>
      </trkpt>
      <trkpt lat="47.25322" lon="-1.66127">
        <ele>-90</ele>
        <time>2012-01-28T14:09:10Z</time>
      </trkpt>
      <trkpt lat="47.25321" lon="-1.66148">
        <ele>-90</ele>
        <time>2012-01-28T14:09:12Z</time>
      </trkpt>
      <trkpt lat="47.2532" lon="-1.66168">
        <ele>-89.5</ele>
        <time>2012-01-28T14:09:15Z</time>
      </trkpt>
      <trkpt lat="47.2532" lon="-1.66184">
        <ele>-89</ele>
        <time>2012-01-28T14:09:17Z</time>
      </trkpt>
      <trkpt lat="47.2532" lon="-1.66201">
        <ele>-89</ele>
        <time>2012-01-28T14:09:19Z</time>
      </trkpt>
      <trkpt lat="47.25319" lon="-1.66217">
        <ele>-89</ele>
        <time>2012-01-28T14:09:21Z</time>
      </trkpt>
      <trkpt lat="47.25319" lon="-1.66237">
        <ele>-89</ele>
        <time>2012-01-28T14:09:23Z</time>
      </trkpt>
      <trkpt lat="47.2532" lon="-1.66256">
        <ele>-89.5</ele>
        <time>2012-01-28T14:09:26Z</time>
      </trkpt>
      <trkpt lat="47.2532" lon="-1.66271">
        <ele>-89.5</ele>
        <time>2012-01-28T14:09:28Z</time>
      </trkpt>
      <trkpt lat="47.25321" lon="-1.66285">
        <ele>-89</ele>
        <time>2012-01-28T14:09:30Z</time>
      </trkpt>
      <trkpt lat="47.25322" lon="-1.66304">
        <ele>-89</ele>
        <time>2012-01-28T14:09:33Z</time>
      </trkpt>
      <trkpt lat="47.25323" lon="-1.66317">
        <ele>-89.25</ele>
        <time>2012-01-28T14:09:36Z</time>
      </trkpt>
      <trkpt lat="47.25324" lon="-1.66335">
        <ele>-90</ele>
        <time>2012-01-28T14:09:39Z</time>
      </trkpt>
      <trkpt lat="47.25325" lon="-1.6635">
        <ele>-90</ele>
        <time>2012-01-28T14:09:42Z</time>
      </trkpt>
      <trkpt lat="47.25325" lon="-1.66369">
        <ele>-90</ele>
        <time>2012-01-28T14:09:45Z</time>
      </trkpt>
      <trkpt lat="47.25325" lon="-1.66383">
        <ele>-90</ele>
        <time>2012-01-28T14:09:48Z</time>
      </trkpt>
      <trkpt lat="47.25325" lon="-1.66399">
        <ele>-90</ele>
        <time>2012-01-28T14:09:51Z</time>
      </trkpt>
      <trkpt lat="47.25324" lon="-1.66419">
        <ele>-89.75</ele>
        <time>2012-01-28T14:09:54Z</time>
      </trkpt>
      <trkpt lat="47.25324" lon="-1.66434">
        <ele>-89.25</ele>
        <time>2012-01-28T14:09:57Z</time>
      </trkpt>
      <trkpt lat="47.25325" lon="-1.66448">
        <ele>-88.75</ele>
        <time>2012-01-28T14:09:59Z</time>
      </trkpt>
      <trkpt lat="47.25325" lon="-1.66462">
        <ele>-88</ele>
        <time>2012-01-28T14:10:01Z</time>
      </trkpt>
      <trkpt lat="47.25325" lon="-1.66478">
        <ele>-87.25</ele>
        <time>2012-01-28T14:10:03Z</time>
      </trkpt>
      <trkpt lat="47.25325" lon="-1.66494">
        <ele>-87</ele>
        <time>2012-01-28T14:10:05Z</time>
      </trkpt>
      <trkpt lat="47.25326" lon="-1.6651">
        <ele>-87</ele>
        <time>2012-01-28T14:10:07Z</time>
      </trkpt>
      <trkpt lat="47.25327" lon="-1.66524">
        <ele>-87.25</ele>
        <time>2012-01-28T14:10:10Z</time>
      </trkpt>
      <trkpt lat="47.25329" lon="-1.66539">
        <ele>-89</ele>
        <time>2012-01-28T14:10:14Z</time>
      </trkpt>
      <trkpt lat="47.2533" lon="-1.66553">
        <ele>-90.5</ele>
        <time>2012-01-28T14:10:18Z</time>
      </trkpt>
      <trkpt lat="47.25331" lon="-1.66568">
        <ele>-91</ele>
        <time>2012-01-28T14:10:22Z</time>
      </trkpt>
      <trkpt lat="47.25332" lon="-1.66582">
        <ele>-91.75</ele>
        <time>2012-01-28T14:10:25Z</time>
      </trkpt>
      <trkpt lat="47.25333" lon="-1.66597">
        <ele>-92</ele>
        <time>2012-01-28T14:10:28Z</time>
      </trkpt>
      <trkpt lat="47.25334" lon="-1.66615">
        <ele>-92</ele>
        <time>2012-01-28T14:10:31Z</time>
      </trkpt>
      <trkpt lat="47.25334" lon="-1.66633">
        <ele>-92.75</ele>
        <time>2012-01-28T14:10:35Z</time>
      </trkpt>
      <trkpt lat="47.25333" lon="-1.66648">
        <ele>-93</ele>
        <time>2012-01-28T14:10:38Z</time>
      </trkpt>
      <trkpt lat="47.25333" lon="-1.66662">
        <ele>-93</ele>
        <time>2012-01-28T14:10:41Z</time>
      </trkpt>
      <trkpt lat="47.25333" lon="-1.66679">
        <ele>-93</ele>
        <time>2012-01-28T14:10:45Z</time>
      </trkpt>
      <trkpt lat="47.25333" lon="-1.66693">
        <ele>-93.5</ele>
        <time>2012-01-28T14:10:48Z</time>
      </trkpt>
      <trkpt lat="47.25333" lon="-1.6671">
        <ele>-94</ele>
        <time>2012-01-28T14:10:52Z</time>
      </trkpt>
      <trkpt lat="47.25333" lon="-1.66725">
        <ele>-94</ele>
        <time>2012-01-28T14:10:55Z</time>
      </trkpt>
      <trkpt lat="47.25333" lon="-1.6674">
        <ele>-94</ele>
        <time>2012-01-28T14:10:59Z</time>
      </trkpt>
      <trkpt lat="47.25333" lon="-1.66753">
        <ele>-94</ele>
        <time>2012-01-28T14:11:02Z</time>
      </trkpt>
      <trkpt lat="47.25334" lon="-1.66767">
        <ele>-94</ele>
        <time>2012-01-28T14:11:05Z</time>
      </trkpt>
      <trkpt lat="47.25334" lon="-1.66782">
        <ele>-94</ele>
        <time>2012-01-28T14:11:08Z</time>
      </trkpt>
      <trkpt lat="47.25335" lon="-1.66798">
        <ele>-94</ele>
        <time>2012-01-28T14:11:12Z</time>
      </trkpt>
      <trkpt lat="47.25335" lon="-1.66814">
        <ele>-94</ele>
        <time>2012-01-28T14:11:16Z</time>
      </trkpt>
      <trkpt lat="47.25335" lon="-1.66828">
        <ele>-94.75</ele>
        <time>2012-01-28T14:11:19Z</time>
      </trkpt>
      <trkpt lat="47.25335" lon="-1.66843">
        <ele>-95</ele>
        <time>2012-01-28T14:11:24Z</time>
      </trkpt>
      <trkpt lat="47.25338" lon="-1.66856">
        <ele>-95.5</ele>
        <time>2012-01-28T14:14:05Z</time>
      </trkpt>
      <trkpt lat="47.25337" lon="-1.66872">
        <ele>-96.5</ele>
        <time>2012-01-28T14:14:08Z</time>
      </trkpt>
      <trkpt lat="47.25337" lon="-1.66893">
        <ele>-97</ele>
        <time>2012-01-28T14:14:11Z</time>
      </trkpt>
      <trkpt lat="47.25338" lon="-1.66911">
        <ele>-97</ele>
        <time>2012-01-28T14:14:14Z</time>
      </trkpt>
      <trkpt lat="47.25338" lon="-1.66929">
        <ele>-96.75</ele>
        <time>2012-01-28T14:14:16Z</time>
      </trkpt>
      <trkpt lat="47.25339" lon="-1.66945">
        <ele>-96.5</ele>
        <time>2012-01-28T14:14:18Z</time>
      </trkpt>
      <trkpt lat="47.25339" lon="-1.6696">
        <ele>-96.75</ele>
        <time>2012-01-28T14:14:20Z</time>
      </trkpt>
      <trkpt lat="47.2534" lon="-1.66973">
        <ele>-97</ele>
        <time>2012-01-28T14:14:22Z</time>
      </trkpt>
      <trkpt lat="47.25342" lon="-1.66991">
        <ele>-97</ele>
        <time>2012-01-28T14:14:26Z</time>
      </trkpt>
      <trkpt lat="47.25341" lon="-1.67007">
        <ele>-97</ele>
        <time>2012-01-28T14:14:30Z</time>
      </trkpt>
      <trkpt lat="47.25342" lon="-1.67023">
        <ele>-97.5</ele>
        <time>2012-01-28T14:14:33Z</time>
      </trkpt>
      <trkpt lat="47.25342" lon="-1.67036">
        <ele>-98.5</ele>
        <time>2012-01-28T14:14:36Z</time>
      </trkpt>
      <trkpt lat="47.25342" lon="-1.67053">
        <ele>-99.25</ele>
        <time>2012-01-28T14:14:39Z</time>
      </trkpt>
      <trkpt lat="47.25343" lon="-1.67069">
        <ele>-98.75</ele>
        <time>2012-01-28T14:14:42Z</time>
      </trkpt>
      <trkpt lat="47.25345" lon="-1.67089">
        <ele>-97.75</ele>
        <time>2012-01-28T14:14:45Z</time>
      </trkpt>
      <trkpt lat="47.25346" lon="-1.67107">
        <ele>-98</ele>
        <time>2012-01-28T14:14:49Z</time>
      </trkpt>
      <trkpt lat="47.25347" lon="-1.67122">
        <ele>-98</ele>
        <time>2012-01-28T14:14:52Z</time>
      </trkpt>
      <trkpt lat="47.25348" lon="-1.67138">
        <ele>-97.75</ele>
        <time>2012-01-28T14:14:55Z</time>
      </trkpt>
      <trkpt lat="47.25351" lon="-1.67158">
        <ele>-97</ele>
        <time>2012-01-28T14:14:59Z</time>
      </trkpt>
      <trkpt lat="47.25353" lon="-1.67172">
        <ele>-97</ele>
        <time>2012-01-28T14:15:02Z</time>
      </trkpt>
      <trkpt lat="47.25354" lon="-1.67188">
        <ele>-96.25</ele>
        <time>2012-01-28T14:15:05Z</time>
      </trkpt>
      <trkpt lat="47.25355" lon="-1.67207">
        <ele>-96</ele>
        <time>2012-01-28T14:15:09Z</time>
      </trkpt>
      <trkpt lat="47.25356" lon="-1.67223">
        <ele>-96</ele>
        <time>2012-01-28T14:15:12Z</time>
      </trkpt>
      <trkpt lat="47.25357" lon="-1.67239">
        <ele>-95.5</ele>
        <time>2012-01-28T14:15:15Z</time>
      </trkpt>
      <trkpt lat="47.25359" lon="-1.67259">
        <ele>-95</ele>
        <time>2012-01-28T14:15:18Z</time>
      </trkpt>
      <trkpt lat="47.25361" lon="-1.67273">
        <ele>-95</ele>
        <time>2012-01-28T14:15:21Z</time>
      </trkpt>
      <trkpt lat="47.25363" lon="-1.67288">
        <ele>-96.5</ele>
        <time>2012-01-28T14:15:24Z</time>
      </trkpt>
      <trkpt lat="47.25365" lon="-1.67304">
        <ele>-96.75</ele>
        <time>2012-01-28T14:15:27Z</time>
      </trkpt>
      <trkpt lat="47.25368" lon="-1.67317">
        <ele>-95.75</ele>
        <time>2012-01-28T14:15:29Z</time>
      </trkpt>
      <trkpt lat="47.25371" lon="-1.67331">
        <ele>-94.75</ele>
        <time>2012-01-28T14:15:32Z</time>
      </trkpt>
      <trkpt lat="47.25374" lon="-1.67346">
        <ele>-93.25</ele>
        <time>2012-01-28T14:15:35Z</time>
      </trkpt>
      <trkpt lat="47.25377" lon="-1.67361">
        <ele>-91.25</ele>
        <time>2012-01-28T14:15:38Z</time>
      </trkpt>
      <trkpt lat="47.25379" lon="-1.67376">
        <ele>-90</ele>
        <time>2012-01-28T14:15:41Z</time>
      </trkpt>
      <trkpt lat="47.2538" lon="-1.6739">
        <ele>-89.25</ele>
        <time>2012-01-28T14:15:43Z</time>
      </trkpt>
      <trkpt lat="47.25377" lon="-1.67404">
        <ele>-87.75</ele>
        <time>2012-01-28T14:15:46Z</time>
      </trkpt>
      <trkpt lat="47.25369" lon="-1.67419">
        <ele>-86.25</ele>
        <time>2012-01-28T14:15:49Z</time>
      </trkpt>
      <trkpt lat="47.25361" lon="-1.67432">
        <ele>-85.75</ele>
        <time>2012-01-28T14:15:52Z</time>
      </trkpt>
      <trkpt lat="47.25369" lon="-1.6744">
        <ele>-82.75</ele>
        <time>2012-01-28T14:15:58Z</time>
      </trkpt>
      <trkpt lat="47.2538" lon="-1.67435">
        <ele>-82.25</ele>
        <time>2012-01-28T14:16:01Z</time>
      </trkpt>
      <trkpt lat="47.25389" lon="-1.67437">
        <ele>-78.25</ele>
        <time>2012-01-28T14:16:06Z</time>
      </trkpt>
      <trkpt lat="47.25401" lon="-1.67435">
        <ele>-73</ele>
        <time>2012-01-28T14:16:12Z</time>
      </trkpt>
      <trkpt lat="47.25411" lon="-1.67423">
        <ele>-72.75</ele>
        <time>2012-01-28T14:16:14Z</time>
      </trkpt>
      <trkpt lat="47.25417" lon="-1.67407">
        <ele>-75</ele>
        <time>2012-01-28T14:16:17Z</time>
      </trkpt>
      <trkpt lat="47.25419" lon="-1.67392">
        <ele>-77</ele>
        <time>2012-01-28T14:16:21Z</time>
      </trkpt>
      <trkpt lat="47.2542" lon="-1.67377">
        <ele>-80</ele>
        <time>2012-01-28T14:16:26Z</time>
      </trkpt>
      <trkpt lat="47.2542" lon="-1.67361">
        <ele>-82.75</ele>
        <time>2012-01-28T14:16:32Z</time>
      </trkpt>
      <trkpt lat="47.25421" lon="-1.67348">
        <ele>-84.75</ele>
        <time>2012-01-28T14:16:36Z</time>
      </trkpt>
      <trkpt lat="47.25426" lon="-1.67337">
        <ele>-86.5</ele>
        <time>2012-01-28T14:16:40Z</time>
      </trkpt>
      <trkpt lat="47.25436" lon="-1.67342">
        <ele>-89</ele>
        <time>2012-01-28T14:16:46Z</time>
      </trkpt>
      <trkpt lat="47.25444" lon="-1.67355">
        <ele>-91.25</ele>
        <time>2012-01-28T14:16:51Z</time>
      </trkpt>
      <trkpt lat="47.2545" lon="-1.67368">
        <ele>-92.75</ele>
        <time>2012-01-28T14:16:56Z</time>
      </trkpt>
      <trkpt lat="47.25456" lon="-1.6738">
        <ele>-94</ele>
        <time>2012-01-28T14:17:01Z</time>
      </trkpt>
      <trkpt lat="47.25465" lon="-1.67385">
        <ele>-95</ele>
        <time>2012-01-28T14:18:44Z</time>
      </trkpt>
      <trkpt lat="47.25472" lon="-1.67394">
        <ele>-94.5</ele>
        <time>2012-01-28T14:18:53Z</time>
      </trkpt>
      <trkpt lat="47.25481" lon="-1.67405">
        <ele>-94</ele>
        <time>2012-01-28T14:18:56Z</time>
      </trkpt>
      <trkpt lat="47.25485" lon="-1.67417">
        <ele>-93.5</ele>
        <time>2012-01-28T14:19:00Z</time>
      </trkpt>
      <trkpt lat="47.25484" lon="-1.67431">
        <ele>-93</ele>
        <time>2012-01-28T14:19:04Z</time>
      </trkpt>
      <trkpt lat="47.25487" lon="-1.67445">
        <ele>-93</ele>
        <time>2012-01-28T14:19:07Z</time>
      </trkpt>
      <trkpt lat="47.2549" lon="-1.67462">
        <ele>-93</ele>
        <time>2012-01-28T14:19:11Z</time>
      </trkpt>
      <trkpt lat="47.25494" lon="-1.67477">
        <ele>-93</ele>
        <time>2012-01-28T14:19:14Z</time>
      </trkpt>
      <trkpt lat="47.25499" lon="-1.67488">
        <ele>-93.75</ele>
        <time>2012-01-28T14:19:17Z</time>
      </trkpt>
      <trkpt lat="47.25507" lon="-1.67497">
        <ele>-95.25</ele>
        <time>2012-01-28T14:19:22Z</time>
      </trkpt>
      <trkpt lat="47.25512" lon="-1.67509">
        <ele>-96.75</ele>
        <time>2012-01-28T14:19:26Z</time>
      </trkpt>
      <trkpt lat="47.25515" lon="-1.67525">
        <ele>-99</ele>
        <time>2012-01-28T14:19:30Z</time>
      </trkpt>
      <trkpt lat="47.25518" lon="-1.67542">
        <ele>-101.5</ele>
        <time>2012-01-28T14:19:34Z</time>
      </trkpt>
      <trkpt lat="47.25522" lon="-1.6756">
        <ele>-101</ele>
        <time>2012-01-28T14:19:37Z</time>
      </trkpt>
      <trkpt lat="47.25525" lon="-1.67573">
        <ele>-101.25</ele>
        <time>2012-01-28T14:19:39Z</time>
      </trkpt>
      <trkpt lat="47.25526" lon="-1.67587">
        <ele>-102</ele>
        <time>2012-01-28T14:19:41Z</time>
      </trkpt>
      <trkpt lat="47.25529" lon="-1.67604">
        <ele>-102</ele>
        <time>2012-01-28T14:19:43Z</time>
      </trkpt>
      <trkpt lat="47.25533" lon="-1.6762">
        <ele>-101</ele>
        <time>2012-01-28T14:19:46Z</time>
      </trkpt>
      <trkpt lat="47.25536" lon="-1.67634">
        <ele>-97.5</ele>
        <time>2012-01-28T14:19:48Z</time>
      </trkpt>
      <trkpt lat="47.25541" lon="-1.67648">
        <ele>-92.75</ele>
        <time>2012-01-28T14:19:50Z</time>
      </trkpt>
      <trkpt lat="47.25545" lon="-1.67666">
        <ele>-91</ele>
        <time>2012-01-28T14:19:53Z</time>
      </trkpt>
      <trkpt lat="47.25545" lon="-1.6768">
        <ele>-91</ele>
        <time>2012-01-28T14:19:56Z</time>
      </trkpt>
      <trkpt lat="47.25545" lon="-1.67697">
        <ele>-91</ele>
        <time>2012-01-28T14:19:59Z</time>
      </trkpt>
      <trkpt lat="47.25544" lon="-1.67712">
        <ele>-91</ele>
        <time>2012-01-28T14:20:02Z</time>
      </trkpt>
      <trkpt lat="47.25544" lon="-1.67727">
        <ele>-91</ele>
        <time>2012-01-28T14:20:05Z</time>
      </trkpt>
      <trkpt lat="47.25544" lon="-1.67742">
        <ele>-91.25</ele>
        <time>2012-01-28T14:20:09Z</time>
      </trkpt>
      <trkpt lat="47.25543" lon="-1.67756">
        <ele>-92.5</ele>
        <time>2012-01-28T14:20:13Z</time>
      </trkpt>
      <trkpt lat="47.25546" lon="-1.67769">
        <ele>-95.5</ele>
        <time>2012-01-28T14:20:20Z</time>
      </trkpt>
      <trkpt lat="47.25554" lon="-1.67781">
        <ele>-97</ele>
        <time>2012-01-28T14:20:25Z</time>
      </trkpt>
      <trkpt lat="47.25556" lon="-1.67798">
        <ele>-97.25</ele>
        <time>2012-01-28T14:20:29Z</time>
      </trkpt>
      <trkpt lat="47.2556" lon="-1.67812">
        <ele>-96.25</ele>
        <time>2012-01-28T14:20:33Z</time>
      </trkpt>
      <trkpt lat="47.25563" lon="-1.67825">
        <ele>-99</ele>
        <time>2012-01-28T14:20:39Z</time>
      </trkpt>
      <trkpt lat="47.25562" lon="-1.67841">
        <ele>-102</ele>
        <time>2012-01-28T14:20:45Z</time>
      </trkpt>
      <trkpt lat="47.25563" lon="-1.67856">
        <ele>-103.25</ele>
        <time>2012-01-28T14:20:48Z</time>
      </trkpt>
      <trkpt lat="47.25564" lon="-1.67873">
        <ele>-104.75</ele>
        <time>2012-01-28T14:20:51Z</time>
      </trkpt>
      <trkpt lat="47.25565" lon="-1.67888">
        <ele>-106.5</ele>
        <time>2012-01-28T14:20:55Z</time>
      </trkpt>
      <trkpt lat="47.25564" lon="-1.67903">
        <ele>-109.25</ele>
        <time>2012-01-28T14:20:59Z</time>
      </trkpt>
      <trkpt lat="47.25563" lon="-1.6792">
        <ele>-111.5</ele>
        <time>2012-01-28T14:21:03Z</time>
      </trkpt>
      <trkpt lat="47.25561" lon="-1.67935">
        <ele>-113.25</ele>
        <time>2012-01-28T14:21:07Z</time>
      </trkpt>
      <trkpt lat="47.2556" lon="-1.67949">
        <ele>-112.25</ele>
        <time>2012-01-28T14:21:10Z</time>
      </trkpt>
      <trkpt lat="47.25559" lon="-1.67962">
        <ele>-110.25</ele>
        <time>2012-01-28T14:21:13Z</time>
      </trkpt>
      <trkpt lat="47.25559" lon="-1.67979">
        <ele>-108.5</ele>
        <time>2012-01-28T14:21:17Z</time>
      </trkpt>
      <trkpt lat="47.25564" lon="-1.67994">
        <ele>-107.25</ele>
        <time>2012-01-28T14:21:21Z</time>
      </trkpt>
      <trkpt lat="47.25567" lon="-1.6801">
        <ele>-107.5</ele>
        <time>2012-01-28T14:21:25Z</time>
      </trkpt>
      <trkpt lat="47.25569" lon="-1.68025">
        <ele>-107</ele>
        <time>2012-01-28T14:21:28Z</time>
      </trkpt>
      <trkpt lat="47.25571" lon="-1.68039">
        <ele>-108</ele>
        <time>2012-01-28T14:21:31Z</time>
      </trkpt>
      <trkpt lat="47.25573" lon="-1.68052">
        <ele>-110</ele>
        <time>2012-01-28T14:21:34Z</time>
      </trkpt>
      <trkpt lat="47.25579" lon="-1.68065">
        <ele>-109.75</ele>
        <time>2012-01-28T14:21:39Z</time>
      </trkpt>
      <trkpt lat="47.25584" lon="-1.68076">
        <ele>-110.25</ele>
        <time>2012-01-28T14:21:43Z</time>
      </trkpt>
      <trkpt lat="47.25591" lon="-1.68087">
        <ele>-110</ele>
        <time>2012-01-28T14:21:47Z</time>
      </trkpt>
      <trkpt lat="47.256" lon="-1.68095">
        <ele>-107</ele>
        <time>2012-01-28T14:21:51Z</time>
      </trkpt>
      <trkpt lat="47.25603" lon="-1.6811">
        <ele>-111</ele>
        <time>2012-01-28T14:21:59Z</time>
      </trkpt>
      <trkpt lat="47.25605" lon="-1.68126">
        <ele>-112.75</ele>
        <time>2012-01-28T14:22:04Z</time>
      </trkpt>
      <trkpt lat="47.25609" lon="-1.68141">
        <ele>-111.25</ele>
        <time>2012-01-28T14:22:09Z</time>
      </trkpt>
      <trkpt lat="47.25614" lon="-1.68154">
        <ele>-106.75</ele>
        <time>2012-01-28T14:22:13Z</time>
      </trkpt>
      <trkpt lat="47.25616" lon="-1.68169">
        <ele>-106.5</ele>
        <time>2012-01-28T14:22:17Z</time>
      </trkpt>
      <trkpt lat="47.25619" lon="-1.68184">
        <ele>-106.75</ele>
        <time>2012-01-28T14:22:21Z</time>
      </trkpt>
      <trkpt lat="47.25624" lon="-1.68199">
        <ele>-106.75</ele>
        <time>2012-01-28T14:22:25Z</time>
      </trkpt>
      <trkpt lat="47.25629" lon="-1.6821">
        <ele>-104</ele>
        <time>2012-01-28T14:22:28Z</time>
      </trkpt>
      <trkpt lat="47.25633" lon="-1.68224">
        <ele>-101.75</ele>
        <time>2012-01-28T14:22:32Z</time>
      </trkpt>
      <trkpt lat="47.25637" lon="-1.68237">
        <ele>-104.5</ele>
        <time>2012-01-28T14:22:37Z</time>
      </trkpt>
      <trkpt lat="47.25643" lon="-1.68248">
        <ele>-105</ele>
        <time>2012-01-28T14:22:40Z</time>
      </trkpt>
      <trkpt lat="47.25648" lon="-1.68264">
        <ele>-104.75</ele>
        <time>2012-01-28T14:22:44Z</time>
      </trkpt>
      <trkpt lat="47.25655" lon="-1.68275">
        <ele>-105.75</ele>
        <time>2012-01-28T14:22:48Z</time>
      </trkpt>
      <trkpt lat="47.25662" lon="-1.68289">
        <ele>-106.75</ele>
        <time>2012-01-28T14:22:52Z</time>
      </trkpt>
      <trkpt lat="47.25667" lon="-1.683">
        <ele>-107.5</ele>
        <time>2012-01-28T14:22:55Z</time>
      </trkpt>
      <trkpt lat="47.25672" lon="-1.68313">
        <ele>-107</ele>
        <time>2012-01-28T14:22:59Z</time>
      </trkpt>
      <trkpt lat="47.25679" lon="-1.68327">
        <ele>-104</ele>
        <time>2012-01-28T14:23:02Z</time>
      </trkpt>
      <trkpt lat="47.25685" lon="-1.68337">
        <ele>-96.25</ele>
        <time>2012-01-28T14:23:06Z</time>
      </trkpt>
      <trkpt lat="47.25693" lon="-1.68344">
        <ele>-93.75</ele>
        <time>2012-01-28T14:23:49Z</time>
      </trkpt>
      <trkpt lat="47.25687" lon="-1.68355">
        <ele>-98.75</ele>
        <time>2012-01-28T14:24:39Z</time>
      </trkpt>
      <trkpt lat="47.25682" lon="-1.68368">
        <ele>-99.75</ele>
        <time>2012-01-28T14:24:43Z</time>
      </trkpt>
      <trkpt lat="47.25679" lon="-1.68387">
        <ele>-103</ele>
        <time>2012-01-28T14:24:47Z</time>
      </trkpt>
      <trkpt lat="47.25678" lon="-1.68401">
        <ele>-103.25</ele>
        <time>2012-01-28T14:24:49Z</time>
      </trkpt>
      <trkpt lat="47.25679" lon="-1.68416">
        <ele>-101.25</ele>
        <time>2012-01-28T14:24:52Z</time>
      </trkpt>
      <trkpt lat="47.25678" lon="-1.6843">
        <ele>-103.25</ele>
        <time>2012-01-28T14:25:05Z</time>
      </trkpt>
      <trkpt lat="47.25675" lon="-1.68444">
        <ele>-105.25</ele>
        <time>2012-01-28T14:25:19Z</time>
      </trkpt>
      <trkpt lat="47.25672" lon="-1.68458">
        <ele>-108</ele>
        <time>2012-01-28T14:25:26Z</time>
      </trkpt>
      <trkpt lat="47.25671" lon="-1.68471">
        <ele>-108.75</ele>
        <time>2012-01-28T14:25:41Z</time>
      </trkpt>
      <trkpt lat="47.25671" lon="-1.68485">
        <ele>-108.5</ele>
        <time>2012-01-28T14:25:53Z</time>
      </trkpt>
      <trkpt lat="47.25668" lon="-1.68498">
        <ele>-112.75</ele>
        <time>2012-01-28T14:26:03Z</time>
      </trkpt>
      <trkpt lat="47.25666" lon="-1.68513">
        <ele>-114.5</ele>
        <time>2012-01-28T14:26:13Z</time>
      </trkpt>
      <trkpt lat="47.25665" lon="-1.68527">
        <ele>-116</ele>
        <time>2012-01-28T14:26:22Z</time>
      </trkpt>
      <trkpt lat="47.25664" lon="-1.68541">
        <ele>-115.25</ele>
        <time>2012-01-28T14:26:27Z</time>
      </trkpt>
      <trkpt lat="47.25663" lon="-1.68555">
        <ele>-114.75</ele>
        <time>2012-01-28T14:26:30Z</time>
      </trkpt>
      <trkpt lat="47.25662" lon="-1.68568">
        <ele>-113.25</ele>
        <time>2012-01-28T14:26:34Z</time>
      </trkpt>
      <trkpt lat="47.25664" lon="-1.68584">
        <ele>-109.75</ele>
        <time>2012-01-28T14:26:39Z</time>
      </trkpt>
      <trkpt lat="47.25663" lon="-1.68598">
        <ele>-109.5</ele>
        <time>2012-01-28T14:26:44Z</time>
      </trkpt>
      <trkpt lat="47.25667" lon="-1.68609">
        <ele>-103.5</ele>
        <time>2012-01-28T14:27:05Z</time>
      </trkpt>
      <trkpt lat="47.25662" lon="-1.68624">
        <ele>-108.5</ele>
        <time>2012-01-28T14:28:01Z</time>
      </trkpt>
      <trkpt lat="47.25659" lon="-1.68637">
        <ele>-109</ele>
        <time>2012-01-28T14:28:04Z</time>
      </trkpt>
      <trkpt lat="47.25656" lon="-1.68651">
        <ele>-109</ele>
        <time>2012-01-28T14:28:07Z</time>
      </trkpt>
      <trkpt lat="47.25656" lon="-1.68664">
        <ele>-109</ele>
        <time>2012-01-28T14:28:10Z</time>
      </trkpt>
      <trkpt lat="47.25657" lon="-1.6868">
        <ele>-109.25</ele>
        <time>2012-01-28T14:28:14Z</time>
      </trkpt>
      <trkpt lat="47.2566" lon="-1.68695">
        <ele>-109</ele>
        <time>2012-01-28T14:28:17Z</time>
      </trkpt>
      <trkpt lat="47.25664" lon="-1.68709">
        <ele>-107.25</ele>
        <time>2012-01-28T14:28:20Z</time>
      </trkpt>
      <trkpt lat="47.25667" lon="-1.68726">
        <ele>-107</ele>
        <time>2012-01-28T14:28:23Z</time>
      </trkpt>
      <trkpt lat="47.25669" lon="-1.68739">
        <ele>-106.25</ele>
        <time>2012-01-28T14:28:27Z</time>
      </trkpt>
      <trkpt lat="47.25675" lon="-1.68754">
        <ele>-106</ele>
        <time>2012-01-28T14:28:31Z</time>
      </trkpt>
      <trkpt lat="47.25679" lon="-1.68767">
        <ele>-106</ele>
        <time>2012-01-28T14:28:34Z</time>
      </trkpt>
      <trkpt lat="47.25683" lon="-1.68782">
        <ele>-105.5</ele>
        <time>2012-01-28T14:28:38Z</time>
      </trkpt>
      <trkpt lat="47.25687" lon="-1.68794">
        <ele>-105</ele>
        <time>2012-01-28T14:28:41Z</time>
      </trkpt>
      <trkpt lat="47.25692" lon="-1.6881">
        <ele>-103.75</ele>
        <time>2012-01-28T14:28:46Z</time>
      </trkpt>
      <trkpt lat="47.25698" lon="-1.68827">
        <ele>-103</ele>
        <time>2012-01-28T14:28:50Z</time>
      </trkpt>
      <trkpt lat="47.25703" lon="-1.68841">
        <ele>-102.25</ele>
        <time>2012-01-28T14:28:53Z</time>
      </trkpt>
      <trkpt lat="47.25709" lon="-1.68852">
        <ele>-102</ele>
        <time>2012-01-28T14:28:56Z</time>
      </trkpt>
      <trkpt lat="47.25711" lon="-1.68866">
        <ele>-101.75</ele>
        <time>2012-01-28T14:29:50Z</time>
      </trkpt>
      <trkpt lat="47.25702" lon="-1.68878">
        <ele>-101</ele>
        <time>2012-01-28T14:29:54Z</time>
      </trkpt>
      <trkpt lat="47.25688" lon="-1.68894">
        <ele>-100</ele>
        <time>2012-01-28T14:30:03Z</time>
      </trkpt>
      <trkpt lat="47.25678" lon="-1.68903">
        <ele>-100</ele>
        <time>2012-01-28T14:30:04Z</time>
      </trkpt>
      <trkpt lat="47.25665" lon="-1.68912">
        <ele>-100</ele>
        <time>2012-01-28T14:30:06Z</time>
      </trkpt>
      <trkpt lat="47.25653" lon="-1.68923">
        <ele>-101</ele>
        <time>2012-01-28T14:30:07Z</time>
      </trkpt>
      <trkpt lat="47.25648" lon="-1.68935">
        <ele>-95.5</ele>
        <time>2012-01-28T14:30:11Z</time>
      </trkpt>
      <trkpt lat="47.2564" lon="-1.68943">
        <ele>-92.25</ele>
        <time>2012-01-28T14:30:14Z</time>
      </trkpt>
      <trkpt lat="47.25633" lon="-1.68951">
        <ele>-92</ele>
        <time>2012-01-28T14:30:17Z</time>
      </trkpt>
      <trkpt lat="47.25622" lon="-1.68961">
        <ele>-92</ele>
        <time>2012-01-28T14:30:20Z</time>
      </trkpt>
      <trkpt lat="47.25612" lon="-1.68969">
        <ele>-92</ele>
        <time>2012-01-28T14:30:23Z</time>
      </trkpt>
      <trkpt lat="47.25602" lon="-1.68977">
        <ele>-92.5</ele>
        <time>2012-01-28T14:30:26Z</time>
      </trkpt>
      <trkpt lat="47.25594" lon="-1.68984">
        <ele>-93</ele>
        <time>2012-01-28T14:30:28Z</time>
      </trkpt>
      <trkpt lat="47.25585" lon="-1.68994">
        <ele>-93</ele>
        <time>2012-01-28T14:30:32Z</time>
      </trkpt>
      <trkpt lat="47.25575" lon="-1.69003">
        <ele>-93</ele>
        <time>2012-01-28T14:30:35Z</time>
      </trkpt>
      <trkpt lat="47.25564" lon="-1.69013">
        <ele>-93</ele>
        <time>2012-01-28T14:30:38Z</time>
      </trkpt>
      <trkpt lat="47.25554" lon="-1.69021">
        <ele>-93.5</ele>
        <time>2012-01-28T14:30:42Z</time>
      </trkpt>
      <trkpt lat="47.25545" lon="-1.69028">
        <ele>-94</ele>
        <time>2012-01-28T14:30:44Z</time>
      </trkpt>
      <trkpt lat="47.25535" lon="-1.69035">
        <ele>-94</ele>
        <time>2012-01-28T14:30:47Z</time>
      </trkpt>
      <trkpt lat="47.25522" lon="-1.69042">
        <ele>-94</ele>
        <time>2012-01-28T14:30:50Z</time>
      </trkpt>
      <trkpt lat="47.25511" lon="-1.69048">
        <ele>-94.5</ele>
        <time>2012-01-28T14:30:53Z</time>
      </trkpt>
      <trkpt lat="47.25501" lon="-1.69053">
        <ele>-95</ele>
        <time>2012-01-28T14:30:55Z</time>
      </trkpt>
      <trkpt lat="47.25492" lon="-1.69058">
        <ele>-95</ele>
        <time>2012-01-28T14:30:57Z</time>
      </trkpt>
      <trkpt lat="47.25483" lon="-1.69062">
        <ele>-95</ele>
        <time>2012-01-28T14:30:59Z</time>
      </trkpt>
      <trkpt lat="47.25474" lon="-1.69066">
        <ele>-95</ele>
        <time>2012-01-28T14:31:02Z</time>
      </trkpt>
      <trkpt lat="47.25464" lon="-1.69071">
        <ele>-95</ele>
        <time>2012-01-28T14:31:04Z</time>
      </trkpt>
      <trkpt lat="47.25454" lon="-1.69075">
        <ele>-95</ele>
        <time>2012-01-28T14:31:06Z</time>
      </trkpt>
      <trkpt lat="47.25444" lon="-1.69078">
        <ele>-95.5</ele>
        <time>2012-01-28T14:31:08Z</time>
      </trkpt>
      <trkpt lat="47.25435" lon="-1.69081">
        <ele>-96</ele>
        <time>2012-01-28T14:31:11Z</time>
      </trkpt>
      <trkpt lat="47.25423" lon="-1.69084">
        <ele>-96.25</ele>
        <time>2012-01-28T14:31:14Z</time>
      </trkpt>
      <trkpt lat="47.25411" lon="-1.69087">
        <ele>-97</ele>
        <time>2012-01-28T14:31:17Z</time>
      </trkpt>
      <trkpt lat="47.25402" lon="-1.6909">
        <ele>-97.5</ele>
        <time>2012-01-28T14:31:20Z</time>
      </trkpt>
      <trkpt lat="47.25389" lon="-1.69092">
        <ele>-98.5</ele>
        <time>2012-01-28T14:31:23Z</time>
      </trkpt>
      <trkpt lat="47.25377" lon="-1.69095">
        <ele>-99</ele>
        <time>2012-01-28T14:31:26Z</time>
      </trkpt>
      <trkpt lat="47.25363" lon="-1.69098">
        <ele>-99.5</ele>
        <time>2012-01-28T14:31:29Z</time>
      </trkpt>
      <trkpt lat="47.25354" lon="-1.691">
        <ele>-100.25</ele>
        <time>2012-01-28T14:31:32Z</time>
      </trkpt>
      <trkpt lat="47.25343" lon="-1.69102">
        <ele>-101</ele>
        <time>2012-01-28T14:31:35Z</time>
      </trkpt>
      <trkpt lat="47.25332" lon="-1.69104">
        <ele>-100.75</ele>
        <time>2012-01-28T14:31:38Z</time>
      </trkpt>
      <trkpt lat="47.25319" lon="-1.69107">
        <ele>-101.25</ele>
        <time>2012-01-28T14:31:41Z</time>
      </trkpt>
      <trkpt lat="47.25305" lon="-1.6911">
        <ele>-102</ele>
        <time>2012-01-28T14:31:45Z</time>
      </trkpt>
      <trkpt lat="47.25294" lon="-1.69113">
        <ele>-102.75</ele>
        <time>2012-01-28T14:31:48Z</time>
      </trkpt>
      <trkpt lat="47.25284" lon="-1.6912">
        <ele>-103.25</ele>
        <time>2012-01-28T14:31:51Z</time>
      </trkpt>
      <trkpt lat="47.25282" lon="-1.69134">
        <ele>-104.5</ele>
        <time>2012-01-28T14:31:54Z</time>
      </trkpt>
      <trkpt lat="47.25284" lon="-1.69151">
        <ele>-105.5</ele>
        <time>2012-01-28T14:31:58Z</time>
      </trkpt>
      <trkpt lat="47.25287" lon="-1.69165">
        <ele>-106.25</ele>
        <time>2012-01-28T14:32:01Z</time>
      </trkpt>
      <trkpt lat="47.25289" lon="-1.69179">
        <ele>-107.75</ele>
        <time>2012-01-28T14:32:04Z</time>
      </trkpt>
      <trkpt lat="47.25291" lon="-1.69196">
        <ele>-108.25</ele>
        <time>2012-01-28T14:32:07Z</time>
      </trkpt>
      <trkpt lat="47.25293" lon="-1.69212">
        <ele>-109.5</ele>
        <time>2012-01-28T14:32:11Z</time>
      </trkpt>
      <trkpt lat="47.25296" lon="-1.69226">
        <ele>-110</ele>
        <time>2012-01-28T14:32:14Z</time>
      </trkpt>
      <trkpt lat="47.25298" lon="-1.6924">
        <ele>-111</ele>
        <time>2012-01-28T14:32:17Z</time>
      </trkpt>
      <trkpt lat="47.25301" lon="-1.69258">
        <ele>-112</ele>
        <time>2012-01-28T14:32:21Z</time>
      </trkpt>
      <trkpt lat="47.25303" lon="-1.69276">
        <ele>-112.25</ele>
        <time>2012-01-28T14:32:24Z</time>
      </trkpt>
      <trkpt lat="47.25304" lon="-1.69292">
        <ele>-113</ele>
        <time>2012-01-28T14:32:27Z</time>
      </trkpt>
      <trkpt lat="47.25305" lon="-1.69309">
        <ele>-113.75</ele>
        <time>2012-01-28T14:32:30Z</time>
      </trkpt>
      <trkpt lat="47.25305" lon="-1.69323">
        <ele>-114</ele>
        <time>2012-01-28T14:32:33Z</time>
      </trkpt>
      <trkpt lat="47.25304" lon="-1.69338">
        <ele>-114</ele>
        <time>2012-01-28T14:32:35Z</time>
      </trkpt>
      <trkpt lat="47.25302" lon="-1.69351">
        <ele>-114</ele>
        <time>2012-01-28T14:32:37Z</time>
      </trkpt>
      <trkpt lat="47.253" lon="-1.69364">
        <ele>-114</ele>
        <time>2012-01-28T14:32:39Z</time>
      </trkpt>
      <trkpt lat="47.25298" lon="-1.69377">
        <ele>-114</ele>
        <time>2012-01-28T14:32:41Z</time>
      </trkpt>
      <trkpt lat="47.25296" lon="-1.69393">
        <ele>-113.25</ele>
        <time>2012-01-28T14:32:43Z</time>
      </trkpt>
      <trkpt lat="47.25294" lon="-1.69409">
        <ele>-111.5</ele>
        <time>2012-01-28T14:32:46Z</time>
      </trkpt>
      <trkpt lat="47.25292" lon="-1.69428">
        <ele>-111.25</ele>
        <time>2012-01-28T14:32:49Z</time>
      </trkpt>
      <trkpt lat="47.2529" lon="-1.69447">
        <ele>-111.5</ele>
        <time>2012-01-28T14:32:52Z</time>
      </trkpt>
      <trkpt lat="47.25286" lon="-1.69464">
        <ele>-113.25</ele>
        <time>2012-01-28T14:32:56Z</time>
      </trkpt>
      <trkpt lat="47.25282" lon="-1.69478">
        <ele>-114.5</ele>
        <time>2012-01-28T14:33:01Z</time>
      </trkpt>
      <trkpt lat="47.2528" lon="-1.69493">
        <ele>-118</ele>
        <time>2012-01-28T14:33:05Z</time>
      </trkpt>
      <trkpt lat="47.25282" lon="-1.69508">
        <ele>-119.75</ele>
        <time>2012-01-28T14:33:09Z</time>
      </trkpt>
      <trkpt lat="47.25289" lon="-1.69522">
        <ele>-120</ele>
        <time>2012-01-28T14:33:12Z</time>
      </trkpt>
      <trkpt lat="47.25297" lon="-1.69536">
        <ele>-121</ele>
        <time>2012-01-28T14:33:15Z</time>
      </trkpt>
      <trkpt lat="47.25304" lon="-1.69545">
        <ele>-121.5</ele>
        <time>2012-01-28T14:33:17Z</time>
      </trkpt>
      <trkpt lat="47.25312" lon="-1.69554">
        <ele>-121.75</ele>
        <time>2012-01-28T14:33:20Z</time>
      </trkpt>
      <trkpt lat="47.25322" lon="-1.69562">
        <ele>-122.25</ele>
        <time>2012-01-28T14:33:23Z</time>
      </trkpt>
      <trkpt lat="47.25332" lon="-1.69569">
        <ele>-121.25</ele>
        <time>2012-01-28T14:33:26Z</time>
      </trkpt>
      <trkpt lat="47.25342" lon="-1.69574">
        <ele>-120.5</ele>
        <time>2012-01-28T14:33:28Z</time>
      </trkpt>
      <trkpt lat="47.25354" lon="-1.6958">
        <ele>-117.5</ele>
        <time>2012-01-28T14:33:30Z</time>
      </trkpt>
      <trkpt lat="47.25366" lon="-1.69585">
        <ele>-114</ele>
        <time>2012-01-28T14:33:33Z</time>
      </trkpt>
      <trkpt lat="47.25375" lon="-1.69589">
        <ele>-111.5</ele>
        <time>2012-01-28T14:33:35Z</time>
      </trkpt>
      <trkpt lat="47.25385" lon="-1.69592">
        <ele>-109.25</ele>
        <time>2012-01-28T14:33:37Z</time>
      </trkpt>
      <trkpt lat="47.25394" lon="-1.69594">
        <ele>-107.75</ele>
        <time>2012-01-28T14:33:39Z</time>
      </trkpt>
      <trkpt lat="47.25403" lon="-1.69595">
        <ele>-107.25</ele>
        <time>2012-01-28T14:33:41Z</time>
      </trkpt>
      <trkpt lat="47.25414" lon="-1.69599">
        <ele>-107.25</ele>
        <time>2012-01-28T14:33:43Z</time>
      </trkpt>
      <trkpt lat="47.25424" lon="-1.69604">
        <ele>-107.5</ele>
        <time>2012-01-28T14:33:46Z</time>
      </trkpt>
      <trkpt lat="47.25433" lon="-1.69608">
        <ele>-108</ele>
        <time>2012-01-28T14:33:48Z</time>
      </trkpt>
      <trkpt lat="47.25442" lon="-1.69613">
        <ele>-108</ele>
        <time>2012-01-28T14:33:50Z</time>
      </trkpt>
      <trkpt lat="47.25454" lon="-1.69619">
        <ele>-108</ele>
        <time>2012-01-28T14:33:52Z</time>
      </trkpt>
      <trkpt lat="47.25465" lon="-1.69627">
        <ele>-107.5</ele>
        <time>2012-01-28T14:33:55Z</time>
      </trkpt>
      <trkpt lat="47.25477" lon="-1.69635">
        <ele>-106.5</ele>
        <time>2012-01-28T14:33:58Z</time>
      </trkpt>
      <trkpt lat="47.25487" lon="-1.69643">
        <ele>-106</ele>
        <time>2012-01-28T14:34:01Z</time>
      </trkpt>
      <trkpt lat="47.25498" lon="-1.69648">
        <ele>-106.5</ele>
        <time>2012-01-28T14:34:03Z</time>
      </trkpt>
      <trkpt lat="47.25509" lon="-1.69652">
        <ele>-107.5</ele>
        <time>2012-01-28T14:34:06Z</time>
      </trkpt>
      <trkpt lat="47.25522" lon="-1.69656">
        <ele>-107.75</ele>
        <time>2012-01-28T14:34:09Z</time>
      </trkpt>
      <trkpt lat="47.25532" lon="-1.69659">
        <ele>-106</ele>
        <time>2012-01-28T14:34:11Z</time>
      </trkpt>
      <trkpt lat="47.25544" lon="-1.6966">
        <ele>-104.5</ele>
        <time>2012-01-28T14:34:13Z</time>
      </trkpt>
      <trkpt lat="47.25556" lon="-1.69661">
        <ele>-104</ele>
        <time>2012-01-28T14:34:16Z</time>
      </trkpt>
      <trkpt lat="47.25565" lon="-1.69662">
        <ele>-104.25</ele>
        <time>2012-01-28T14:34:18Z</time>
      </trkpt>
      <trkpt lat="47.25577" lon="-1.69664">
        <ele>-105</ele>
        <time>2012-01-28T14:34:21Z</time>
      </trkpt>
      <trkpt lat="47.25588" lon="-1.69666">
        <ele>-105.25</ele>
        <time>2012-01-28T14:34:24Z</time>
      </trkpt>
      <trkpt lat="47.25599" lon="-1.69669">
        <ele>-106</ele>
        <time>2012-01-28T14:34:28Z</time>
      </trkpt>
      <trkpt lat="47.2561" lon="-1.69672">
        <ele>-106</ele>
        <time>2012-01-28T14:34:32Z</time>
      </trkpt>
      <trkpt lat="47.2562" lon="-1.69675">
        <ele>-106</ele>
        <time>2012-01-28T14:34:35Z</time>
      </trkpt>
      <trkpt lat="47.25632" lon="-1.69679">
        <ele>-106.75</ele>
        <time>2012-01-28T14:34:39Z</time>
      </trkpt>
      <trkpt lat="47.25643" lon="-1.69686">
        <ele>-107.75</ele>
        <time>2012-01-28T14:34:42Z</time>
      </trkpt>
      <trkpt lat="47.25651" lon="-1.69694">
        <ele>-108</ele>
        <time>2012-01-28T14:34:45Z</time>
      </trkpt>
      <trkpt lat="47.25657" lon="-1.69708">
        <ele>-108.5</ele>
        <time>2012-01-28T14:34:48Z</time>
      </trkpt>
      <trkpt lat="47.25661" lon="-1.69723">
        <ele>-109.25</ele>
        <time>2012-01-28T14:34:52Z</time>
      </trkpt>
      <trkpt lat="47.25662" lon="-1.69739">
        <ele>-111.25</ele>
        <time>2012-01-28T14:34:56Z</time>
      </trkpt>
      <trkpt lat="47.25664" lon="-1.69753">
        <ele>-113.25</ele>
        <time>2012-01-28T14:35:01Z</time>
      </trkpt>
      <trkpt lat="47.25666" lon="-1.69769">
        <ele>-112</ele>
        <time>2012-01-28T14:35:04Z</time>
      </trkpt>
      <trkpt lat="47.25668" lon="-1.69782">
        <ele>-109.75</ele>
        <time>2012-01-28T14:35:06Z</time>
      </trkpt>
      <trkpt lat="47.2567" lon="-1.69796">
        <ele>-108.75</ele>
        <time>2012-01-28T14:35:08Z</time>
      </trkpt>
      <trkpt lat="47.25672" lon="-1.69812">
        <ele>-109.25</ele>
        <time>2012-01-28T14:35:12Z</time>
      </trkpt>
      <trkpt lat="47.25676" lon="-1.69826">
        <ele>-110</ele>
        <time>2012-01-28T14:35:15Z</time>
      </trkpt>
      <trkpt lat="47.25679" lon="-1.69841">
        <ele>-110.5</ele>
        <time>2012-01-28T14:35:18Z</time>
      </trkpt>
      <trkpt lat="47.25682" lon="-1.69855">
        <ele>-111.25</ele>
        <time>2012-01-28T14:35:22Z</time>
      </trkpt>
      <trkpt lat="47.25685" lon="-1.69869">
        <ele>-112</ele>
        <time>2012-01-28T14:35:25Z</time>
      </trkpt>
      <trkpt lat="47.25688" lon="-1.69883">
        <ele>-112.75</ele>
        <time>2012-01-28T14:35:28Z</time>
      </trkpt>
      <trkpt lat="47.25692" lon="-1.69901">
        <ele>-113.5</ele>
        <time>2012-01-28T14:35:31Z</time>
      </trkpt>
      <trkpt lat="47.25695" lon="-1.69919">
        <ele>-114.25</ele>
        <time>2012-01-28T14:35:35Z</time>
      </trkpt>
      <trkpt lat="47.25699" lon="-1.69935">
        <ele>-115.25</ele>
        <time>2012-01-28T14:35:38Z</time>
      </trkpt>
      <trkpt lat="47.25702" lon="-1.69951">
        <ele>-117</ele>
        <time>2012-01-28T14:35:41Z</time>
      </trkpt>
      <trkpt lat="47.25705" lon="-1.69965">
        <ele>-118.5</ele>
        <time>2012-01-28T14:35:43Z</time>
      </trkpt>
      <trkpt lat="47.25707" lon="-1.69978">
        <ele>-120</ele>
        <time>2012-01-28T14:35:46Z</time>
      </trkpt>
      <trkpt lat="47.25711" lon="-1.69993">
        <ele>-121.75</ele>
        <time>2012-01-28T14:35:49Z</time>
      </trkpt>
      <trkpt lat="47.25714" lon="-1.70006">
        <ele>-124</ele>
        <time>2012-01-28T14:35:52Z</time>
      </trkpt>
      <trkpt lat="47.25718" lon="-1.7002">
        <ele>-126</ele>
        <time>2012-01-28T14:35:55Z</time>
      </trkpt>
      <trkpt lat="47.25721" lon="-1.70036">
        <ele>-128.5</ele>
        <time>2012-01-28T14:35:59Z</time>
      </trkpt>
      <trkpt lat="47.25724" lon="-1.7005">
        <ele>-130</ele>
        <time>2012-01-28T14:36:02Z</time>
      </trkpt>
      <trkpt lat="47.25726" lon="-1.70065">
        <ele>-132</ele>
        <time>2012-01-28T14:36:05Z</time>
      </trkpt>
      <trkpt lat="47.2573" lon="-1.70079">
        <ele>-133.75</ele>
        <time>2012-01-28T14:36:08Z</time>
      </trkpt>
      <trkpt lat="47.25735" lon="-1.70094">
        <ele>-131</ele>
        <time>2012-01-28T14:36:12Z</time>
      </trkpt>
      <trkpt lat="47.25738" lon="-1.70107">
        <ele>-129.25</ele>
        <time>2012-01-28T14:36:19Z</time>
      </trkpt>
      <trkpt lat="47.25747" lon="-1.70118">
        <ele>-115.25</ele>
        <time>2012-01-28T14:37:07Z</time>
      </trkpt>
      <trkpt lat="47.2575" lon="-1.70131">
        <ele>-114.75</ele>
        <time>2012-01-28T14:37:10Z</time>
      </trkpt>
      <trkpt lat="47.25754" lon="-1.70146">
        <ele>-113.25</ele>
        <time>2012-01-28T14:37:12Z</time>
      </trkpt>
      <trkpt lat="47.25759" lon="-1.7016">
        <ele>-111.5</ele>
        <time>2012-01-28T14:37:14Z</time>
      </trkpt>
      <trkpt lat="47.25763" lon="-1.70174">
        <ele>-110.5</ele>
        <time>2012-01-28T14:37:16Z</time>
      </trkpt>
      <trkpt lat="47.25767" lon="-1.70187">
        <ele>-109.25</ele>
        <time>2012-01-28T14:37:18Z</time>
      </trkpt>
      <trkpt lat="47.25772" lon="-1.70204">
        <ele>-108</ele>
        <time>2012-01-28T14:37:20Z</time>
      </trkpt>
      <trkpt lat="47.25776" lon="-1.7022">
        <ele>-107.75</ele>
        <time>2012-01-28T14:37:23Z</time>
      </trkpt>
      <trkpt lat="47.25781" lon="-1.70238">
        <ele>-107.75</ele>
        <time>2012-01-28T14:37:26Z</time>
      </trkpt>
      <trkpt lat="47.25787" lon="-1.70255">
        <ele>-106.5</ele>
        <time>2012-01-28T14:37:29Z</time>
      </trkpt>
      <trkpt lat="47.25792" lon="-1.70269">
        <ele>-106.25</ele>
        <time>2012-01-28T14:37:31Z</time>
      </trkpt>
      <trkpt lat="47.25796" lon="-1.70283">
        <ele>-106.75</ele>
        <time>2012-01-28T14:37:34Z</time>
      </trkpt>
      <trkpt lat="47.258" lon="-1.703">
        <ele>-106.5</ele>
        <time>2012-01-28T14:37:37Z</time>
      </trkpt>
      <trkpt lat="47.25798" lon="-1.70317">
        <ele>-106</ele>
        <time>2012-01-28T14:37:40Z</time>
      </trkpt>
      <trkpt lat="47.25791" lon="-1.70327">
        <ele>-106</ele>
        <time>2012-01-28T14:37:42Z</time>
      </trkpt>
      <trkpt lat="47.25783" lon="-1.70335">
        <ele>-106.25</ele>
        <time>2012-01-28T14:37:45Z</time>
      </trkpt>
      <trkpt lat="47.25772" lon="-1.70343">
        <ele>-107</ele>
        <time>2012-01-28T14:37:48Z</time>
      </trkpt>
      <trkpt lat="47.25761" lon="-1.70351">
        <ele>-107.75</ele>
        <time>2012-01-28T14:37:51Z</time>
      </trkpt>
      <trkpt lat="47.2575" lon="-1.70358">
        <ele>-108.5</ele>
        <time>2012-01-28T14:37:53Z</time>
      </trkpt>
      <trkpt lat="47.25739" lon="-1.70365">
        <ele>-109.25</ele>
        <time>2012-01-28T14:37:56Z</time>
      </trkpt>
      <trkpt lat="47.2573" lon="-1.70371">
        <ele>-110.25</ele>
        <time>2012-01-28T14:37:58Z</time>
      </trkpt>
      <trkpt lat="47.25722" lon="-1.70377">
        <ele>-111.5</ele>
        <time>2012-01-28T14:38:00Z</time>
      </trkpt>
      <trkpt lat="47.2571" lon="-1.70385">
        <ele>-112.5</ele>
        <time>2012-01-28T14:38:03Z</time>
      </trkpt>
      <trkpt lat="47.25701" lon="-1.70392">
        <ele>-113.25</ele>
        <time>2012-01-28T14:38:05Z</time>
      </trkpt>
      <trkpt lat="47.25693" lon="-1.704">
        <ele>-113.75</ele>
        <time>2012-01-28T14:38:08Z</time>
      </trkpt>
      <trkpt lat="47.25683" lon="-1.70408">
        <ele>-114</ele>
        <time>2012-01-28T14:38:11Z</time>
      </trkpt>
      <trkpt lat="47.25673" lon="-1.70415">
        <ele>-114.25</ele>
        <time>2012-01-28T14:38:14Z</time>
      </trkpt>
      <trkpt lat="47.25665" lon="-1.70422">
        <ele>-114.75</ele>
        <time>2012-01-28T14:38:16Z</time>
      </trkpt>
      <trkpt lat="47.25654" lon="-1.70431">
        <ele>-115</ele>
        <time>2012-01-28T14:38:20Z</time>
      </trkpt>
      <trkpt lat="47.25645" lon="-1.70439">
        <ele>-115</ele>
        <time>2012-01-28T14:38:23Z</time>
      </trkpt>
      <trkpt lat="47.25636" lon="-1.70447">
        <ele>-115.75</ele>
        <time>2012-01-28T14:38:26Z</time>
      </trkpt>
      <trkpt lat="47.25626" lon="-1.70457">
        <ele>-116.25</ele>
        <time>2012-01-28T14:38:30Z</time>
      </trkpt>
      <trkpt lat="47.25617" lon="-1.70465">
        <ele>-116.25</ele>
        <time>2012-01-28T14:38:33Z</time>
      </trkpt>
      <trkpt lat="47.2561" lon="-1.70474">
        <ele>-115.75</ele>
        <time>2012-01-28T14:38:36Z</time>
      </trkpt>
      <trkpt lat="47.25603" lon="-1.70486">
        <ele>-115</ele>
        <time>2012-01-28T14:38:41Z</time>
      </trkpt>
      <trkpt lat="47.25598" lon="-1.70497">
        <ele>-115.75</ele>
        <time>2012-01-28T14:38:45Z</time>
      </trkpt>
      <trkpt lat="47.2559" lon="-1.70511">
        <ele>-116.5</ele>
        <time>2012-01-28T14:38:49Z</time>
      </trkpt>
      <trkpt lat="47.25583" lon="-1.70525">
        <ele>-117</ele>
        <time>2012-01-28T14:38:53Z</time>
      </trkpt>
      <trkpt lat="47.25578" lon="-1.70537">
        <ele>-116.75</ele>
        <time>2012-01-28T14:38:56Z</time>
      </trkpt>
      <trkpt lat="47.25573" lon="-1.70551">
        <ele>-116.5</ele>
        <time>2012-01-28T14:38:59Z</time>
      </trkpt>
      <trkpt lat="47.2557" lon="-1.70563">
        <ele>-115.75</ele>
        <time>2012-01-28T14:39:02Z</time>
      </trkpt>
      <trkpt lat="47.25568" lon="-1.70579">
        <ele>-114.5</ele>
        <time>2012-01-28T14:39:04Z</time>
      </trkpt>
      <trkpt lat="47.25568" lon="-1.70597">
        <ele>-113.25</ele>
        <time>2012-01-28T14:39:06Z</time>
      </trkpt>
      <trkpt lat="47.25571" lon="-1.70615">
        <ele>-113</ele>
        <time>2012-01-28T14:39:09Z</time>
      </trkpt>
      <trkpt lat="47.25574" lon="-1.70631">
        <ele>-113.5</ele>
        <time>2012-01-28T14:39:11Z</time>
      </trkpt>
      <trkpt lat="47.25577" lon="-1.70646">
        <ele>-114</ele>
        <time>2012-01-28T14:39:13Z</time>
      </trkpt>
      <trkpt lat="47.2558" lon="-1.70661">
        <ele>-114</ele>
        <time>2012-01-28T14:39:15Z</time>
      </trkpt>
      <trkpt lat="47.25582" lon="-1.70677">
        <ele>-114.5</ele>
        <time>2012-01-28T14:39:17Z</time>
      </trkpt>
      <trkpt lat="47.25586" lon="-1.70695">
        <ele>-115</ele>
        <time>2012-01-28T14:39:19Z</time>
      </trkpt>
      <trkpt lat="47.25589" lon="-1.70712">
        <ele>-115</ele>
        <time>2012-01-28T14:39:22Z</time>
      </trkpt>
      <trkpt lat="47.25591" lon="-1.7073">
        <ele>-115.75</ele>
        <time>2012-01-28T14:39:25Z</time>
      </trkpt>
      <trkpt lat="47.25595" lon="-1.70742">
        <ele>-114.75</ele>
        <time>2012-01-28T14:39:53Z</time>
      </trkpt>
      <trkpt lat="47.25605" lon="-1.70747">
        <ele>-111</ele>
        <time>2012-01-28T14:41:24Z</time>
      </trkpt>
      <trkpt lat="47.25616" lon="-1.70747">
        <ele>-111</ele>
        <time>2012-01-28T14:41:27Z</time>
      </trkpt>
      <trkpt lat="47.25627" lon="-1.70748">
        <ele>-111.25</ele>
        <time>2012-01-28T14:41:30Z</time>
      </trkpt>
      <trkpt lat="47.25637" lon="-1.70748">
        <ele>-111.5</ele>
        <time>2012-01-28T14:41:32Z</time>
      </trkpt>
      <trkpt lat="47.25646" lon="-1.70748">
        <ele>-112</ele>
        <time>2012-01-28T14:41:35Z</time>
      </trkpt>
      <trkpt lat="47.25656" lon="-1.7075">
        <ele>-111.75</ele>
        <time>2012-01-28T14:41:38Z</time>
      </trkpt>
      <trkpt lat="47.25668" lon="-1.70753">
        <ele>-109.75</ele>
        <time>2012-01-28T14:41:41Z</time>
      </trkpt>
      <trkpt lat="47.2568" lon="-1.70755">
        <ele>-108.75</ele>
        <time>2012-01-28T14:41:43Z</time>
      </trkpt>
      <trkpt lat="47.25693" lon="-1.70757">
        <ele>-107.5</ele>
        <time>2012-01-28T14:41:46Z</time>
      </trkpt>
      <trkpt lat="47.25704" lon="-1.70757">
        <ele>-107</ele>
        <time>2012-01-28T14:41:48Z</time>
      </trkpt>
      <trkpt lat="47.25716" lon="-1.70758">
        <ele>-106.75</ele>
        <time>2012-01-28T14:41:50Z</time>
      </trkpt>
      <trkpt lat="47.25727" lon="-1.70758">
        <ele>-106.25</ele>
        <time>2012-01-28T14:41:52Z</time>
      </trkpt>
      <trkpt lat="47.25739" lon="-1.70759">
        <ele>-106</ele>
        <time>2012-01-28T14:41:54Z</time>
      </trkpt>
      <trkpt lat="47.25753" lon="-1.70759">
        <ele>-106</ele>
        <time>2012-01-28T14:41:56Z</time>
      </trkpt>
      <trkpt lat="47.25764" lon="-1.70758">
        <ele>-105.75</ele>
        <time>2012-01-28T14:41:59Z</time>
      </trkpt>
      <trkpt lat="47.25774" lon="-1.70755">
        <ele>-105.75</ele>
        <time>2012-01-28T14:42:01Z</time>
      </trkpt>
      <trkpt lat="47.25783" lon="-1.7075">
        <ele>-106</ele>
        <time>2012-01-28T14:42:03Z</time>
      </trkpt>
      <trkpt lat="47.25795" lon="-1.7074">
        <ele>-106.25</ele>
        <time>2012-01-28T14:42:06Z</time>
      </trkpt>
      <trkpt lat="47.25805" lon="-1.70731">
        <ele>-106.75</ele>
        <time>2012-01-28T14:42:08Z</time>
      </trkpt>
      <trkpt lat="47.25814" lon="-1.70723">
        <ele>-107</ele>
        <time>2012-01-28T14:42:11Z</time>
      </trkpt>
      <trkpt lat="47.25823" lon="-1.70715">
        <ele>-107</ele>
        <time>2012-01-28T14:42:13Z</time>
      </trkpt>
      <trkpt lat="47.25832" lon="-1.70707">
        <ele>-107</ele>
        <time>2012-01-28T14:42:15Z</time>
      </trkpt>
      <trkpt lat="47.25841" lon="-1.70699">
        <ele>-107</ele>
        <time>2012-01-28T14:42:17Z</time>
      </trkpt>
      <trkpt lat="47.2585" lon="-1.70691">
        <ele>-107</ele>
        <time>2012-01-28T14:42:19Z</time>
      </trkpt>
      <trkpt lat="47.25859" lon="-1.70683">
        <ele>-107</ele>
        <time>2012-01-28T14:42:21Z</time>
      </trkpt>
      <trkpt lat="47.2587" lon="-1.70674">
        <ele>-107.5</ele>
        <time>2012-01-28T14:42:24Z</time>
      </trkpt>
      <trkpt lat="47.25878" lon="-1.70667">
        <ele>-108</ele>
        <time>2012-01-28T14:42:26Z</time>
      </trkpt>
      <trkpt lat="47.25887" lon="-1.7066">
        <ele>-107.75</ele>
        <time>2012-01-28T14:42:29Z</time>
      </trkpt>
      <trkpt lat="47.25898" lon="-1.7065">
        <ele>-107.5</ele>
        <time>2012-01-28T14:42:32Z</time>
      </trkpt>
      <trkpt lat="47.25907" lon="-1.7064">
        <ele>-107</ele>
        <time>2012-01-28T14:42:35Z</time>
      </trkpt>
      <trkpt lat="47.25915" lon="-1.7063">
        <ele>-106.5</ele>
        <time>2012-01-28T14:42:37Z</time>
      </trkpt>
      <trkpt lat="47.25922" lon="-1.7062">
        <ele>-105.75</ele>
        <time>2012-01-28T14:42:39Z</time>
      </trkpt>
      <trkpt lat="47.2593" lon="-1.70611">
        <ele>-105</ele>
        <time>2012-01-28T14:42:41Z</time>
      </trkpt>
      <trkpt lat="47.25939" lon="-1.706">
        <ele>-104.25</ele>
        <time>2012-01-28T14:42:43Z</time>
      </trkpt>
      <trkpt lat="47.25949" lon="-1.70589">
        <ele>-104</ele>
        <time>2012-01-28T14:42:45Z</time>
      </trkpt>
      <trkpt lat="47.25959" lon="-1.70578">
        <ele>-104</ele>
        <time>2012-01-28T14:42:48Z</time>
      </trkpt>
      <trkpt lat="47.25968" lon="-1.70569">
        <ele>-104</ele>
        <time>2012-01-28T14:42:50Z</time>
      </trkpt>
      <trkpt lat="47.25977" lon="-1.7056">
        <ele>-103.5</ele>
        <time>2012-01-28T14:42:52Z</time>
      </trkpt>
      <trkpt lat="47.25987" lon="-1.70551">
        <ele>-103</ele>
        <time>2012-01-28T14:42:54Z</time>
      </trkpt>
      <trkpt lat="47.25999" lon="-1.7054">
        <ele>-102.75</ele>
        <time>2012-01-28T14:42:56Z</time>
      </trkpt>
      <trkpt lat="47.26011" lon="-1.7053">
        <ele>-102.25</ele>
        <time>2012-01-28T14:42:59Z</time>
      </trkpt>
      <trkpt lat="47.2602" lon="-1.70522">
        <ele>-101.75</ele>
        <time>2012-01-28T14:43:01Z</time>
      </trkpt>
      <trkpt lat="47.2603" lon="-1.70514">
        <ele>-101.25</ele>
        <time>2012-01-28T14:43:03Z</time>
      </trkpt>
      <trkpt lat="47.26039" lon="-1.70507">
        <ele>-101</ele>
        <time>2012-01-28T14:43:05Z</time>
      </trkpt>
      <trkpt lat="47.26048" lon="-1.705">
        <ele>-100.5</ele>
        <time>2012-01-28T14:43:07Z</time>
      </trkpt>
      <trkpt lat="47.26059" lon="-1.70492">
        <ele>-100</ele>
        <time>2012-01-28T14:43:09Z</time>
      </trkpt>
      <trkpt lat="47.26071" lon="-1.70481">
        <ele>-100.25</ele>
        <time>2012-01-28T14:43:12Z</time>
      </trkpt>
      <trkpt lat="47.26081" lon="-1.70472">
        <ele>-100.75</ele>
        <time>2012-01-28T14:43:14Z</time>
      </trkpt>
      <trkpt lat="47.2609" lon="-1.70464">
        <ele>-101.25</ele>
        <time>2012-01-28T14:43:16Z</time>
      </trkpt>
      <trkpt lat="47.26099" lon="-1.70457">
        <ele>-101.75</ele>
        <time>2012-01-28T14:43:18Z</time>
      </trkpt>
      <trkpt lat="47.26107" lon="-1.70451">
        <ele>-102.25</ele>
        <time>2012-01-28T14:43:20Z</time>
      </trkpt>
      <trkpt lat="47.26116" lon="-1.70443">
        <ele>-103.25</ele>
        <time>2012-01-28T14:43:22Z</time>
      </trkpt>
      <trkpt lat="47.26125" lon="-1.70435">
        <ele>-104.25</ele>
        <time>2012-01-28T14:43:25Z</time>
      </trkpt>
      <trkpt lat="47.26136" lon="-1.70426">
        <ele>-105.25</ele>
        <time>2012-01-28T14:43:28Z</time>
      </trkpt>
      <trkpt lat="47.26147" lon="-1.70417">
        <ele>-106.5</ele>
        <time>2012-01-28T14:43:31Z</time>
      </trkpt>
      <trkpt lat="47.26155" lon="-1.7041">
        <ele>-107.5</ele>
        <time>2012-01-28T14:43:33Z</time>
      </trkpt>
      <trkpt lat="47.26165" lon="-1.70401">
        <ele>-108</ele>
        <time>2012-01-28T14:43:37Z</time>
      </trkpt>
      <trkpt lat="47.26173" lon="-1.70395">
        <ele>-108.75</ele>
        <time>2012-01-28T14:43:40Z</time>
      </trkpt>
      <trkpt lat="47.26181" lon="-1.70389">
        <ele>-109</ele>
        <time>2012-01-28T14:43:43Z</time>
      </trkpt>
      <trkpt lat="47.26191" lon="-1.7038">
        <ele>-109.75</ele>
        <time>2012-01-28T14:43:47Z</time>
      </trkpt>
      <trkpt lat="47.262" lon="-1.70373">
        <ele>-110.25</ele>
        <time>2012-01-28T14:43:50Z</time>
      </trkpt>
      <trkpt lat="47.2621" lon="-1.70365">
        <ele>-111</ele>
        <time>2012-01-28T14:43:54Z</time>
      </trkpt>
      <trkpt lat="47.2622" lon="-1.70357">
        <ele>-111</ele>
        <time>2012-01-28T14:43:58Z</time>
      </trkpt>
      <trkpt lat="47.26228" lon="-1.70351">
        <ele>-111.75</ele>
        <time>2012-01-28T14:44:01Z</time>
      </trkpt>
      <trkpt lat="47.26236" lon="-1.70344">
        <ele>-112</ele>
        <time>2012-01-28T14:44:04Z</time>
      </trkpt>
      <trkpt lat="47.26245" lon="-1.70336">
        <ele>-112</ele>
        <time>2012-01-28T14:44:07Z</time>
      </trkpt>
      <trkpt lat="47.26254" lon="-1.70329">
        <ele>-112</ele>
        <time>2012-01-28T14:44:11Z</time>
      </trkpt>
      <trkpt lat="47.26263" lon="-1.70322">
        <ele>-112</ele>
        <time>2012-01-28T14:44:14Z</time>
      </trkpt>
      <trkpt lat="47.26272" lon="-1.70315">
        <ele>-112</ele>
        <time>2012-01-28T14:44:17Z</time>
      </trkpt>
      <trkpt lat="47.2628" lon="-1.70308">
        <ele>-112</ele>
        <time>2012-01-28T14:44:19Z</time>
      </trkpt>
      <trkpt lat="47.26289" lon="-1.70301">
        <ele>-112</ele>
        <time>2012-01-28T14:44:22Z</time>
      </trkpt>
      <trkpt lat="47.26299" lon="-1.70292">
        <ele>-111.75</ele>
        <time>2012-01-28T14:44:25Z</time>
      </trkpt>
      <trkpt lat="47.26309" lon="-1.70283">
        <ele>-111</ele>
        <time>2012-01-28T14:44:28Z</time>
      </trkpt>
      <trkpt lat="47.26318" lon="-1.70276">
        <ele>-111</ele>
        <time>2012-01-28T14:44:30Z</time>
      </trkpt>
      <trkpt lat="47.26326" lon="-1.70269">
        <ele>-111</ele>
        <time>2012-01-28T14:44:33Z</time>
      </trkpt>
      <trkpt lat="47.26336" lon="-1.70261">
        <ele>-110.5</ele>
        <time>2012-01-28T14:44:36Z</time>
      </trkpt>
      <trkpt lat="47.26347" lon="-1.70252">
        <ele>-110</ele>
        <time>2012-01-28T14:44:39Z</time>
      </trkpt>
      <trkpt lat="47.26355" lon="-1.70245">
        <ele>-110</ele>
        <time>2012-01-28T14:44:41Z</time>
      </trkpt>
      <trkpt lat="47.26364" lon="-1.70237">
        <ele>-110</ele>
        <time>2012-01-28T14:44:44Z</time>
      </trkpt>
      <trkpt lat="47.26372" lon="-1.7023">
        <ele>-110</ele>
        <time>2012-01-28T14:44:46Z</time>
      </trkpt>
      <trkpt lat="47.26383" lon="-1.70222">
        <ele>-110</ele>
        <time>2012-01-28T14:44:49Z</time>
      </trkpt>
      <trkpt lat="47.26393" lon="-1.70214">
        <ele>-110</ele>
        <time>2012-01-28T14:44:52Z</time>
      </trkpt>
      <trkpt lat="47.26405" lon="-1.70205">
        <ele>-110</ele>
        <time>2012-01-28T14:44:56Z</time>
      </trkpt>
      <trkpt lat="47.26413" lon="-1.70198">
        <ele>-110</ele>
        <time>2012-01-28T14:44:59Z</time>
      </trkpt>
      <trkpt lat="47.26423" lon="-1.70191">
        <ele>-109.25</ele>
        <time>2012-01-28T14:45:02Z</time>
      </trkpt>
      <trkpt lat="47.26434" lon="-1.70182">
        <ele>-109</ele>
        <time>2012-01-28T14:45:06Z</time>
      </trkpt>
      <trkpt lat="47.26442" lon="-1.70175">
        <ele>-109</ele>
        <time>2012-01-28T14:45:09Z</time>
      </trkpt>
      <trkpt lat="47.26451" lon="-1.70167">
        <ele>-109</ele>
        <time>2012-01-28T14:45:12Z</time>
      </trkpt>
      <trkpt lat="47.26462" lon="-1.70158">
        <ele>-109</ele>
        <time>2012-01-28T14:45:15Z</time>
      </trkpt>
      <trkpt lat="47.26472" lon="-1.7015">
        <ele>-109</ele>
        <time>2012-01-28T14:45:19Z</time>
      </trkpt>
      <trkpt lat="47.26481" lon="-1.70142">
        <ele>-109</ele>
        <time>2012-01-28T14:45:22Z</time>
      </trkpt>
      <trkpt lat="47.26492" lon="-1.70132">
        <ele>-109</ele>
        <time>2012-01-28T14:45:25Z</time>
      </trkpt>
      <trkpt lat="47.265" lon="-1.70125">
        <ele>-109</ele>
        <time>2012-01-28T14:45:28Z</time>
      </trkpt>
      <trkpt lat="47.2651" lon="-1.70116">
        <ele>-109</ele>
        <time>2012-01-28T14:45:31Z</time>
      </trkpt>
      <trkpt lat="47.2652" lon="-1.70107">
        <ele>-109</ele>
        <time>2012-01-28T14:45:34Z</time>
      </trkpt>
      <trkpt lat="47.26528" lon="-1.701">
        <ele>-109</ele>
        <time>2012-01-28T14:45:36Z</time>
      </trkpt>
      <trkpt lat="47.26539" lon="-1.7009">
        <ele>-108.75</ele>
        <time>2012-01-28T14:45:40Z</time>
      </trkpt>
      <trkpt lat="47.26548" lon="-1.70081">
        <ele>-108</ele>
        <time>2012-01-28T14:45:43Z</time>
      </trkpt>
      <trkpt lat="47.26558" lon="-1.70071">
        <ele>-108.25</ele>
        <time>2012-01-28T14:45:46Z</time>
      </trkpt>
      <trkpt lat="47.26566" lon="-1.70063">
        <ele>-108.75</ele>
        <time>2012-01-28T14:45:49Z</time>
      </trkpt>
      <trkpt lat="47.26576" lon="-1.70054">
        <ele>-109</ele>
        <time>2012-01-28T14:45:52Z</time>
      </trkpt>
      <trkpt lat="47.26585" lon="-1.70046">
        <ele>-109</ele>
        <time>2012-01-28T14:45:55Z</time>
      </trkpt>
      <trkpt lat="47.26595" lon="-1.70037">
        <ele>-108.25</ele>
        <time>2012-01-28T14:45:58Z</time>
      </trkpt>
      <trkpt lat="47.26606" lon="-1.70028">
        <ele>-108.75</ele>
        <time>2012-01-28T14:46:02Z</time>
      </trkpt>
      <trkpt lat="47.26614" lon="-1.70021">
        <ele>-109</ele>
        <time>2012-01-28T14:46:05Z</time>
      </trkpt>
      <trkpt lat="47.26623" lon="-1.70014">
        <ele>-109</ele>
        <time>2012-01-28T14:46:08Z</time>
      </trkpt>
      <trkpt lat="47.26632" lon="-1.70006">
        <ele>-109</ele>
        <time>2012-01-28T14:46:11Z</time>
      </trkpt>
      <trkpt lat="47.26643" lon="-1.69997">
        <ele>-109</ele>
        <time>2012-01-28T14:46:14Z</time>
      </trkpt>
      <trkpt lat="47.26653" lon="-1.69989">
        <ele>-109</ele>
        <time>2012-01-28T14:46:18Z</time>
      </trkpt>
      <trkpt lat="47.26661" lon="-1.69983">
        <ele>-109.25</ele>
        <time>2012-01-28T14:46:21Z</time>
      </trkpt>
      <trkpt lat="47.2667" lon="-1.69976">
        <ele>-110</ele>
        <time>2012-01-28T14:46:24Z</time>
      </trkpt>
      <trkpt lat="47.26682" lon="-1.69967">
        <ele>-110.25</ele>
        <time>2012-01-28T14:46:28Z</time>
      </trkpt>
      <trkpt lat="47.26693" lon="-1.69959">
        <ele>-111</ele>
        <time>2012-01-28T14:46:31Z</time>
      </trkpt>
      <trkpt lat="47.26703" lon="-1.6995">
        <ele>-111.5</ele>
        <time>2012-01-28T14:46:34Z</time>
      </trkpt>
      <trkpt lat="47.26712" lon="-1.69942">
        <ele>-112</ele>
        <time>2012-01-28T14:46:36Z</time>
      </trkpt>
      <trkpt lat="47.2672" lon="-1.69935">
        <ele>-112</ele>
        <time>2012-01-28T14:46:39Z</time>
      </trkpt>
      <trkpt lat="47.2673" lon="-1.69927">
        <ele>-112</ele>
        <time>2012-01-28T14:46:42Z</time>
      </trkpt>
      <trkpt lat="47.2674" lon="-1.69919">
        <ele>-112</ele>
        <time>2012-01-28T14:46:45Z</time>
      </trkpt>
      <trkpt lat="47.26749" lon="-1.69912">
        <ele>-112</ele>
        <time>2012-01-28T14:46:48Z</time>
      </trkpt>
      <trkpt lat="47.2676" lon="-1.69904">
        <ele>-112</ele>
        <time>2012-01-28T14:46:51Z</time>
      </trkpt>
      <trkpt lat="47.26769" lon="-1.69896">
        <ele>-112</ele>
        <time>2012-01-28T14:46:54Z</time>
      </trkpt>
      <trkpt lat="47.26781" lon="-1.69886">
        <ele>-112.75</ele>
        <time>2012-01-28T14:46:57Z</time>
      </trkpt>
      <trkpt lat="47.26792" lon="-1.69877">
        <ele>-113</ele>
        <time>2012-01-28T14:47:00Z</time>
      </trkpt>
      <trkpt lat="47.26802" lon="-1.69869">
        <ele>-113.5</ele>
        <time>2012-01-28T14:47:04Z</time>
      </trkpt>
      <trkpt lat="47.26811" lon="-1.69862">
        <ele>-114</ele>
        <time>2012-01-28T14:47:06Z</time>
      </trkpt>
      <trkpt lat="47.26822" lon="-1.69854">
        <ele>-114</ele>
        <time>2012-01-28T14:47:10Z</time>
      </trkpt>
      <trkpt lat="47.26832" lon="-1.69846">
        <ele>-115.25</ele>
        <time>2012-01-28T14:47:13Z</time>
      </trkpt>
      <trkpt lat="47.26843" lon="-1.69836">
        <ele>-116</ele>
        <time>2012-01-28T14:47:16Z</time>
      </trkpt>
      <trkpt lat="47.26854" lon="-1.69828">
        <ele>-116.25</ele>
        <time>2012-01-28T14:47:18Z</time>
      </trkpt>
      <trkpt lat="47.26865" lon="-1.69819">
        <ele>-116.25</ele>
        <time>2012-01-28T14:47:21Z</time>
      </trkpt>
      <trkpt lat="47.26874" lon="-1.69812">
        <ele>-116</ele>
        <time>2012-01-28T14:47:23Z</time>
      </trkpt>
      <trkpt lat="47.26884" lon="-1.69804">
        <ele>-115.5</ele>
        <time>2012-01-28T14:47:25Z</time>
      </trkpt>
      <trkpt lat="47.26895" lon="-1.69796">
        <ele>-115</ele>
        <time>2012-01-28T14:47:27Z</time>
      </trkpt>
      <trkpt lat="47.26907" lon="-1.69786">
        <ele>-115</ele>
        <time>2012-01-28T14:47:29Z</time>
      </trkpt>
      <trkpt lat="47.26919" lon="-1.69776">
        <ele>-115.25</ele>
        <time>2012-01-28T14:47:32Z</time>
      </trkpt>
      <trkpt lat="47.26928" lon="-1.6977">
        <ele>-115.25</ele>
        <time>2012-01-28T14:47:34Z</time>
      </trkpt>
      <trkpt lat="47.26939" lon="-1.69761">
        <ele>-115</ele>
        <time>2012-01-28T14:47:37Z</time>
      </trkpt>
      <trkpt lat="47.26949" lon="-1.69753">
        <ele>-115</ele>
        <time>2012-01-28T14:47:40Z</time>
      </trkpt>
      <trkpt lat="47.26959" lon="-1.69745">
        <ele>-115</ele>
        <time>2012-01-28T14:47:44Z</time>
      </trkpt>
      <trkpt lat="47.26966" lon="-1.69737">
        <ele>-114</ele>
        <time>2012-01-28T14:47:48Z</time>
      </trkpt>
      <trkpt lat="47.26977" lon="-1.69738">
        <ele>-113</ele>
        <time>2012-01-28T14:50:14Z</time>
      </trkpt>
      <trkpt lat="47.26983" lon="-1.69748">
        <ele>-113</ele>
        <time>2012-01-28T14:50:17Z</time>
      </trkpt>
      <trkpt lat="47.26989" lon="-1.69762">
        <ele>-113.5</ele>
        <time>2012-01-28T14:50:20Z</time>
      </trkpt>
      <trkpt lat="47.26997" lon="-1.69777">
        <ele>-114</ele>
        <time>2012-01-28T14:50:23Z</time>
      </trkpt>
      <trkpt lat="47.27003" lon="-1.69792">
        <ele>-114</ele>
        <time>2012-01-28T14:50:27Z</time>
      </trkpt>
      <trkpt lat="47.27012" lon="-1.69799">
        <ele>-114.75</ele>
        <time>2012-01-28T14:50:31Z</time>
      </trkpt>
      <trkpt lat="47.27022" lon="-1.69794">
        <ele>-115</ele>
        <time>2012-01-28T14:50:34Z</time>
      </trkpt>
      <trkpt lat="47.27034" lon="-1.69788">
        <ele>-115</ele>
        <time>2012-01-28T14:50:38Z</time>
      </trkpt>
      <trkpt lat="47.27044" lon="-1.69782">
        <ele>-115</ele>
        <time>2012-01-28T14:50:41Z</time>
      </trkpt>
      <trkpt lat="47.27055" lon="-1.69776">
        <ele>-115</ele>
        <time>2012-01-28T14:50:44Z</time>
      </trkpt>
      <trkpt lat="47.27064" lon="-1.69771">
        <ele>-115</ele>
        <time>2012-01-28T14:50:46Z</time>
      </trkpt>
      <trkpt lat="47.27075" lon="-1.69765">
        <ele>-115.25</ele>
        <time>2012-01-28T14:50:50Z</time>
      </trkpt>
      <trkpt lat="47.27085" lon="-1.6976">
        <ele>-115.75</ele>
        <time>2012-01-28T14:50:53Z</time>
      </trkpt>
      <trkpt lat="47.27095" lon="-1.69755">
        <ele>-116.25</ele>
        <time>2012-01-28T14:50:56Z</time>
      </trkpt>
      <trkpt lat="47.27104" lon="-1.69749">
        <ele>-117</ele>
        <time>2012-01-28T14:51:00Z</time>
      </trkpt>
      <trkpt lat="47.27114" lon="-1.69743">
        <ele>-117.75</ele>
        <time>2012-01-28T14:51:04Z</time>
      </trkpt>
      <trkpt lat="47.27123" lon="-1.69739">
        <ele>-118.5</ele>
        <time>2012-01-28T14:51:07Z</time>
      </trkpt>
      <trkpt lat="47.27132" lon="-1.69734">
        <ele>-118.5</ele>
        <time>2012-01-28T14:51:10Z</time>
      </trkpt>
      <trkpt lat="47.27145" lon="-1.69729">
        <ele>-118.75</ele>
        <time>2012-01-28T14:51:14Z</time>
      </trkpt>
      <trkpt lat="47.27157" lon="-1.69723">
        <ele>-119</ele>
        <time>2012-01-28T14:51:17Z</time>
      </trkpt>
      <trkpt lat="47.27168" lon="-1.69716">
        <ele>-118.5</ele>
        <time>2012-01-28T14:51:20Z</time>
      </trkpt>
      <trkpt lat="47.27179" lon="-1.6971">
        <ele>-118</ele>
        <time>2012-01-28T14:51:23Z</time>
      </trkpt>
      <trkpt lat="47.27189" lon="-1.69706">
        <ele>-117.75</ele>
        <time>2012-01-28T14:51:26Z</time>
      </trkpt>
      <trkpt lat="47.27201" lon="-1.697">
        <ele>-117</ele>
        <time>2012-01-28T14:51:29Z</time>
      </trkpt>
      <trkpt lat="47.27212" lon="-1.69695">
        <ele>-116.25</ele>
        <time>2012-01-28T14:51:32Z</time>
      </trkpt>
      <trkpt lat="47.27221" lon="-1.6969">
        <ele>-116</ele>
        <time>2012-01-28T14:51:34Z</time>
      </trkpt>
      <trkpt lat="47.2723" lon="-1.69686">
        <ele>-116</ele>
        <time>2012-01-28T14:51:37Z</time>
      </trkpt>
      <trkpt lat="47.27242" lon="-1.6968">
        <ele>-116</ele>
        <time>2012-01-28T14:51:40Z</time>
      </trkpt>
      <trkpt lat="47.27252" lon="-1.69675">
        <ele>-115.25</ele>
        <time>2012-01-28T14:51:43Z</time>
      </trkpt>
      <trkpt lat="47.27265" lon="-1.69668">
        <ele>-114</ele>
        <time>2012-01-28T14:51:46Z</time>
      </trkpt>
      <trkpt lat="47.27275" lon="-1.69663">
        <ele>-113.25</ele>
        <time>2012-01-28T14:51:48Z</time>
      </trkpt>
      <trkpt lat="47.27287" lon="-1.69657">
        <ele>-112.25</ele>
        <time>2012-01-28T14:51:52Z</time>
      </trkpt>
      <trkpt lat="47.27298" lon="-1.69652">
        <ele>-112</ele>
        <time>2012-01-28T14:51:55Z</time>
      </trkpt>
      <trkpt lat="47.27307" lon="-1.69647">
        <ele>-112</ele>
        <time>2012-01-28T14:51:57Z</time>
      </trkpt>
      <trkpt lat="47.27316" lon="-1.69642">
        <ele>-112</ele>
        <time>2012-01-28T14:52:00Z</time>
      </trkpt>
      <trkpt lat="47.27324" lon="-1.69635">
        <ele>-112</ele>
        <time>2012-01-28T14:52:03Z</time>
      </trkpt>
      <trkpt lat="47.27323" lon="-1.69621">
        <ele>-111</ele>
        <time>2012-01-28T14:57:25Z</time>
      </trkpt>
      <trkpt lat="47.27313" lon="-1.69611">
        <ele>-112</ele>
        <time>2012-01-28T14:57:29Z</time>
      </trkpt>
      <trkpt lat="47.27306" lon="-1.69601">
        <ele>-112</ele>
        <time>2012-01-28T14:57:33Z</time>
      </trkpt>
      <trkpt lat="47.273" lon="-1.69588">
        <ele>-112.25</ele>
        <time>2012-01-28T14:57:37Z</time>
      </trkpt>
      <trkpt lat="47.27295" lon="-1.69575">
        <ele>-114</ele>
        <time>2012-01-28T14:57:40Z</time>
      </trkpt>
      <trkpt lat="47.27287" lon="-1.69561">
        <ele>-115.5</ele>
        <time>2012-01-28T14:57:44Z</time>
      </trkpt>
      <trkpt lat="47.27282" lon="-1.69549">
        <ele>-117.25</ele>
        <time>2012-01-28T14:57:47Z</time>
      </trkpt>
      <trkpt lat="47.27279" lon="-1.69535">
        <ele>-119.75</ele>
        <time>2012-01-28T14:57:50Z</time>
      </trkpt>
      <trkpt lat="47.27275" lon="-1.69521">
        <ele>-120.75</ele>
        <time>2012-01-28T14:57:53Z</time>
      </trkpt>
      <trkpt lat="47.27271" lon="-1.69506">
        <ele>-121.5</ele>
        <time>2012-01-28T14:57:56Z</time>
      </trkpt>
      <trkpt lat="47.27266" lon="-1.69491">
        <ele>-122</ele>
        <time>2012-01-28T14:58:00Z</time>
      </trkpt>
      <trkpt lat="47.27261" lon="-1.6948">
        <ele>-122.5</ele>
        <time>2012-01-28T14:58:03Z</time>
      </trkpt>
      <trkpt lat="47.27256" lon="-1.69465">
        <ele>-123.5</ele>
        <time>2012-01-28T14:58:06Z</time>
      </trkpt>
      <trkpt lat="47.2725" lon="-1.6945">
        <ele>-123.75</ele>
        <time>2012-01-28T14:58:10Z</time>
      </trkpt>
      <trkpt lat="47.27243" lon="-1.69434">
        <ele>-123</ele>
        <time>2012-01-28T14:58:13Z</time>
      </trkpt>
      <trkpt lat="47.27239" lon="-1.6942">
        <ele>-123</ele>
        <time>2012-01-28T14:58:16Z</time>
      </trkpt>
      <trkpt lat="47.27234" lon="-1.69404">
        <ele>-123</ele>
        <time>2012-01-28T14:58:19Z</time>
      </trkpt>
      <trkpt lat="47.27229" lon="-1.6939">
        <ele>-123</ele>
        <time>2012-01-28T14:58:23Z</time>
      </trkpt>
      <trkpt lat="47.27225" lon="-1.69377">
        <ele>-122.25</ele>
        <time>2012-01-28T14:58:26Z</time>
      </trkpt>
      <trkpt lat="47.27222" lon="-1.69358">
        <ele>-121</ele>
        <time>2012-01-28T14:58:29Z</time>
      </trkpt>
      <trkpt lat="47.27224" lon="-1.69344">
        <ele>-120.25</ele>
        <time>2012-01-28T14:58:32Z</time>
      </trkpt>
      <trkpt lat="47.27235" lon="-1.69333">
        <ele>-119.25</ele>
        <time>2012-01-28T14:58:35Z</time>
      </trkpt>
      <trkpt lat="47.27244" lon="-1.69323">
        <ele>-118.25</ele>
        <time>2012-01-28T14:58:38Z</time>
      </trkpt>
      <trkpt lat="47.27246" lon="-1.69307">
        <ele>-117.25</ele>
        <time>2012-01-28T14:58:41Z</time>
      </trkpt>
      <trkpt lat="47.27247" lon="-1.6929">
        <ele>-116.5</ele>
        <time>2012-01-28T14:58:45Z</time>
      </trkpt>
      <trkpt lat="47.2725" lon="-1.69275">
        <ele>-116.25</ele>
        <time>2012-01-28T14:58:48Z</time>
      </trkpt>
      <trkpt lat="47.27253" lon="-1.69258">
        <ele>-115.75</ele>
        <time>2012-01-28T14:58:51Z</time>
      </trkpt>
      <trkpt lat="47.27256" lon="-1.69242">
        <ele>-115.25</ele>
        <time>2012-01-28T14:58:53Z</time>
      </trkpt>
      <trkpt lat="47.27259" lon="-1.69227">
        <ele>-114.5</ele>
        <time>2012-01-28T14:58:56Z</time>
      </trkpt>
      <trkpt lat="47.27262" lon="-1.69215">
        <ele>-114</ele>
        <time>2012-01-28T14:58:58Z</time>
      </trkpt>
      <trkpt lat="47.27267" lon="-1.69202">
        <ele>-114</ele>
        <time>2012-01-28T14:59:00Z</time>
      </trkpt>
      <trkpt lat="47.27272" lon="-1.69189">
        <ele>-114</ele>
        <time>2012-01-28T14:59:02Z</time>
      </trkpt>
      <trkpt lat="47.27278" lon="-1.69176">
        <ele>-114</ele>
        <time>2012-01-28T14:59:04Z</time>
      </trkpt>
      <trkpt lat="47.27286" lon="-1.69161">
        <ele>-113.75</ele>
        <time>2012-01-28T14:59:06Z</time>
      </trkpt>
      <trkpt lat="47.27293" lon="-1.69147">
        <ele>-113</ele>
        <time>2012-01-28T14:59:09Z</time>
      </trkpt>
      <trkpt lat="47.273" lon="-1.6913">
        <ele>-112</ele>
        <time>2012-01-28T14:59:12Z</time>
      </trkpt>
      <trkpt lat="47.27304" lon="-1.69118">
        <ele>-112</ele>
        <time>2012-01-28T14:59:14Z</time>
      </trkpt>
      <trkpt lat="47.27309" lon="-1.69104">
        <ele>-112</ele>
        <time>2012-01-28T14:59:16Z</time>
      </trkpt>
      <trkpt lat="47.27315" lon="-1.69089">
        <ele>-111.5</ele>
        <time>2012-01-28T14:59:19Z</time>
      </trkpt>
      <trkpt lat="47.27321" lon="-1.69078">
        <ele>-111</ele>
        <time>2012-01-28T14:59:21Z</time>
      </trkpt>
      <trkpt lat="47.27328" lon="-1.6907">
        <ele>-111</ele>
        <time>2012-01-28T14:59:23Z</time>
      </trkpt>
      <trkpt lat="47.27337" lon="-1.69063">
        <ele>-110.75</ele>
        <time>2012-01-28T14:59:25Z</time>
      </trkpt>
      <trkpt lat="47.27347" lon="-1.69056">
        <ele>-110.25</ele>
        <time>2012-01-28T14:59:27Z</time>
      </trkpt>
      <trkpt lat="47.27358" lon="-1.6905">
        <ele>-110</ele>
        <time>2012-01-28T14:59:29Z</time>
      </trkpt>
      <trkpt lat="47.27369" lon="-1.69044">
        <ele>-110</ele>
        <time>2012-01-28T14:59:32Z</time>
      </trkpt>
      <trkpt lat="47.27379" lon="-1.69039">
        <ele>-110</ele>
        <time>2012-01-28T14:59:34Z</time>
      </trkpt>
      <trkpt lat="47.27389" lon="-1.69035">
        <ele>-110</ele>
        <time>2012-01-28T14:59:36Z</time>
      </trkpt>
      <trkpt lat="47.27398" lon="-1.69031">
        <ele>-110</ele>
        <time>2012-01-28T14:59:38Z</time>
      </trkpt>
      <trkpt lat="47.27408" lon="-1.69027">
        <ele>-110</ele>
        <time>2012-01-28T14:59:40Z</time>
      </trkpt>
      <trkpt lat="47.27417" lon="-1.69023">
        <ele>-110</ele>
        <time>2012-01-28T14:59:42Z</time>
      </trkpt>
      <trkpt lat="47.27427" lon="-1.69018">
        <ele>-110</ele>
        <time>2012-01-28T14:59:47Z</time>
      </trkpt>
      <trkpt lat="47.27439" lon="-1.69016">
        <ele>-111.5</ele>
        <time>2012-01-28T14:59:54Z</time>
      </trkpt>
      <trkpt lat="47.27452" lon="-1.69013">
        <ele>-112</ele>
        <time>2012-01-28T14:59:58Z</time>
      </trkpt>
      <trkpt lat="47.27461" lon="-1.6901">
        <ele>-112.25</ele>
        <time>2012-01-28T15:00:00Z</time>
      </trkpt>
      <trkpt lat="47.27474" lon="-1.69007">
        <ele>-113</ele>
        <time>2012-01-28T15:00:03Z</time>
      </trkpt>
      <trkpt lat="47.27483" lon="-1.69004">
        <ele>-113.5</ele>
        <time>2012-01-28T15:00:05Z</time>
      </trkpt>
      <trkpt lat="47.27494" lon="-1.69001">
        <ele>-114</ele>
        <time>2012-01-28T15:00:07Z</time>
      </trkpt>
      <trkpt lat="47.27504" lon="-1.68998">
        <ele>-114</ele>
        <time>2012-01-28T15:00:10Z</time>
      </trkpt>
      <trkpt lat="47.27517" lon="-1.68995">
        <ele>-114</ele>
        <time>2012-01-28T15:00:13Z</time>
      </trkpt>
      <trkpt lat="47.27526" lon="-1.68993">
        <ele>-114</ele>
        <time>2012-01-28T15:00:15Z</time>
      </trkpt>
      <trkpt lat="47.27535" lon="-1.68991">
        <ele>-113.5</ele>
        <time>2012-01-28T15:00:17Z</time>
      </trkpt>
      <trkpt lat="47.27547" lon="-1.68988">
        <ele>-113</ele>
        <time>2012-01-28T15:00:19Z</time>
      </trkpt>
      <trkpt lat="47.27558" lon="-1.68987">
        <ele>-112.75</ele>
        <time>2012-01-28T15:00:22Z</time>
      </trkpt>
      <trkpt lat="47.27568" lon="-1.68989">
        <ele>-112.25</ele>
        <time>2012-01-28T15:00:24Z</time>
      </trkpt>
      <trkpt lat="47.27579" lon="-1.68992">
        <ele>-112</ele>
        <time>2012-01-28T15:00:26Z</time>
      </trkpt>
      <trkpt lat="47.2759" lon="-1.68997">
        <ele>-111.5</ele>
        <time>2012-01-28T15:00:28Z</time>
      </trkpt>
      <trkpt lat="47.27604" lon="-1.69001">
        <ele>-111</ele>
        <time>2012-01-28T15:00:30Z</time>
      </trkpt>
      <trkpt lat="47.27617" lon="-1.69005">
        <ele>-110.75</ele>
        <time>2012-01-28T15:00:32Z</time>
      </trkpt>
      <trkpt lat="47.27629" lon="-1.69006">
        <ele>-110.5</ele>
        <time>2012-01-28T15:00:35Z</time>
      </trkpt>
      <trkpt lat="47.27638" lon="-1.69002">
        <ele>-110.5</ele>
        <time>2012-01-28T15:00:37Z</time>
      </trkpt>
      <trkpt lat="47.27646" lon="-1.68995">
        <ele>-110.75</ele>
        <time>2012-01-28T15:00:39Z</time>
      </trkpt>
      <trkpt lat="47.27654" lon="-1.68988">
        <ele>-111.25</ele>
        <time>2012-01-28T15:00:41Z</time>
      </trkpt>
      <trkpt lat="47.27663" lon="-1.6898">
        <ele>-111.75</ele>
        <time>2012-01-28T15:00:43Z</time>
      </trkpt>
      <trkpt lat="47.27673" lon="-1.68971">
        <ele>-112</ele>
        <time>2012-01-28T15:00:45Z</time>
      </trkpt>
      <trkpt lat="47.27682" lon="-1.68963">
        <ele>-112</ele>
        <time>2012-01-28T15:00:48Z</time>
      </trkpt>
      <trkpt lat="47.27691" lon="-1.68958">
        <ele>-112.25</ele>
        <time>2012-01-28T15:00:50Z</time>
      </trkpt>
      <trkpt lat="47.277" lon="-1.68954">
        <ele>-112.5</ele>
        <time>2012-01-28T15:00:52Z</time>
      </trkpt>
      <trkpt lat="47.27709" lon="-1.6895">
        <ele>-112.25</ele>
        <time>2012-01-28T15:00:54Z</time>
      </trkpt>
      <trkpt lat="47.27719" lon="-1.68947">
        <ele>-112</ele>
        <time>2012-01-28T15:00:56Z</time>
      </trkpt>
      <trkpt lat="47.27731" lon="-1.68948">
        <ele>-112</ele>
        <time>2012-01-28T15:01:00Z</time>
      </trkpt>
      <trkpt lat="47.27742" lon="-1.68954">
        <ele>-112.5</ele>
        <time>2012-01-28T15:01:03Z</time>
      </trkpt>
      <trkpt lat="47.27753" lon="-1.68961">
        <ele>-113.25</ele>
        <time>2012-01-28T15:01:05Z</time>
      </trkpt>
      <trkpt lat="47.27762" lon="-1.68966">
        <ele>-113.75</ele>
        <time>2012-01-28T15:01:07Z</time>
      </trkpt>
      <trkpt lat="47.27773" lon="-1.68974">
        <ele>-113.5</ele>
        <time>2012-01-28T15:01:09Z</time>
      </trkpt>
      <trkpt lat="47.27784" lon="-1.68983">
        <ele>-113.25</ele>
        <time>2012-01-28T15:01:11Z</time>
      </trkpt>
      <trkpt lat="47.27793" lon="-1.68991">
        <ele>-113.5</ele>
        <time>2012-01-28T15:01:14Z</time>
      </trkpt>
      <trkpt lat="47.27802" lon="-1.68998">
        <ele>-112.5</ele>
        <time>2012-01-28T15:01:16Z</time>
      </trkpt>
      <trkpt lat="47.27811" lon="-1.69006">
        <ele>-111</ele>
        <time>2012-01-28T15:01:18Z</time>
      </trkpt>
      <trkpt lat="47.2782" lon="-1.69014">
        <ele>-110.25</ele>
        <time>2012-01-28T15:01:20Z</time>
      </trkpt>
      <trkpt lat="47.27832" lon="-1.69024">
        <ele>-109.75</ele>
        <time>2012-01-28T15:01:22Z</time>
      </trkpt>
      <trkpt lat="47.27844" lon="-1.69034">
        <ele>-109.25</ele>
        <time>2012-01-28T15:01:25Z</time>
      </trkpt>
      <trkpt lat="47.27854" lon="-1.69044">
        <ele>-107</ele>
        <time>2012-01-28T15:01:27Z</time>
      </trkpt>
      <trkpt lat="47.27865" lon="-1.69057">
        <ele>-103.25</ele>
        <time>2012-01-28T15:01:29Z</time>
      </trkpt>
      <trkpt lat="47.27879" lon="-1.69071">
        <ele>-100.5</ele>
        <time>2012-01-28T15:01:31Z</time>
      </trkpt>
      <trkpt lat="47.27894" lon="-1.69084">
        <ele>-98.5</ele>
        <time>2012-01-28T15:01:33Z</time>
      </trkpt>
      <trkpt lat="47.27904" lon="-1.69089">
        <ele>-97.75</ele>
        <time>2012-01-28T15:01:34Z</time>
      </trkpt>
      <trkpt lat="47.27913" lon="-1.69093">
        <ele>-97.25</ele>
        <time>2012-01-28T15:01:35Z</time>
      </trkpt>
      <trkpt lat="47.2793" lon="-1.69098">
        <ele>-96.5</ele>
        <time>2012-01-28T15:01:38Z</time>
      </trkpt>
      <trkpt lat="47.27942" lon="-1.69097">
        <ele>-96</ele>
        <time>2012-01-28T15:01:40Z</time>
      </trkpt>
      <trkpt lat="47.27953" lon="-1.69096">
        <ele>-96</ele>
        <time>2012-01-28T15:01:42Z</time>
      </trkpt>
      <trkpt lat="47.27963" lon="-1.69096">
        <ele>-96.25</ele>
        <time>2012-01-28T15:01:44Z</time>
      </trkpt>
      <trkpt lat="47.27976" lon="-1.69095">
        <ele>-96.5</ele>
        <time>2012-01-28T15:01:47Z</time>
      </trkpt>
      <trkpt lat="47.27988" lon="-1.69095">
        <ele>-97.5</ele>
        <time>2012-01-28T15:01:51Z</time>
      </trkpt>
      <trkpt lat="47.27999" lon="-1.69097">
        <ele>-99.5</ele>
        <time>2012-01-28T15:01:55Z</time>
      </trkpt>
      <trkpt lat="47.2801" lon="-1.69101">
        <ele>-102.25</ele>
        <time>2012-01-28T15:02:00Z</time>
      </trkpt>
      <trkpt lat="47.28021" lon="-1.69106">
        <ele>-104</ele>
        <time>2012-01-28T15:02:06Z</time>
      </trkpt>
      <trkpt lat="47.28029" lon="-1.6911">
        <ele>-104</ele>
        <time>2012-01-28T15:02:09Z</time>
      </trkpt>
      <trkpt lat="47.28038" lon="-1.69115">
        <ele>-98.75</ele>
        <time>2012-01-28T15:02:31Z</time>
      </trkpt>
      <trkpt lat="47.28048" lon="-1.69114">
        <ele>-99.5</ele>
        <time>2012-01-28T15:02:46Z</time>
      </trkpt>
      <trkpt lat="47.28058" lon="-1.69112">
        <ele>-100.75</ele>
        <time>2012-01-28T15:02:51Z</time>
      </trkpt>
      <trkpt lat="47.28068" lon="-1.6911">
        <ele>-101</ele>
        <time>2012-01-28T15:02:54Z</time>
      </trkpt>
      <trkpt lat="47.28079" lon="-1.69108">
        <ele>-101</ele>
        <time>2012-01-28T15:02:57Z</time>
      </trkpt>
      <trkpt lat="47.2809" lon="-1.69105">
        <ele>-101.5</ele>
        <time>2012-01-28T15:03:01Z</time>
      </trkpt>
      <trkpt lat="47.28102" lon="-1.69102">
        <ele>-102.25</ele>
        <time>2012-01-28T15:03:05Z</time>
      </trkpt>
      <trkpt lat="47.28111" lon="-1.69098">
        <ele>-103.25</ele>
        <time>2012-01-28T15:03:09Z</time>
      </trkpt>
      <trkpt lat="47.28122" lon="-1.69096">
        <ele>-103</ele>
        <time>2012-01-28T15:03:13Z</time>
      </trkpt>
      <trkpt lat="47.28131" lon="-1.69096">
        <ele>-103</ele>
        <time>2012-01-28T15:03:16Z</time>
      </trkpt>
      <trkpt lat="47.28143" lon="-1.69098">
        <ele>-103</ele>
        <time>2012-01-28T15:03:20Z</time>
      </trkpt>
      <trkpt lat="47.28153" lon="-1.69103">
        <ele>-104</ele>
        <time>2012-01-28T15:03:24Z</time>
      </trkpt>
      <trkpt lat="47.28162" lon="-1.69109">
        <ele>-105</ele>
        <time>2012-01-28T15:03:27Z</time>
      </trkpt>
      <trkpt lat="47.28172" lon="-1.69117">
        <ele>-107</ele>
        <time>2012-01-28T15:03:31Z</time>
      </trkpt>
      <trkpt lat="47.2818" lon="-1.69126">
        <ele>-108.25</ele>
        <time>2012-01-28T15:03:35Z</time>
      </trkpt>
      <trkpt lat="47.28186" lon="-1.69138">
        <ele>-107.25</ele>
        <time>2012-01-28T15:03:41Z</time>
      </trkpt>
      <trkpt lat="47.28189" lon="-1.6915">
        <ele>-106</ele>
        <time>2012-01-28T15:03:45Z</time>
      </trkpt>
      <trkpt lat="47.28191" lon="-1.69167">
        <ele>-105.25</ele>
        <time>2012-01-28T15:03:48Z</time>
      </trkpt>
      <trkpt lat="47.28191" lon="-1.69186">
        <ele>-105.25</ele>
        <time>2012-01-28T15:03:52Z</time>
      </trkpt>
      <trkpt lat="47.28196" lon="-1.69201">
        <ele>-104.5</ele>
        <time>2012-01-28T15:03:55Z</time>
      </trkpt>
      <trkpt lat="47.28208" lon="-1.69206">
        <ele>-103.25</ele>
        <time>2012-01-28T15:03:58Z</time>
      </trkpt>
      <trkpt lat="47.2822" lon="-1.69207">
        <ele>-103.25</ele>
        <time>2012-01-28T15:04:02Z</time>
      </trkpt>
      <trkpt lat="47.28233" lon="-1.6921">
        <ele>-104</ele>
        <time>2012-01-28T15:04:05Z</time>
      </trkpt>
      <trkpt lat="47.28245" lon="-1.69213">
        <ele>-104</ele>
        <time>2012-01-28T15:04:09Z</time>
      </trkpt>
      <trkpt lat="47.28256" lon="-1.69215">
        <ele>-104</ele>
        <time>2012-01-28T15:04:12Z</time>
      </trkpt>
      <trkpt lat="47.28266" lon="-1.69218">
        <ele>-104</ele>
        <time>2012-01-28T15:04:15Z</time>
      </trkpt>
      <trkpt lat="47.28279" lon="-1.69221">
        <ele>-104</ele>
        <time>2012-01-28T15:04:19Z</time>
      </trkpt>
      <trkpt lat="47.2829" lon="-1.69223">
        <ele>-104</ele>
        <time>2012-01-28T15:04:22Z</time>
      </trkpt>
      <trkpt lat="47.28301" lon="-1.69226">
        <ele>-103.75</ele>
        <time>2012-01-28T15:04:25Z</time>
      </trkpt>
      <trkpt lat="47.28312" lon="-1.69228">
        <ele>-103.25</ele>
        <time>2012-01-28T15:04:27Z</time>
      </trkpt>
      <trkpt lat="47.28324" lon="-1.69231">
        <ele>-103</ele>
        <time>2012-01-28T15:04:30Z</time>
      </trkpt>
      <trkpt lat="47.28333" lon="-1.69233">
        <ele>-102.5</ele>
        <time>2012-01-28T15:04:32Z</time>
      </trkpt>
      <trkpt lat="47.28342" lon="-1.69235">
        <ele>-102.5</ele>
        <time>2012-01-28T15:04:34Z</time>
      </trkpt>
      <trkpt lat="47.28355" lon="-1.69237">
        <ele>-103</ele>
        <time>2012-01-28T15:04:37Z</time>
      </trkpt>
      <trkpt lat="47.28364" lon="-1.69239">
        <ele>-103.5</ele>
        <time>2012-01-28T15:04:39Z</time>
      </trkpt>
      <trkpt lat="47.28373" lon="-1.69242">
        <ele>-104</ele>
        <time>2012-01-28T15:04:42Z</time>
      </trkpt>
      <trkpt lat="47.28385" lon="-1.69245">
        <ele>-104.25</ele>
        <time>2012-01-28T15:04:45Z</time>
      </trkpt>
      <trkpt lat="47.28396" lon="-1.69247">
        <ele>-105</ele>
        <time>2012-01-28T15:04:48Z</time>
      </trkpt>
      <trkpt lat="47.28408" lon="-1.69248">
        <ele>-106.25</ele>
        <time>2012-01-28T15:04:52Z</time>
      </trkpt>
      <trkpt lat="47.28417" lon="-1.6925">
        <ele>-107</ele>
        <time>2012-01-28T15:04:55Z</time>
      </trkpt>
      <trkpt lat="47.28428" lon="-1.69253">
        <ele>-107</ele>
        <time>2012-01-28T15:04:59Z</time>
      </trkpt>
      <trkpt lat="47.28438" lon="-1.69254">
        <ele>-107.75</ele>
        <time>2012-01-28T15:05:03Z</time>
      </trkpt>
      <trkpt lat="47.28449" lon="-1.69257">
        <ele>-108</ele>
        <time>2012-01-28T15:05:07Z</time>
      </trkpt>
      <trkpt lat="47.28459" lon="-1.69259">
        <ele>-109</ele>
        <time>2012-01-28T15:05:11Z</time>
      </trkpt>
      <trkpt lat="47.28469" lon="-1.69261">
        <ele>-109.5</ele>
        <time>2012-01-28T15:05:16Z</time>
      </trkpt>
      <trkpt lat="47.2846" lon="-1.6926">
        <ele>-107</ele>
        <time>2012-01-28T15:05:47Z</time>
      </trkpt>
      <trkpt lat="47.2845" lon="-1.69256">
        <ele>-106.5</ele>
        <time>2012-01-28T15:05:52Z</time>
      </trkpt>
      <trkpt lat="47.2844" lon="-1.69254">
        <ele>-106</ele>
        <time>2012-01-28T15:05:57Z</time>
      </trkpt>
      <trkpt lat="47.28431" lon="-1.69253">
        <ele>-105.5</ele>
        <time>2012-01-28T15:05:59Z</time>
      </trkpt>
      <trkpt lat="47.28421" lon="-1.69252">
        <ele>-105</ele>
        <time>2012-01-28T15:06:02Z</time>
      </trkpt>
      <trkpt lat="47.28412" lon="-1.6925">
        <ele>-104.75</ele>
        <time>2012-01-28T15:06:04Z</time>
      </trkpt>
      <trkpt lat="47.284" lon="-1.69247">
        <ele>-104.25</ele>
        <time>2012-01-28T15:06:06Z</time>
      </trkpt>
      <trkpt lat="47.28389" lon="-1.69245">
        <ele>-103.5</ele>
        <time>2012-01-28T15:06:08Z</time>
      </trkpt>
      <trkpt lat="47.28375" lon="-1.69242">
        <ele>-103</ele>
        <time>2012-01-28T15:06:10Z</time>
      </trkpt>
      <trkpt lat="47.28361" lon="-1.69239">
        <ele>-102.5</ele>
        <time>2012-01-28T15:06:13Z</time>
      </trkpt>
      <trkpt lat="47.28349" lon="-1.69237">
        <ele>-102</ele>
        <time>2012-01-28T15:06:15Z</time>
      </trkpt>
      <trkpt lat="47.28339" lon="-1.69235">
        <ele>-102</ele>
        <time>2012-01-28T15:06:17Z</time>
      </trkpt>
      <trkpt lat="47.28329" lon="-1.69233">
        <ele>-101.5</ele>
        <time>2012-01-28T15:06:19Z</time>
      </trkpt>
      <trkpt lat="47.28319" lon="-1.69231">
        <ele>-101</ele>
        <time>2012-01-28T15:06:21Z</time>
      </trkpt>
      <trkpt lat="47.28307" lon="-1.69228">
        <ele>-100.5</ele>
        <time>2012-01-28T15:06:25Z</time>
      </trkpt>
      <trkpt lat="47.28298" lon="-1.69227">
        <ele>-100</ele>
        <time>2012-01-28T15:06:28Z</time>
      </trkpt>
      <trkpt lat="47.28288" lon="-1.69225">
        <ele>-100</ele>
        <time>2012-01-28T15:06:31Z</time>
      </trkpt>
      <trkpt lat="47.28277" lon="-1.69224">
        <ele>-100</ele>
        <time>2012-01-28T15:06:35Z</time>
      </trkpt>
      <trkpt lat="47.28268" lon="-1.69222">
        <ele>-100</ele>
        <time>2012-01-28T15:06:38Z</time>
      </trkpt>
      <trkpt lat="47.28257" lon="-1.6922">
        <ele>-100</ele>
        <time>2012-01-28T15:06:41Z</time>
      </trkpt>
      <trkpt lat="47.28244" lon="-1.69218">
        <ele>-100</ele>
        <time>2012-01-28T15:06:44Z</time>
      </trkpt>
      <trkpt lat="47.28235" lon="-1.69216">
        <ele>-100</ele>
        <time>2012-01-28T15:06:46Z</time>
      </trkpt>
      <trkpt lat="47.28223" lon="-1.69213">
        <ele>-99.5</ele>
        <time>2012-01-28T15:06:50Z</time>
      </trkpt>
      <trkpt lat="47.2821" lon="-1.69211">
        <ele>-99</ele>
        <time>2012-01-28T15:06:53Z</time>
      </trkpt>
      <trkpt lat="47.28199" lon="-1.69205">
        <ele>-99</ele>
        <time>2012-01-28T15:06:56Z</time>
      </trkpt>
      <trkpt lat="47.28193" lon="-1.6919">
        <ele>-99.25</ele>
        <time>2012-01-28T15:07:00Z</time>
      </trkpt>
      <trkpt lat="47.28192" lon="-1.69174">
        <ele>-100</ele>
        <time>2012-01-28T15:07:03Z</time>
      </trkpt>
      <trkpt lat="47.2819" lon="-1.69157">
        <ele>-100.5</ele>
        <time>2012-01-28T15:07:06Z</time>
      </trkpt>
      <trkpt lat="47.28186" lon="-1.69139">
        <ele>-100</ele>
        <time>2012-01-28T15:07:09Z</time>
      </trkpt>
      <trkpt lat="47.28177" lon="-1.69126">
        <ele>-99.5</ele>
        <time>2012-01-28T15:07:13Z</time>
      </trkpt>
      <trkpt lat="47.28168" lon="-1.69117">
        <ele>-99</ele>
        <time>2012-01-28T15:07:16Z</time>
      </trkpt>
      <trkpt lat="47.28157" lon="-1.69108">
        <ele>-98.5</ele>
        <time>2012-01-28T15:07:19Z</time>
      </trkpt>
      <trkpt lat="47.28147" lon="-1.69102">
        <ele>-98</ele>
        <time>2012-01-28T15:07:21Z</time>
      </trkpt>
      <trkpt lat="47.28137" lon="-1.69099">
        <ele>-98</ele>
        <time>2012-01-28T15:07:24Z</time>
      </trkpt>
      <trkpt lat="47.28124" lon="-1.69099">
        <ele>-98</ele>
        <time>2012-01-28T15:07:27Z</time>
      </trkpt>
      <trkpt lat="47.28112" lon="-1.691">
        <ele>-98</ele>
        <time>2012-01-28T15:07:30Z</time>
      </trkpt>
      <trkpt lat="47.28101" lon="-1.69103">
        <ele>-98</ele>
        <time>2012-01-28T15:07:32Z</time>
      </trkpt>
      <trkpt lat="47.2809" lon="-1.69106">
        <ele>-97.5</ele>
        <time>2012-01-28T15:07:35Z</time>
      </trkpt>
      <trkpt lat="47.2808" lon="-1.69108">
        <ele>-97</ele>
        <time>2012-01-28T15:07:37Z</time>
      </trkpt>
      <trkpt lat="47.28071" lon="-1.6911">
        <ele>-97</ele>
        <time>2012-01-28T15:07:39Z</time>
      </trkpt>
      <trkpt lat="47.28061" lon="-1.69111">
        <ele>-97</ele>
        <time>2012-01-28T15:07:41Z</time>
      </trkpt>
      <trkpt lat="47.2805" lon="-1.69112">
        <ele>-96.75</ele>
        <time>2012-01-28T15:07:43Z</time>
      </trkpt>
      <trkpt lat="47.2804" lon="-1.69112">
        <ele>-96.75</ele>
        <time>2012-01-28T15:07:46Z</time>
      </trkpt>
      <trkpt lat="47.28028" lon="-1.69109">
        <ele>-96.75</ele>
        <time>2012-01-28T15:07:49Z</time>
      </trkpt>
      <trkpt lat="47.28015" lon="-1.69102">
        <ele>-96</ele>
        <time>2012-01-28T15:07:52Z</time>
      </trkpt>
      <trkpt lat="47.28004" lon="-1.69098">
        <ele>-95.5</ele>
        <time>2012-01-28T15:07:54Z</time>
      </trkpt>
      <trkpt lat="47.27993" lon="-1.69095">
        <ele>-95.25</ele>
        <time>2012-01-28T15:07:57Z</time>
      </trkpt>
      <trkpt lat="47.27983" lon="-1.69094">
        <ele>-95.25</ele>
        <time>2012-01-28T15:07:59Z</time>
      </trkpt>
      <trkpt lat="47.27974" lon="-1.69094">
        <ele>-95</ele>
        <time>2012-01-28T15:08:01Z</time>
      </trkpt>
      <trkpt lat="47.27962" lon="-1.69095">
        <ele>-94.75</ele>
        <time>2012-01-28T15:08:03Z</time>
      </trkpt>
      <trkpt lat="47.27946" lon="-1.69097">
        <ele>-94.25</ele>
        <time>2012-01-28T15:08:05Z</time>
      </trkpt>
      <trkpt lat="47.27929" lon="-1.69096">
        <ele>-93.5</ele>
        <time>2012-01-28T15:08:07Z</time>
      </trkpt>
      <trkpt lat="47.27915" lon="-1.69092">
        <ele>-92.75</ele>
        <time>2012-01-28T15:08:10Z</time>
      </trkpt>
      <trkpt lat="47.27904" lon="-1.69087">
        <ele>-92.25</ele>
        <time>2012-01-28T15:08:12Z</time>
      </trkpt>
      <trkpt lat="47.27894" lon="-1.6908">
        <ele>-92</ele>
        <time>2012-01-28T15:08:14Z</time>
      </trkpt>
      <trkpt lat="47.27886" lon="-1.69074">
        <ele>-92</ele>
        <time>2012-01-28T15:08:16Z</time>
      </trkpt>
      <trkpt lat="47.27877" lon="-1.69066">
        <ele>-92.25</ele>
        <time>2012-01-28T15:08:18Z</time>
      </trkpt>
      <trkpt lat="47.2787" lon="-1.69058">
        <ele>-92.75</ele>
        <time>2012-01-28T15:08:21Z</time>
      </trkpt>
      <trkpt lat="47.27862" lon="-1.6905">
        <ele>-93</ele>
        <time>2012-01-28T15:08:24Z</time>
      </trkpt>
      <trkpt lat="47.27853" lon="-1.69041">
        <ele>-93.5</ele>
        <time>2012-01-28T15:08:27Z</time>
      </trkpt>
      <trkpt lat="47.27844" lon="-1.69032">
        <ele>-94</ele>
        <time>2012-01-28T15:08:31Z</time>
      </trkpt>
      <trkpt lat="47.27835" lon="-1.69023">
        <ele>-94.75</ele>
        <time>2012-01-28T15:08:35Z</time>
      </trkpt>
      <trkpt lat="47.27827" lon="-1.69016">
        <ele>-94.75</ele>
        <time>2012-01-28T15:08:38Z</time>
      </trkpt>
      <trkpt lat="47.27818" lon="-1.69008">
        <ele>-95.5</ele>
        <time>2012-01-28T15:08:42Z</time>
      </trkpt>
      <trkpt lat="47.27811" lon="-1.69">
        <ele>-97.5</ele>
        <time>2012-01-28T15:08:46Z</time>
      </trkpt>
      <trkpt lat="47.27802" lon="-1.68991">
        <ele>-98</ele>
        <time>2012-01-28T15:08:50Z</time>
      </trkpt>
      <trkpt lat="47.27793" lon="-1.68983">
        <ele>-98.75</ele>
        <time>2012-01-28T15:08:54Z</time>
      </trkpt>
      <trkpt lat="47.27784" lon="-1.68976">
        <ele>-101</ele>
        <time>2012-01-28T15:08:59Z</time>
      </trkpt>
      <trkpt lat="47.27775" lon="-1.68969">
        <ele>-102.25</ele>
        <time>2012-01-28T15:09:03Z</time>
      </trkpt>
      <trkpt lat="47.27766" lon="-1.68963">
        <ele>-103</ele>
        <time>2012-01-28T15:09:08Z</time>
      </trkpt>
      <trkpt lat="47.27755" lon="-1.68955">
        <ele>-103.75</ele>
        <time>2012-01-28T15:09:12Z</time>
      </trkpt>
      <trkpt lat="47.27746" lon="-1.68948">
        <ele>-104.5</ele>
        <time>2012-01-28T15:09:15Z</time>
      </trkpt>
      <trkpt lat="47.27738" lon="-1.68942">
        <ele>-104.5</ele>
        <time>2012-01-28T15:09:19Z</time>
      </trkpt>
      <trkpt lat="47.27739" lon="-1.68927">
        <ele>-106.25</ele>
        <time>2012-01-28T15:09:25Z</time>
      </trkpt>
      <trkpt lat="47.27746" lon="-1.68915">
        <ele>-106.25</ele>
        <time>2012-01-28T15:09:29Z</time>
      </trkpt>
      <trkpt lat="47.27751" lon="-1.68901">
        <ele>-106.25</ele>
        <time>2012-01-28T15:09:33Z</time>
      </trkpt>
      <trkpt lat="47.27755" lon="-1.68889">
        <ele>-106</ele>
        <time>2012-01-28T15:09:36Z</time>
      </trkpt>
      <trkpt lat="47.27761" lon="-1.68876">
        <ele>-106.25</ele>
        <time>2012-01-28T15:09:40Z</time>
      </trkpt>
      <trkpt lat="47.27771" lon="-1.68867">
        <ele>-106.25</ele>
        <time>2012-01-28T15:09:43Z</time>
      </trkpt>
      <trkpt lat="47.27782" lon="-1.68858">
        <ele>-107</ele>
        <time>2012-01-28T15:09:46Z</time>
      </trkpt>
      <trkpt lat="47.27789" lon="-1.68846">
        <ele>-107</ele>
        <time>2012-01-28T15:09:48Z</time>
      </trkpt>
      <trkpt lat="47.27793" lon="-1.68832">
        <ele>-107</ele>
        <time>2012-01-28T15:09:51Z</time>
      </trkpt>
      <trkpt lat="47.27793" lon="-1.68816">
        <ele>-106.75</ele>
        <time>2012-01-28T15:09:54Z</time>
      </trkpt>
      <trkpt lat="47.27786" lon="-1.68807">
        <ele>-113.25</ele>
        <time>2012-01-28T15:10:01Z</time>
      </trkpt>
      <trkpt lat="47.27783" lon="-1.68794">
        <ele>-122</ele>
        <time>2012-01-28T15:10:36Z</time>
      </trkpt>
      <trkpt lat="47.27774" lon="-1.68786">
        <ele>-118</ele>
        <time>2012-01-28T15:10:59Z</time>
      </trkpt>
      <trkpt lat="47.27764" lon="-1.68783">
        <ele>-116.5</ele>
        <time>2012-01-28T15:11:07Z</time>
      </trkpt>
      <trkpt lat="47.27753" lon="-1.6878">
        <ele>-114.5</ele>
        <time>2012-01-28T15:11:12Z</time>
      </trkpt>
      <trkpt lat="47.27744" lon="-1.68776">
        <ele>-113</ele>
        <time>2012-01-28T15:11:16Z</time>
      </trkpt>
      <trkpt lat="47.27734" lon="-1.68775">
        <ele>-111</ele>
        <time>2012-01-28T15:11:20Z</time>
      </trkpt>
      <trkpt lat="47.27724" lon="-1.68774">
        <ele>-110.75</ele>
        <time>2012-01-28T15:11:24Z</time>
      </trkpt>
      <trkpt lat="47.27713" lon="-1.68777">
        <ele>-111</ele>
        <time>2012-01-28T15:11:28Z</time>
      </trkpt>
      <trkpt lat="47.27704" lon="-1.68781">
        <ele>-110.25</ele>
        <time>2012-01-28T15:11:31Z</time>
      </trkpt>
      <trkpt lat="47.27694" lon="-1.68786">
        <ele>-108.25</ele>
        <time>2012-01-28T15:11:36Z</time>
      </trkpt>
      <trkpt lat="47.27683" lon="-1.68792">
        <ele>-107.75</ele>
        <time>2012-01-28T15:11:40Z</time>
      </trkpt>
      <trkpt lat="47.27674" lon="-1.688">
        <ele>-107.25</ele>
        <time>2012-01-28T15:11:44Z</time>
      </trkpt>
      <trkpt lat="47.27665" lon="-1.68807">
        <ele>-108.75</ele>
        <time>2012-01-28T15:11:48Z</time>
      </trkpt>
      <trkpt lat="47.27656" lon="-1.68813">
        <ele>-107.25</ele>
        <time>2012-01-28T15:11:53Z</time>
      </trkpt>
      <trkpt lat="47.27646" lon="-1.68808">
        <ele>-105.75</ele>
        <time>2012-01-28T15:11:58Z</time>
      </trkpt>
      <trkpt lat="47.27638" lon="-1.68802">
        <ele>-105</ele>
        <time>2012-01-28T15:12:02Z</time>
      </trkpt>
      <trkpt lat="47.27628" lon="-1.68795">
        <ele>-104.5</ele>
        <time>2012-01-28T15:12:07Z</time>
      </trkpt>
      <trkpt lat="47.27618" lon="-1.68794">
        <ele>-105</ele>
        <time>2012-01-28T15:12:13Z</time>
      </trkpt>
      <trkpt lat="47.27607" lon="-1.68793">
        <ele>-103.75</ele>
        <time>2012-01-28T15:12:18Z</time>
      </trkpt>
      <trkpt lat="47.27598" lon="-1.68792">
        <ele>-105</ele>
        <time>2012-01-28T15:12:24Z</time>
      </trkpt>
      <trkpt lat="47.27589" lon="-1.68793">
        <ele>-106</ele>
        <time>2012-01-28T15:12:48Z</time>
      </trkpt>
      <trkpt lat="47.27581" lon="-1.68785">
        <ele>-111</ele>
        <time>2012-01-28T15:13:11Z</time>
      </trkpt>
      <trkpt lat="47.27572" lon="-1.68783">
        <ele>-112</ele>
        <time>2012-01-28T15:13:19Z</time>
      </trkpt>
      <trkpt lat="47.27564" lon="-1.68792">
        <ele>-109.75</ele>
        <time>2012-01-28T15:13:46Z</time>
      </trkpt>
      <trkpt lat="47.27559" lon="-1.68804">
        <ele>-112</ele>
        <time>2012-01-28T15:13:57Z</time>
      </trkpt>
      <trkpt lat="47.2755" lon="-1.68812">
        <ele>-112.75</ele>
        <time>2012-01-28T15:14:04Z</time>
      </trkpt>
      <trkpt lat="47.27542" lon="-1.68819">
        <ele>-113</ele>
        <time>2012-01-28T15:14:08Z</time>
      </trkpt>
      <trkpt lat="47.27532" lon="-1.68825">
        <ele>-112</ele>
        <time>2012-01-28T15:14:15Z</time>
      </trkpt>
      <trkpt lat="47.27522" lon="-1.68825">
        <ele>-109</ele>
        <time>2012-01-28T15:14:24Z</time>
      </trkpt>
      <trkpt lat="47.27512" lon="-1.68825">
        <ele>-106.5</ele>
        <time>2012-01-28T15:14:30Z</time>
      </trkpt>
      <trkpt lat="47.27503" lon="-1.68821">
        <ele>-105.5</ele>
        <time>2012-01-28T15:14:34Z</time>
      </trkpt>
      <trkpt lat="47.27492" lon="-1.68816">
        <ele>-105</ele>
        <time>2012-01-28T15:14:37Z</time>
      </trkpt>
      <trkpt lat="47.27482" lon="-1.68812">
        <ele>-105</ele>
        <time>2012-01-28T15:14:40Z</time>
      </trkpt>
      <trkpt lat="47.2747" lon="-1.68806">
        <ele>-104.25</ele>
        <time>2012-01-28T15:14:43Z</time>
      </trkpt>
      <trkpt lat="47.27461" lon="-1.68801">
        <ele>-104</ele>
        <time>2012-01-28T15:14:46Z</time>
      </trkpt>
      <trkpt lat="47.2745" lon="-1.68795">
        <ele>-104</ele>
        <time>2012-01-28T15:14:49Z</time>
      </trkpt>
      <trkpt lat="47.27438" lon="-1.68788">
        <ele>-103.75</ele>
        <time>2012-01-28T15:14:53Z</time>
      </trkpt>
      <trkpt lat="47.27428" lon="-1.68783">
        <ele>-103.25</ele>
        <time>2012-01-28T15:14:56Z</time>
      </trkpt>
      <trkpt lat="47.27418" lon="-1.68786">
        <ele>-103</ele>
        <time>2012-01-28T15:14:59Z</time>
      </trkpt>
      <trkpt lat="47.27409" lon="-1.68795">
        <ele>-103.25</ele>
        <time>2012-01-28T15:15:03Z</time>
      </trkpt>
      <trkpt lat="47.27401" lon="-1.68805">
        <ele>-104</ele>
        <time>2012-01-28T15:15:06Z</time>
      </trkpt>
      <trkpt lat="47.27392" lon="-1.68815">
        <ele>-104.75</ele>
        <time>2012-01-28T15:15:11Z</time>
      </trkpt>
      <trkpt lat="47.27384" lon="-1.68825">
        <ele>-106</ele>
        <time>2012-01-28T15:15:17Z</time>
      </trkpt>
      <trkpt lat="47.27376" lon="-1.68835">
        <ele>-106</ele>
        <time>2012-01-28T15:15:21Z</time>
      </trkpt>
      <trkpt lat="47.27369" lon="-1.68845">
        <ele>-106.75</ele>
        <time>2012-01-28T15:15:24Z</time>
      </trkpt>
      <trkpt lat="47.27362" lon="-1.68855">
        <ele>-107</ele>
        <time>2012-01-28T15:15:28Z</time>
      </trkpt>
      <trkpt lat="47.27355" lon="-1.68865">
        <ele>-107.75</ele>
        <time>2012-01-28T15:15:31Z</time>
      </trkpt>
      <trkpt lat="47.27347" lon="-1.68876">
        <ele>-108</ele>
        <time>2012-01-28T15:15:36Z</time>
      </trkpt>
      <trkpt lat="47.27338" lon="-1.68887">
        <ele>-108</ele>
        <time>2012-01-28T15:15:40Z</time>
      </trkpt>
      <trkpt lat="47.2733" lon="-1.68899">
        <ele>-108</ele>
        <time>2012-01-28T15:15:44Z</time>
      </trkpt>
      <trkpt lat="47.27323" lon="-1.68909">
        <ele>-108.25</ele>
        <time>2012-01-28T15:15:47Z</time>
      </trkpt>
      <trkpt lat="47.27315" lon="-1.6892">
        <ele>-109</ele>
        <time>2012-01-28T15:15:51Z</time>
      </trkpt>
      <trkpt lat="47.27308" lon="-1.6893">
        <ele>-109</ele>
        <time>2012-01-28T15:15:55Z</time>
      </trkpt>
      <trkpt lat="47.27301" lon="-1.6894">
        <ele>-109.5</ele>
        <time>2012-01-28T15:16:00Z</time>
      </trkpt>
      <trkpt lat="47.2729" lon="-1.68941">
        <ele>-114</ele>
        <time>2012-01-28T15:17:29Z</time>
      </trkpt>
      <trkpt lat="47.27278" lon="-1.68935">
        <ele>-114</ele>
        <time>2012-01-28T15:17:32Z</time>
      </trkpt>
      <trkpt lat="47.27269" lon="-1.6893">
        <ele>-114</ele>
        <time>2012-01-28T15:17:35Z</time>
      </trkpt>
      <trkpt lat="47.27257" lon="-1.68923">
        <ele>-113.5</ele>
        <time>2012-01-28T15:17:38Z</time>
      </trkpt>
      <trkpt lat="47.27247" lon="-1.68917">
        <ele>-113</ele>
        <time>2012-01-28T15:17:41Z</time>
      </trkpt>
      <trkpt lat="47.27236" lon="-1.6891">
        <ele>-113</ele>
        <time>2012-01-28T15:17:44Z</time>
      </trkpt>
      <trkpt lat="47.27226" lon="-1.68904">
        <ele>-112.25</ele>
        <time>2012-01-28T15:17:48Z</time>
      </trkpt>
      <trkpt lat="47.27217" lon="-1.68899">
        <ele>-112</ele>
        <time>2012-01-28T15:17:51Z</time>
      </trkpt>
      <trkpt lat="47.27207" lon="-1.68893">
        <ele>-112</ele>
        <time>2012-01-28T15:17:54Z</time>
      </trkpt>
      <trkpt lat="47.27197" lon="-1.68888">
        <ele>-112</ele>
        <time>2012-01-28T15:17:58Z</time>
      </trkpt>
      <trkpt lat="47.27187" lon="-1.68882">
        <ele>-112</ele>
        <time>2012-01-28T15:18:01Z</time>
      </trkpt>
      <trkpt lat="47.27177" lon="-1.68876">
        <ele>-112</ele>
        <time>2012-01-28T15:18:04Z</time>
      </trkpt>
      <trkpt lat="47.27168" lon="-1.68873">
        <ele>-111.5</ele>
        <time>2012-01-28T15:18:06Z</time>
      </trkpt>
      <trkpt lat="47.27159" lon="-1.68871">
        <ele>-111.5</ele>
        <time>2012-01-28T15:18:09Z</time>
      </trkpt>
      <trkpt lat="47.27148" lon="-1.6887">
        <ele>-112</ele>
        <time>2012-01-28T15:18:12Z</time>
      </trkpt>
      <trkpt lat="47.27138" lon="-1.6887">
        <ele>-112</ele>
        <time>2012-01-28T15:18:15Z</time>
      </trkpt>
      <trkpt lat="47.27125" lon="-1.6887">
        <ele>-112</ele>
        <time>2012-01-28T15:18:19Z</time>
      </trkpt>
      <trkpt lat="47.27115" lon="-1.6887">
        <ele>-112</ele>
        <time>2012-01-28T15:18:22Z</time>
      </trkpt>
      <trkpt lat="47.27104" lon="-1.68872">
        <ele>-112</ele>
        <time>2012-01-28T15:18:26Z</time>
      </trkpt>
      <trkpt lat="47.27095" lon="-1.68878">
        <ele>-112.75</ele>
        <time>2012-01-28T15:18:30Z</time>
      </trkpt>
      <trkpt lat="47.27086" lon="-1.68874">
        <ele>-113.25</ele>
        <time>2012-01-28T15:18:34Z</time>
      </trkpt>
      <trkpt lat="47.27084" lon="-1.68859">
        <ele>-114.25</ele>
        <time>2012-01-28T15:18:37Z</time>
      </trkpt>
      <trkpt lat="47.27084" lon="-1.68844">
        <ele>-114.75</ele>
        <time>2012-01-28T15:18:40Z</time>
      </trkpt>
      <trkpt lat="47.27083" lon="-1.6883">
        <ele>-115</ele>
        <time>2012-01-28T15:18:42Z</time>
      </trkpt>
      <trkpt lat="47.27081" lon="-1.68812">
        <ele>-115.25</ele>
        <time>2012-01-28T15:18:45Z</time>
      </trkpt>
      <trkpt lat="47.27079" lon="-1.68792">
        <ele>-115.5</ele>
        <time>2012-01-28T15:18:48Z</time>
      </trkpt>
      <trkpt lat="47.27075" lon="-1.68778">
        <ele>-115</ele>
        <time>2012-01-28T15:18:51Z</time>
      </trkpt>
      <trkpt lat="47.27071" lon="-1.68766">
        <ele>-115</ele>
        <time>2012-01-28T15:18:53Z</time>
      </trkpt>
      <trkpt lat="47.27062" lon="-1.68752">
        <ele>-115</ele>
        <time>2012-01-28T15:18:56Z</time>
      </trkpt>
      <trkpt lat="47.27055" lon="-1.68743">
        <ele>-114.75</ele>
        <time>2012-01-28T15:18:58Z</time>
      </trkpt>
      <trkpt lat="47.27048" lon="-1.68734">
        <ele>-114.25</ele>
        <time>2012-01-28T15:19:01Z</time>
      </trkpt>
      <trkpt lat="47.27039" lon="-1.68726">
        <ele>-114</ele>
        <time>2012-01-28T15:19:03Z</time>
      </trkpt>
      <trkpt lat="47.2703" lon="-1.68719">
        <ele>-114</ele>
        <time>2012-01-28T15:19:05Z</time>
      </trkpt>
      <trkpt lat="47.27019" lon="-1.68713">
        <ele>-114</ele>
        <time>2012-01-28T15:19:07Z</time>
      </trkpt>
      <trkpt lat="47.27009" lon="-1.68707">
        <ele>-113.5</ele>
        <time>2012-01-28T15:19:10Z</time>
      </trkpt>
      <trkpt lat="47.26996" lon="-1.68702">
        <ele>-112.75</ele>
        <time>2012-01-28T15:19:13Z</time>
      </trkpt>
      <trkpt lat="47.26984" lon="-1.68696">
        <ele>-112</ele>
        <time>2012-01-28T15:19:16Z</time>
      </trkpt>
      <trkpt lat="47.26974" lon="-1.68692">
        <ele>-111.75</ele>
        <time>2012-01-28T15:19:18Z</time>
      </trkpt>
      <trkpt lat="47.26964" lon="-1.68687">
        <ele>-111.25</ele>
        <time>2012-01-28T15:19:21Z</time>
      </trkpt>
      <trkpt lat="47.26951" lon="-1.68681">
        <ele>-111</ele>
        <time>2012-01-28T15:19:24Z</time>
      </trkpt>
      <trkpt lat="47.26943" lon="-1.68677">
        <ele>-111</ele>
        <time>2012-01-28T15:19:26Z</time>
      </trkpt>
      <trkpt lat="47.26933" lon="-1.68672">
        <ele>-110.75</ele>
        <time>2012-01-28T15:19:28Z</time>
      </trkpt>
      <trkpt lat="47.26923" lon="-1.68667">
        <ele>-110.25</ele>
        <time>2012-01-28T15:19:31Z</time>
      </trkpt>
      <trkpt lat="47.26914" lon="-1.68662">
        <ele>-110</ele>
        <time>2012-01-28T15:19:33Z</time>
      </trkpt>
      <trkpt lat="47.26902" lon="-1.68654">
        <ele>-110</ele>
        <time>2012-01-28T15:19:36Z</time>
      </trkpt>
      <trkpt lat="47.26891" lon="-1.68643">
        <ele>-110.75</ele>
        <time>2012-01-28T15:19:39Z</time>
      </trkpt>
      <trkpt lat="47.26883" lon="-1.68633">
        <ele>-111.5</ele>
        <time>2012-01-28T15:19:41Z</time>
      </trkpt>
      <trkpt lat="47.26874" lon="-1.6862">
        <ele>-112</ele>
        <time>2012-01-28T15:19:45Z</time>
      </trkpt>
      <trkpt lat="47.26865" lon="-1.68609">
        <ele>-112</ele>
        <time>2012-01-28T15:19:48Z</time>
      </trkpt>
      <trkpt lat="47.26856" lon="-1.68597">
        <ele>-112</ele>
        <time>2012-01-28T15:19:51Z</time>
      </trkpt>
      <trkpt lat="47.26849" lon="-1.68588">
        <ele>-112</ele>
        <time>2012-01-28T15:19:53Z</time>
      </trkpt>
      <trkpt lat="47.26841" lon="-1.68578">
        <ele>-112</ele>
        <time>2012-01-28T15:19:56Z</time>
      </trkpt>
      <trkpt lat="47.26832" lon="-1.68566">
        <ele>-112</ele>
        <time>2012-01-28T15:19:59Z</time>
      </trkpt>
      <trkpt lat="47.26824" lon="-1.68555">
        <ele>-112.75</ele>
        <time>2012-01-28T15:20:02Z</time>
      </trkpt>
      <trkpt lat="47.26817" lon="-1.68546">
        <ele>-113.5</ele>
        <time>2012-01-28T15:20:04Z</time>
      </trkpt>
      <trkpt lat="47.26811" lon="-1.68537">
        <ele>-114.25</ele>
        <time>2012-01-28T15:20:07Z</time>
      </trkpt>
      <trkpt lat="47.26803" lon="-1.68525">
        <ele>-115</ele>
        <time>2012-01-28T15:20:10Z</time>
      </trkpt>
      <trkpt lat="47.26796" lon="-1.68514">
        <ele>-115</ele>
        <time>2012-01-28T15:20:13Z</time>
      </trkpt>
      <trkpt lat="47.26787" lon="-1.68501">
        <ele>-115</ele>
        <time>2012-01-28T15:20:16Z</time>
      </trkpt>
      <trkpt lat="47.2678" lon="-1.68491">
        <ele>-115</ele>
        <time>2012-01-28T15:20:19Z</time>
      </trkpt>
      <trkpt lat="47.26771" lon="-1.68477">
        <ele>-115</ele>
        <time>2012-01-28T15:20:22Z</time>
      </trkpt>
      <trkpt lat="47.26764" lon="-1.68464">
        <ele>-115</ele>
        <time>2012-01-28T15:20:25Z</time>
      </trkpt>
      <trkpt lat="47.26756" lon="-1.6845">
        <ele>-115</ele>
        <time>2012-01-28T15:20:28Z</time>
      </trkpt>
      <trkpt lat="47.2675" lon="-1.68438">
        <ele>-115</ele>
        <time>2012-01-28T15:20:30Z</time>
      </trkpt>
      <trkpt lat="47.26743" lon="-1.68423">
        <ele>-115</ele>
        <time>2012-01-28T15:20:34Z</time>
      </trkpt>
      <trkpt lat="47.26737" lon="-1.68409">
        <ele>-115</ele>
        <time>2012-01-28T15:20:37Z</time>
      </trkpt>
      <trkpt lat="47.26729" lon="-1.68393">
        <ele>-115.5</ele>
        <time>2012-01-28T15:20:40Z</time>
      </trkpt>
      <trkpt lat="47.26724" lon="-1.68381">
        <ele>-115.5</ele>
        <time>2012-01-28T15:20:43Z</time>
      </trkpt>
      <trkpt lat="47.26718" lon="-1.68368">
        <ele>-115</ele>
        <time>2012-01-28T15:20:46Z</time>
      </trkpt>
      <trkpt lat="47.26712" lon="-1.68354">
        <ele>-115</ele>
        <time>2012-01-28T15:20:49Z</time>
      </trkpt>
      <trkpt lat="47.26706" lon="-1.68343">
        <ele>-115</ele>
        <time>2012-01-28T15:20:51Z</time>
      </trkpt>
      <trkpt lat="47.267" lon="-1.68329">
        <ele>-115.5</ele>
        <time>2012-01-28T15:20:54Z</time>
      </trkpt>
      <trkpt lat="47.26695" lon="-1.68316">
        <ele>-116</ele>
        <time>2012-01-28T15:20:56Z</time>
      </trkpt>
      <trkpt lat="47.26691" lon="-1.68303">
        <ele>-116</ele>
        <time>2012-01-28T15:20:58Z</time>
      </trkpt>
      <trkpt lat="47.26688" lon="-1.68291">
        <ele>-116</ele>
        <time>2012-01-28T15:21:01Z</time>
      </trkpt>
      <trkpt lat="47.26683" lon="-1.68276">
        <ele>-115.75</ele>
        <time>2012-01-28T15:21:03Z</time>
      </trkpt>
      <trkpt lat="47.2668" lon="-1.68261">
        <ele>-115.25</ele>
        <time>2012-01-28T15:21:05Z</time>
      </trkpt>
      <trkpt lat="47.26675" lon="-1.68244">
        <ele>-115.5</ele>
        <time>2012-01-28T15:21:08Z</time>
      </trkpt>
      <trkpt lat="47.26669" lon="-1.68226">
        <ele>-116</ele>
        <time>2012-01-28T15:21:11Z</time>
      </trkpt>
      <trkpt lat="47.26665" lon="-1.68212">
        <ele>-116</ele>
        <time>2012-01-28T15:21:14Z</time>
      </trkpt>
      <trkpt lat="47.2666" lon="-1.68196">
        <ele>-116</ele>
        <time>2012-01-28T15:21:17Z</time>
      </trkpt>
      <trkpt lat="47.26654" lon="-1.68178">
        <ele>-116</ele>
        <time>2012-01-28T15:21:20Z</time>
      </trkpt>
      <trkpt lat="47.26649" lon="-1.68164">
        <ele>-116</ele>
        <time>2012-01-28T15:21:22Z</time>
      </trkpt>
      <trkpt lat="47.26645" lon="-1.6815">
        <ele>-116</ele>
        <time>2012-01-28T15:21:25Z</time>
      </trkpt>
      <trkpt lat="47.2664" lon="-1.68138">
        <ele>-115.5</ele>
        <time>2012-01-28T15:21:27Z</time>
      </trkpt>
      <trkpt lat="47.26633" lon="-1.68122">
        <ele>-115.25</ele>
        <time>2012-01-28T15:21:30Z</time>
      </trkpt>
      <trkpt lat="47.26626" lon="-1.68106">
        <ele>-116</ele>
        <time>2012-01-28T15:21:33Z</time>
      </trkpt>
      <trkpt lat="47.26621" lon="-1.68093">
        <ele>-115.75</ele>
        <time>2012-01-28T15:21:35Z</time>
      </trkpt>
      <trkpt lat="47.26616" lon="-1.68081">
        <ele>-115.25</ele>
        <time>2012-01-28T15:21:38Z</time>
      </trkpt>
      <trkpt lat="47.2661" lon="-1.68065">
        <ele>-115</ele>
        <time>2012-01-28T15:21:41Z</time>
      </trkpt>
      <trkpt lat="47.26604" lon="-1.68048">
        <ele>-115</ele>
        <time>2012-01-28T15:21:44Z</time>
      </trkpt>
      <trkpt lat="47.26599" lon="-1.68033">
        <ele>-115.25</ele>
        <time>2012-01-28T15:21:46Z</time>
      </trkpt>
      <trkpt lat="47.26594" lon="-1.68019">
        <ele>-115.75</ele>
        <time>2012-01-28T15:21:49Z</time>
      </trkpt>
      <trkpt lat="47.26588" lon="-1.68001">
        <ele>-116</ele>
        <time>2012-01-28T15:21:52Z</time>
      </trkpt>
      <trkpt lat="47.26582" lon="-1.67984">
        <ele>-116</ele>
        <time>2012-01-28T15:21:55Z</time>
      </trkpt>
      <trkpt lat="47.26578" lon="-1.6797">
        <ele>-116.5</ele>
        <time>2012-01-28T15:21:57Z</time>
      </trkpt>
      <trkpt lat="47.26574" lon="-1.67957">
        <ele>-117</ele>
        <time>2012-01-28T15:22:00Z</time>
      </trkpt>
      <trkpt lat="47.26568" lon="-1.67943">
        <ele>-116.75</ele>
        <time>2012-01-28T15:22:03Z</time>
      </trkpt>
      <trkpt lat="47.2656" lon="-1.67935">
        <ele>-116</ele>
        <time>2012-01-28T15:22:07Z</time>
      </trkpt>
      <trkpt lat="47.26557" lon="-1.67923">
        <ele>-116.5</ele>
        <time>2012-01-28T15:22:26Z</time>
      </trkpt>
      <trkpt lat="47.26556" lon="-1.67905">
        <ele>-117</ele>
        <time>2012-01-28T15:22:30Z</time>
      </trkpt>
      <trkpt lat="47.26553" lon="-1.67893">
        <ele>-117</ele>
        <time>2012-01-28T15:22:33Z</time>
      </trkpt>
      <trkpt lat="47.26549" lon="-1.6788">
        <ele>-117</ele>
        <time>2012-01-28T15:22:35Z</time>
      </trkpt>
      <trkpt lat="47.26543" lon="-1.67862">
        <ele>-117</ele>
        <time>2012-01-28T15:22:38Z</time>
      </trkpt>
      <trkpt lat="47.26538" lon="-1.67848">
        <ele>-117</ele>
        <time>2012-01-28T15:22:41Z</time>
      </trkpt>
      <trkpt lat="47.26533" lon="-1.67836">
        <ele>-116.5</ele>
        <time>2012-01-28T15:22:43Z</time>
      </trkpt>
      <trkpt lat="47.26529" lon="-1.67823">
        <ele>-116</ele>
        <time>2012-01-28T15:22:46Z</time>
      </trkpt>
      <trkpt lat="47.26524" lon="-1.67809">
        <ele>-116</ele>
        <time>2012-01-28T15:22:49Z</time>
      </trkpt>
      <trkpt lat="47.26521" lon="-1.67795">
        <ele>-115.5</ele>
        <time>2012-01-28T15:22:52Z</time>
      </trkpt>
      <trkpt lat="47.26518" lon="-1.67781">
        <ele>-115</ele>
        <time>2012-01-28T15:22:54Z</time>
      </trkpt>
      <trkpt lat="47.26515" lon="-1.67767">
        <ele>-115</ele>
        <time>2012-01-28T15:22:56Z</time>
      </trkpt>
      <trkpt lat="47.26512" lon="-1.67754">
        <ele>-115</ele>
        <time>2012-01-28T15:22:58Z</time>
      </trkpt>
      <trkpt lat="47.2651" lon="-1.67741">
        <ele>-114.5</ele>
        <time>2012-01-28T15:23:01Z</time>
      </trkpt>
      <trkpt lat="47.26506" lon="-1.67725">
        <ele>-114</ele>
        <time>2012-01-28T15:23:03Z</time>
      </trkpt>
      <trkpt lat="47.26503" lon="-1.67709">
        <ele>-114</ele>
        <time>2012-01-28T15:23:05Z</time>
      </trkpt>
      <trkpt lat="47.26499" lon="-1.67693">
        <ele>-114</ele>
        <time>2012-01-28T15:23:07Z</time>
      </trkpt>
      <trkpt lat="47.26496" lon="-1.67675">
        <ele>-114</ele>
        <time>2012-01-28T15:23:10Z</time>
      </trkpt>
      <trkpt lat="47.26493" lon="-1.67661">
        <ele>-114</ele>
        <time>2012-01-28T15:23:12Z</time>
      </trkpt>
      <trkpt lat="47.2649" lon="-1.67647">
        <ele>-114</ele>
        <time>2012-01-28T15:23:14Z</time>
      </trkpt>
      <trkpt lat="47.26487" lon="-1.67633">
        <ele>-114</ele>
        <time>2012-01-28T15:23:16Z</time>
      </trkpt>
      <trkpt lat="47.26484" lon="-1.67617">
        <ele>-113.5</ele>
        <time>2012-01-28T15:23:18Z</time>
      </trkpt>
      <trkpt lat="47.26482" lon="-1.67603">
        <ele>-113</ele>
        <time>2012-01-28T15:23:21Z</time>
      </trkpt>
      <trkpt lat="47.26478" lon="-1.67585">
        <ele>-113</ele>
        <time>2012-01-28T15:23:24Z</time>
      </trkpt>
      <trkpt lat="47.26475" lon="-1.67571">
        <ele>-113</ele>
        <time>2012-01-28T15:23:26Z</time>
      </trkpt>
      <trkpt lat="47.26472" lon="-1.67556">
        <ele>-113</ele>
        <time>2012-01-28T15:23:29Z</time>
      </trkpt>
      <trkpt lat="47.26469" lon="-1.67543">
        <ele>-113</ele>
        <time>2012-01-28T15:23:31Z</time>
      </trkpt>
      <trkpt lat="47.26463" lon="-1.67525">
        <ele>-113</ele>
        <time>2012-01-28T15:23:34Z</time>
      </trkpt>
      <trkpt lat="47.26456" lon="-1.67507">
        <ele>-113</ele>
        <time>2012-01-28T15:23:37Z</time>
      </trkpt>
      <trkpt lat="47.2645" lon="-1.67494">
        <ele>-113</ele>
        <time>2012-01-28T15:23:39Z</time>
      </trkpt>
      <trkpt lat="47.26445" lon="-1.67481">
        <ele>-113</ele>
        <time>2012-01-28T15:23:42Z</time>
      </trkpt>
      <trkpt lat="47.26438" lon="-1.67465">
        <ele>-113</ele>
        <time>2012-01-28T15:23:45Z</time>
      </trkpt>
      <trkpt lat="47.26431" lon="-1.67449">
        <ele>-113</ele>
        <time>2012-01-28T15:23:48Z</time>
      </trkpt>
      <trkpt lat="47.26426" lon="-1.67435">
        <ele>-113</ele>
        <time>2012-01-28T15:23:51Z</time>
      </trkpt>
      <trkpt lat="47.2642" lon="-1.67421">
        <ele>-113</ele>
        <time>2012-01-28T15:23:55Z</time>
      </trkpt>
      <trkpt lat="47.26414" lon="-1.67409">
        <ele>-113</ele>
        <time>2012-01-28T15:24:06Z</time>
      </trkpt>
      <trkpt lat="47.26416" lon="-1.67396">
        <ele>-113.25</ele>
        <time>2012-01-28T15:24:09Z</time>
      </trkpt>
      <trkpt lat="47.26421" lon="-1.67381">
        <ele>-114</ele>
        <time>2012-01-28T15:24:12Z</time>
      </trkpt>
      <trkpt lat="47.26426" lon="-1.67364">
        <ele>-114</ele>
        <time>2012-01-28T15:24:15Z</time>
      </trkpt>
      <trkpt lat="47.26432" lon="-1.67349">
        <ele>-114</ele>
        <time>2012-01-28T15:24:19Z</time>
      </trkpt>
      <trkpt lat="47.26433" lon="-1.67335">
        <ele>-114</ele>
        <time>2012-01-28T15:24:22Z</time>
      </trkpt>
      <trkpt lat="47.26427" lon="-1.67322">
        <ele>-113.75</ele>
        <time>2012-01-28T15:24:25Z</time>
      </trkpt>
      <trkpt lat="47.26419" lon="-1.67316">
        <ele>-113.25</ele>
        <time>2012-01-28T15:24:27Z</time>
      </trkpt>
      <trkpt lat="47.26409" lon="-1.67311">
        <ele>-113</ele>
        <time>2012-01-28T15:24:30Z</time>
      </trkpt>
      <trkpt lat="47.26399" lon="-1.67307">
        <ele>-112.25</ele>
        <time>2012-01-28T15:24:33Z</time>
      </trkpt>
      <trkpt lat="47.26387" lon="-1.67304">
        <ele>-111.75</ele>
        <time>2012-01-28T15:24:36Z</time>
      </trkpt>
      <trkpt lat="47.26377" lon="-1.673">
        <ele>-111.25</ele>
        <time>2012-01-28T15:24:39Z</time>
      </trkpt>
      <trkpt lat="47.26368" lon="-1.67295">
        <ele>-111</ele>
        <time>2012-01-28T15:24:41Z</time>
      </trkpt>
      <trkpt lat="47.26359" lon="-1.67284">
        <ele>-111.25</ele>
        <time>2012-01-28T15:24:44Z</time>
      </trkpt>
      <trkpt lat="47.26354" lon="-1.67267">
        <ele>-112.75</ele>
        <time>2012-01-28T15:24:48Z</time>
      </trkpt>
      <trkpt lat="47.26352" lon="-1.67252">
        <ele>-113.75</ele>
        <time>2012-01-28T15:24:50Z</time>
      </trkpt>
      <trkpt lat="47.26346" lon="-1.67238">
        <ele>-114</ele>
        <time>2012-01-28T15:24:52Z</time>
      </trkpt>
      <trkpt lat="47.26337" lon="-1.67233">
        <ele>-114.25</ele>
        <time>2012-01-28T15:24:54Z</time>
      </trkpt>
      <trkpt lat="47.26326" lon="-1.67234">
        <ele>-114.75</ele>
        <time>2012-01-28T15:24:56Z</time>
      </trkpt>
      <trkpt lat="47.26316" lon="-1.67237">
        <ele>-115</ele>
        <time>2012-01-28T15:24:59Z</time>
      </trkpt>
      <trkpt lat="47.26304" lon="-1.67241">
        <ele>-114.75</ele>
        <time>2012-01-28T15:25:02Z</time>
      </trkpt>
      <trkpt lat="47.26295" lon="-1.67245">
        <ele>-114.25</ele>
        <time>2012-01-28T15:25:04Z</time>
      </trkpt>
      <trkpt lat="47.26284" lon="-1.67248">
        <ele>-114</ele>
        <time>2012-01-28T15:25:07Z</time>
      </trkpt>
      <trkpt lat="47.26275" lon="-1.67251">
        <ele>-113.75</ele>
        <time>2012-01-28T15:25:09Z</time>
      </trkpt>
      <trkpt lat="47.26265" lon="-1.67255">
        <ele>-113</ele>
        <time>2012-01-28T15:25:12Z</time>
      </trkpt>
      <trkpt lat="47.26256" lon="-1.67257">
        <ele>-113</ele>
        <time>2012-01-28T15:25:20Z</time>
      </trkpt>
      <trkpt lat="47.26247" lon="-1.6726">
        <ele>-114</ele>
        <time>2012-01-28T15:25:26Z</time>
      </trkpt>
      <trkpt lat="47.26237" lon="-1.67255">
        <ele>-114</ele>
        <time>2012-01-28T15:25:29Z</time>
      </trkpt>
      <trkpt lat="47.26232" lon="-1.6724">
        <ele>-114.25</ele>
        <time>2012-01-28T15:25:33Z</time>
      </trkpt>
      <trkpt lat="47.26228" lon="-1.67223">
        <ele>-115</ele>
        <time>2012-01-28T15:25:36Z</time>
      </trkpt>
      <trkpt lat="47.26226" lon="-1.6721">
        <ele>-116</ele>
        <time>2012-01-28T15:25:38Z</time>
      </trkpt>
      <trkpt lat="47.26224" lon="-1.67194">
        <ele>-117.5</ele>
        <time>2012-01-28T15:25:41Z</time>
      </trkpt>
      <trkpt lat="47.26222" lon="-1.67181">
        <ele>-118.25</ele>
        <time>2012-01-28T15:25:43Z</time>
      </trkpt>
      <trkpt lat="47.26219" lon="-1.67164">
        <ele>-119.75</ele>
        <time>2012-01-28T15:25:46Z</time>
      </trkpt>
      <trkpt lat="47.26216" lon="-1.67145">
        <ele>-120.75</ele>
        <time>2012-01-28T15:25:49Z</time>
      </trkpt>
      <trkpt lat="47.26213" lon="-1.67131">
        <ele>-121.25</ele>
        <time>2012-01-28T15:25:52Z</time>
      </trkpt>
      <trkpt lat="47.26209" lon="-1.67113">
        <ele>-122</ele>
        <time>2012-01-28T15:25:55Z</time>
      </trkpt>
      <trkpt lat="47.26206" lon="-1.67097">
        <ele>-121.5</ele>
        <time>2012-01-28T15:25:58Z</time>
      </trkpt>
      <trkpt lat="47.26201" lon="-1.6708">
        <ele>-120.75</ele>
        <time>2012-01-28T15:26:02Z</time>
      </trkpt>
      <trkpt lat="47.26197" lon="-1.67064">
        <ele>-119.75</ele>
        <time>2012-01-28T15:26:04Z</time>
      </trkpt>
      <trkpt lat="47.26196" lon="-1.67049">
        <ele>-119</ele>
        <time>2012-01-28T15:26:06Z</time>
      </trkpt>
      <trkpt lat="47.26194" lon="-1.67031">
        <ele>-119</ele>
        <time>2012-01-28T15:26:09Z</time>
      </trkpt>
      <trkpt lat="47.26191" lon="-1.67017">
        <ele>-118.75</ele>
        <time>2012-01-28T15:26:12Z</time>
      </trkpt>
      <trkpt lat="47.26187" lon="-1.67">
        <ele>-118</ele>
        <time>2012-01-28T15:26:15Z</time>
      </trkpt>
      <trkpt lat="47.26184" lon="-1.66984">
        <ele>-118</ele>
        <time>2012-01-28T15:26:18Z</time>
      </trkpt>
      <trkpt lat="47.26181" lon="-1.66971">
        <ele>-118</ele>
        <time>2012-01-28T15:26:20Z</time>
      </trkpt>
      <trkpt lat="47.26178" lon="-1.66956">
        <ele>-117.5</ele>
        <time>2012-01-28T15:26:22Z</time>
      </trkpt>
      <trkpt lat="47.26175" lon="-1.66941">
        <ele>-116.75</ele>
        <time>2012-01-28T15:26:25Z</time>
      </trkpt>
      <trkpt lat="47.26173" lon="-1.66928">
        <ele>-116.25</ele>
        <time>2012-01-28T15:26:27Z</time>
      </trkpt>
      <trkpt lat="47.26171" lon="-1.66914">
        <ele>-116</ele>
        <time>2012-01-28T15:26:29Z</time>
      </trkpt>
      <trkpt lat="47.26169" lon="-1.669">
        <ele>-116</ele>
        <time>2012-01-28T15:26:31Z</time>
      </trkpt>
      <trkpt lat="47.26166" lon="-1.66885">
        <ele>-116</ele>
        <time>2012-01-28T15:26:33Z</time>
      </trkpt>
      <trkpt lat="47.26163" lon="-1.66868">
        <ele>-116</ele>
        <time>2012-01-28T15:26:36Z</time>
      </trkpt>
      <trkpt lat="47.26161" lon="-1.66853">
        <ele>-115.5</ele>
        <time>2012-01-28T15:26:38Z</time>
      </trkpt>
      <trkpt lat="47.26158" lon="-1.66834">
        <ele>-115</ele>
        <time>2012-01-28T15:26:41Z</time>
      </trkpt>
      <trkpt lat="47.26156" lon="-1.6682">
        <ele>-115</ele>
        <time>2012-01-28T15:26:43Z</time>
      </trkpt>
      <trkpt lat="47.26155" lon="-1.66805">
        <ele>-115.25</ele>
        <time>2012-01-28T15:26:45Z</time>
      </trkpt>
      <trkpt lat="47.26153" lon="-1.66788">
        <ele>-114.25</ele>
        <time>2012-01-28T15:26:49Z</time>
      </trkpt>
      <trkpt lat="47.26151" lon="-1.66772">
        <ele>-113.25</ele>
        <time>2012-01-28T15:26:52Z</time>
      </trkpt>
      <trkpt lat="47.26148" lon="-1.66756">
        <ele>-113</ele>
        <time>2012-01-28T15:26:55Z</time>
      </trkpt>
      <trkpt lat="47.26146" lon="-1.66742">
        <ele>-113</ele>
        <time>2012-01-28T15:26:58Z</time>
      </trkpt>
      <trkpt lat="47.26143" lon="-1.66726">
        <ele>-113</ele>
        <time>2012-01-28T15:27:01Z</time>
      </trkpt>
      <trkpt lat="47.2614" lon="-1.66707">
        <ele>-113</ele>
        <time>2012-01-28T15:27:04Z</time>
      </trkpt>
      <trkpt lat="47.26138" lon="-1.66691">
        <ele>-113</ele>
        <time>2012-01-28T15:27:06Z</time>
      </trkpt>
      <trkpt lat="47.26136" lon="-1.66673">
        <ele>-113</ele>
        <time>2012-01-28T15:27:08Z</time>
      </trkpt>
      <trkpt lat="47.26134" lon="-1.66657">
        <ele>-112.5</ele>
        <time>2012-01-28T15:27:11Z</time>
      </trkpt>
      <trkpt lat="47.26131" lon="-1.66645">
        <ele>-112</ele>
        <time>2012-01-28T15:27:13Z</time>
      </trkpt>
      <trkpt lat="47.26128" lon="-1.66627">
        <ele>-112</ele>
        <time>2012-01-28T15:27:16Z</time>
      </trkpt>
      <trkpt lat="47.26123" lon="-1.6661">
        <ele>-111.5</ele>
        <time>2012-01-28T15:27:19Z</time>
      </trkpt>
      <trkpt lat="47.2612" lon="-1.66597">
        <ele>-111</ele>
        <time>2012-01-28T15:27:22Z</time>
      </trkpt>
      <trkpt lat="47.26118" lon="-1.66584">
        <ele>-111</ele>
        <time>2012-01-28T15:27:24Z</time>
      </trkpt>
      <trkpt lat="47.26116" lon="-1.66565">
        <ele>-111</ele>
        <time>2012-01-28T15:27:27Z</time>
      </trkpt>
      <trkpt lat="47.26113" lon="-1.66545">
        <ele>-111</ele>
        <time>2012-01-28T15:27:30Z</time>
      </trkpt>
      <trkpt lat="47.26111" lon="-1.6653">
        <ele>-111</ele>
        <time>2012-01-28T15:27:32Z</time>
      </trkpt>
      <trkpt lat="47.26109" lon="-1.66514">
        <ele>-111</ele>
        <time>2012-01-28T15:27:35Z</time>
      </trkpt>
      <trkpt lat="47.26107" lon="-1.665">
        <ele>-111</ele>
        <time>2012-01-28T15:27:37Z</time>
      </trkpt>
      <trkpt lat="47.26103" lon="-1.66483">
        <ele>-111</ele>
        <time>2012-01-28T15:27:40Z</time>
      </trkpt>
      <trkpt lat="47.26101" lon="-1.66464">
        <ele>-111</ele>
        <time>2012-01-28T15:27:43Z</time>
      </trkpt>
      <trkpt lat="47.26099" lon="-1.66444">
        <ele>-111</ele>
        <time>2012-01-28T15:27:46Z</time>
      </trkpt>
      <trkpt lat="47.26097" lon="-1.6643">
        <ele>-111</ele>
        <time>2012-01-28T15:27:48Z</time>
      </trkpt>
      <trkpt lat="47.26095" lon="-1.66417">
        <ele>-111</ele>
        <time>2012-01-28T15:27:51Z</time>
      </trkpt>
      <trkpt lat="47.26092" lon="-1.66399">
        <ele>-111.25</ele>
        <time>2012-01-28T15:27:54Z</time>
      </trkpt>
      <trkpt lat="47.2609" lon="-1.66382">
        <ele>-112</ele>
        <time>2012-01-28T15:27:57Z</time>
      </trkpt>
      <trkpt lat="47.26088" lon="-1.66368">
        <ele>-112</ele>
        <time>2012-01-28T15:27:59Z</time>
      </trkpt>
      <trkpt lat="47.26086" lon="-1.66354">
        <ele>-112.25</ele>
        <time>2012-01-28T15:28:02Z</time>
      </trkpt>
      <trkpt lat="47.26084" lon="-1.66334">
        <ele>-113.75</ele>
        <time>2012-01-28T15:28:05Z</time>
      </trkpt>
      <trkpt lat="47.26082" lon="-1.6632">
        <ele>-114</ele>
        <time>2012-01-28T15:28:07Z</time>
      </trkpt>
      <trkpt lat="47.26079" lon="-1.66304">
        <ele>-114</ele>
        <time>2012-01-28T15:28:10Z</time>
      </trkpt>
      <trkpt lat="47.26078" lon="-1.6629">
        <ele>-114</ele>
        <time>2012-01-28T15:28:12Z</time>
      </trkpt>
      <trkpt lat="47.26075" lon="-1.66271">
        <ele>-114</ele>
        <time>2012-01-28T15:28:15Z</time>
      </trkpt>
      <trkpt lat="47.26073" lon="-1.66258">
        <ele>-113.5</ele>
        <time>2012-01-28T15:28:17Z</time>
      </trkpt>
      <trkpt lat="47.2607" lon="-1.66243">
        <ele>-113</ele>
        <time>2012-01-28T15:28:19Z</time>
      </trkpt>
      <trkpt lat="47.26068" lon="-1.66227">
        <ele>-113</ele>
        <time>2012-01-28T15:28:22Z</time>
      </trkpt>
      <trkpt lat="47.26065" lon="-1.66212">
        <ele>-113</ele>
        <time>2012-01-28T15:28:24Z</time>
      </trkpt>
      <trkpt lat="47.26063" lon="-1.66198">
        <ele>-113</ele>
        <time>2012-01-28T15:28:26Z</time>
      </trkpt>
      <trkpt lat="47.26061" lon="-1.66185">
        <ele>-113.25</ele>
        <time>2012-01-28T15:28:28Z</time>
      </trkpt>
      <trkpt lat="47.26059" lon="-1.66171">
        <ele>-113.5</ele>
        <time>2012-01-28T15:28:30Z</time>
      </trkpt>
      <trkpt lat="47.26056" lon="-1.66157">
        <ele>-113</ele>
        <time>2012-01-28T15:28:32Z</time>
      </trkpt>
      <trkpt lat="47.26054" lon="-1.66142">
        <ele>-112.25</ele>
        <time>2012-01-28T15:28:35Z</time>
      </trkpt>
      <trkpt lat="47.26052" lon="-1.66128">
        <ele>-112</ele>
        <time>2012-01-28T15:28:37Z</time>
      </trkpt>
      <trkpt lat="47.2605" lon="-1.66112">
        <ele>-112</ele>
        <time>2012-01-28T15:28:39Z</time>
      </trkpt>
      <trkpt lat="47.26048" lon="-1.66097">
        <ele>-112</ele>
        <time>2012-01-28T15:28:42Z</time>
      </trkpt>
      <trkpt lat="47.26045" lon="-1.66078">
        <ele>-112</ele>
        <time>2012-01-28T15:28:45Z</time>
      </trkpt>
      <trkpt lat="47.26042" lon="-1.66059">
        <ele>-111.25</ele>
        <time>2012-01-28T15:28:48Z</time>
      </trkpt>
      <trkpt lat="47.2604" lon="-1.66045">
        <ele>-111</ele>
        <time>2012-01-28T15:28:50Z</time>
      </trkpt>
      <trkpt lat="47.26037" lon="-1.66031">
        <ele>-111</ele>
        <time>2012-01-28T15:28:52Z</time>
      </trkpt>
      <trkpt lat="47.26035" lon="-1.66016">
        <ele>-110.75</ele>
        <time>2012-01-28T15:28:54Z</time>
      </trkpt>
      <trkpt lat="47.26033" lon="-1.66002">
        <ele>-110.25</ele>
        <time>2012-01-28T15:28:57Z</time>
      </trkpt>
      <trkpt lat="47.26031" lon="-1.65988">
        <ele>-110</ele>
        <time>2012-01-28T15:28:59Z</time>
      </trkpt>
      <trkpt lat="47.26029" lon="-1.65974">
        <ele>-110</ele>
        <time>2012-01-28T15:29:01Z</time>
      </trkpt>
      <trkpt lat="47.26027" lon="-1.65959">
        <ele>-110</ele>
        <time>2012-01-28T15:29:03Z</time>
      </trkpt>
      <trkpt lat="47.26024" lon="-1.6594">
        <ele>-109.5</ele>
        <time>2012-01-28T15:29:05Z</time>
      </trkpt>
      <trkpt lat="47.2602" lon="-1.65919">
        <ele>-109</ele>
        <time>2012-01-28T15:29:08Z</time>
      </trkpt>
      <trkpt lat="47.26017" lon="-1.65904">
        <ele>-109</ele>
        <time>2012-01-28T15:29:10Z</time>
      </trkpt>
      <trkpt lat="47.26015" lon="-1.65889">
        <ele>-109</ele>
        <time>2012-01-28T15:29:12Z</time>
      </trkpt>
      <trkpt lat="47.26013" lon="-1.65876">
        <ele>-109</ele>
        <time>2012-01-28T15:29:14Z</time>
      </trkpt>
      <trkpt lat="47.2601" lon="-1.65856">
        <ele>-109</ele>
        <time>2012-01-28T15:29:17Z</time>
      </trkpt>
      <trkpt lat="47.26007" lon="-1.65841">
        <ele>-109.25</ele>
        <time>2012-01-28T15:29:20Z</time>
      </trkpt>
      <trkpt lat="47.26005" lon="-1.65826">
        <ele>-109.75</ele>
        <time>2012-01-28T15:29:22Z</time>
      </trkpt>
      <trkpt lat="47.26002" lon="-1.65808">
        <ele>-110</ele>
        <time>2012-01-28T15:29:25Z</time>
      </trkpt>
      <trkpt lat="47.25999" lon="-1.65789">
        <ele>-110</ele>
        <time>2012-01-28T15:29:28Z</time>
      </trkpt>
      <trkpt lat="47.25997" lon="-1.65774">
        <ele>-110</ele>
        <time>2012-01-28T15:29:31Z</time>
      </trkpt>
      <trkpt lat="47.25994" lon="-1.65756">
        <ele>-110</ele>
        <time>2012-01-28T15:29:34Z</time>
      </trkpt>
      <trkpt lat="47.25991" lon="-1.65739">
        <ele>-110</ele>
        <time>2012-01-28T15:29:37Z</time>
      </trkpt>
      <trkpt lat="47.25989" lon="-1.65724">
        <ele>-110.25</ele>
        <time>2012-01-28T15:29:39Z</time>
      </trkpt>
      <trkpt lat="47.25987" lon="-1.6571">
        <ele>-110.5</ele>
        <time>2012-01-28T15:29:42Z</time>
      </trkpt>
      <trkpt lat="47.25984" lon="-1.65694">
        <ele>-111</ele>
        <time>2012-01-28T15:29:45Z</time>
      </trkpt>
      <trkpt lat="47.25982" lon="-1.6568">
        <ele>-111</ele>
        <time>2012-01-28T15:29:48Z</time>
      </trkpt>
      <trkpt lat="47.25979" lon="-1.65667">
        <ele>-111</ele>
        <time>2012-01-28T15:30:01Z</time>
      </trkpt>
      <trkpt lat="47.25976" lon="-1.6565">
        <ele>-111</ele>
        <time>2012-01-28T15:30:04Z</time>
      </trkpt>
      <trkpt lat="47.25974" lon="-1.65637">
        <ele>-111.25</ele>
        <time>2012-01-28T15:30:06Z</time>
      </trkpt>
      <trkpt lat="47.25971" lon="-1.65618">
        <ele>-112</ele>
        <time>2012-01-28T15:30:09Z</time>
      </trkpt>
      <trkpt lat="47.25968" lon="-1.65601">
        <ele>-112.5</ele>
        <time>2012-01-28T15:30:13Z</time>
      </trkpt>
      <trkpt lat="47.25966" lon="-1.65584">
        <ele>-113.5</ele>
        <time>2012-01-28T15:30:16Z</time>
      </trkpt>
      <trkpt lat="47.25963" lon="-1.65566">
        <ele>-114</ele>
        <time>2012-01-28T15:30:19Z</time>
      </trkpt>
      <trkpt lat="47.2596" lon="-1.65551">
        <ele>-114.25</ele>
        <time>2012-01-28T15:30:22Z</time>
      </trkpt>
      <trkpt lat="47.25957" lon="-1.65535">
        <ele>-114.25</ele>
        <time>2012-01-28T15:30:24Z</time>
      </trkpt>
      <trkpt lat="47.25955" lon="-1.6552">
        <ele>-114.25</ele>
        <time>2012-01-28T15:30:26Z</time>
      </trkpt>
      <trkpt lat="47.25952" lon="-1.65505">
        <ele>-114.75</ele>
        <time>2012-01-28T15:30:28Z</time>
      </trkpt>
      <trkpt lat="47.2595" lon="-1.6549">
        <ele>-115</ele>
        <time>2012-01-28T15:30:30Z</time>
      </trkpt>
      <trkpt lat="47.25947" lon="-1.65472">
        <ele>-114.75</ele>
        <time>2012-01-28T15:30:32Z</time>
      </trkpt>
      <trkpt lat="47.25945" lon="-1.65457">
        <ele>-114.25</ele>
        <time>2012-01-28T15:30:35Z</time>
      </trkpt>
      <trkpt lat="47.25942" lon="-1.65442">
        <ele>-114.75</ele>
        <time>2012-01-28T15:30:38Z</time>
      </trkpt>
      <trkpt lat="47.25939" lon="-1.65428">
        <ele>-114.75</ele>
        <time>2012-01-28T15:30:41Z</time>
      </trkpt>
      <trkpt lat="47.25931" lon="-1.65412">
        <ele>-113.5</ele>
        <time>2012-01-28T15:30:45Z</time>
      </trkpt>
      <trkpt lat="47.25927" lon="-1.65394">
        <ele>-113.25</ele>
        <time>2012-01-28T15:30:48Z</time>
      </trkpt>
      <trkpt lat="47.25927" lon="-1.65376">
        <ele>-114</ele>
        <time>2012-01-28T15:30:51Z</time>
      </trkpt>
      <trkpt lat="47.25927" lon="-1.65359">
        <ele>-114</ele>
        <time>2012-01-28T15:30:54Z</time>
      </trkpt>
      <trkpt lat="47.25925" lon="-1.65343">
        <ele>-114</ele>
        <time>2012-01-28T15:30:56Z</time>
      </trkpt>
      <trkpt lat="47.25923" lon="-1.65329">
        <ele>-114</ele>
        <time>2012-01-28T15:30:58Z</time>
      </trkpt>
      <trkpt lat="47.25921" lon="-1.65315">
        <ele>-114</ele>
        <time>2012-01-28T15:31:00Z</time>
      </trkpt>
      <trkpt lat="47.25918" lon="-1.65297">
        <ele>-114</ele>
        <time>2012-01-28T15:31:02Z</time>
      </trkpt>
      <trkpt lat="47.25915" lon="-1.65277">
        <ele>-114</ele>
        <time>2012-01-28T15:31:05Z</time>
      </trkpt>
      <trkpt lat="47.25911" lon="-1.65258">
        <ele>-114</ele>
        <time>2012-01-28T15:31:07Z</time>
      </trkpt>
      <trkpt lat="47.25909" lon="-1.65242">
        <ele>-113.75</ele>
        <time>2012-01-28T15:31:09Z</time>
      </trkpt>
      <trkpt lat="47.25906" lon="-1.65223">
        <ele>-113.25</ele>
        <time>2012-01-28T15:31:11Z</time>
      </trkpt>
      <trkpt lat="47.25903" lon="-1.65203">
        <ele>-113</ele>
        <time>2012-01-28T15:31:13Z</time>
      </trkpt>
      <trkpt lat="47.259" lon="-1.65185">
        <ele>-113.25</ele>
        <time>2012-01-28T15:31:16Z</time>
      </trkpt>
      <trkpt lat="47.25898" lon="-1.65169">
        <ele>-113.75</ele>
        <time>2012-01-28T15:31:18Z</time>
      </trkpt>
      <trkpt lat="47.25895" lon="-1.65153">
        <ele>-114</ele>
        <time>2012-01-28T15:31:20Z</time>
      </trkpt>
      <trkpt lat="47.25892" lon="-1.65136">
        <ele>-114</ele>
        <time>2012-01-28T15:31:22Z</time>
      </trkpt>
      <trkpt lat="47.25889" lon="-1.6512">
        <ele>-114</ele>
        <time>2012-01-28T15:31:24Z</time>
      </trkpt>
      <trkpt lat="47.25885" lon="-1.651">
        <ele>-114</ele>
        <time>2012-01-28T15:31:26Z</time>
      </trkpt>
      <trkpt lat="47.25882" lon="-1.65079">
        <ele>-114</ele>
        <time>2012-01-28T15:31:29Z</time>
      </trkpt>
      <trkpt lat="47.25879" lon="-1.65063">
        <ele>-114</ele>
        <time>2012-01-28T15:31:31Z</time>
      </trkpt>
      <trkpt lat="47.25876" lon="-1.65046">
        <ele>-114.25</ele>
        <time>2012-01-28T15:31:33Z</time>
      </trkpt>
      <trkpt lat="47.25874" lon="-1.6503">
        <ele>-114.75</ele>
        <time>2012-01-28T15:31:35Z</time>
      </trkpt>
      <trkpt lat="47.2587" lon="-1.65011">
        <ele>-114.75</ele>
        <time>2012-01-28T15:31:37Z</time>
      </trkpt>
      <trkpt lat="47.25867" lon="-1.64992">
        <ele>-114.25</ele>
        <time>2012-01-28T15:31:39Z</time>
      </trkpt>
      <trkpt lat="47.25864" lon="-1.64974">
        <ele>-114</ele>
        <time>2012-01-28T15:31:42Z</time>
      </trkpt>
      <trkpt lat="47.25862" lon="-1.64957">
        <ele>-113.5</ele>
        <time>2012-01-28T15:31:44Z</time>
      </trkpt>
      <trkpt lat="47.2586" lon="-1.64942">
        <ele>-113</ele>
        <time>2012-01-28T15:31:46Z</time>
      </trkpt>
      <trkpt lat="47.25857" lon="-1.64928">
        <ele>-112.75</ele>
        <time>2012-01-28T15:31:48Z</time>
      </trkpt>
      <trkpt lat="47.25854" lon="-1.64913">
        <ele>-112.25</ele>
        <time>2012-01-28T15:31:50Z</time>
      </trkpt>
      <trkpt lat="47.25851" lon="-1.64896">
        <ele>-112</ele>
        <time>2012-01-28T15:31:53Z</time>
      </trkpt>
      <trkpt lat="47.25848" lon="-1.64881">
        <ele>-112</ele>
        <time>2012-01-28T15:31:55Z</time>
      </trkpt>
      <trkpt lat="47.25845" lon="-1.64869">
        <ele>-112</ele>
        <time>2012-01-28T15:31:57Z</time>
      </trkpt>
      <trkpt lat="47.25842" lon="-1.6485">
        <ele>-111.75</ele>
        <time>2012-01-28T15:32:01Z</time>
      </trkpt>
      <trkpt lat="47.25839" lon="-1.64833">
        <ele>-111.25</ele>
        <time>2012-01-28T15:32:03Z</time>
      </trkpt>
      <trkpt lat="47.25836" lon="-1.64817">
        <ele>-111</ele>
        <time>2012-01-28T15:32:05Z</time>
      </trkpt>
      <trkpt lat="47.25833" lon="-1.64798">
        <ele>-111</ele>
        <time>2012-01-28T15:32:08Z</time>
      </trkpt>
      <trkpt lat="47.2583" lon="-1.6478">
        <ele>-111</ele>
        <time>2012-01-28T15:32:11Z</time>
      </trkpt>
      <trkpt lat="47.25828" lon="-1.64766">
        <ele>-110.75</ele>
        <time>2012-01-28T15:32:14Z</time>
      </trkpt>
      <trkpt lat="47.25825" lon="-1.64748">
        <ele>-110</ele>
        <time>2012-01-28T15:32:17Z</time>
      </trkpt>
      <trkpt lat="47.25822" lon="-1.64731">
        <ele>-110.75</ele>
        <time>2012-01-28T15:32:20Z</time>
      </trkpt>
      <trkpt lat="47.2582" lon="-1.64714">
        <ele>-110.5</ele>
        <time>2012-01-28T15:32:22Z</time>
      </trkpt>
      <trkpt lat="47.25817" lon="-1.64698">
        <ele>-110</ele>
        <time>2012-01-28T15:32:25Z</time>
      </trkpt>
      <trkpt lat="47.25814" lon="-1.64679">
        <ele>-110</ele>
        <time>2012-01-28T15:32:28Z</time>
      </trkpt>
      <trkpt lat="47.25809" lon="-1.64661">
        <ele>-110</ele>
        <time>2012-01-28T15:32:31Z</time>
      </trkpt>
      <trkpt lat="47.25805" lon="-1.64642">
        <ele>-110</ele>
        <time>2012-01-28T15:32:34Z</time>
      </trkpt>
      <trkpt lat="47.25802" lon="-1.64628">
        <ele>-110</ele>
        <time>2012-01-28T15:32:37Z</time>
      </trkpt>
      <trkpt lat="47.25798" lon="-1.64611">
        <ele>-110</ele>
        <time>2012-01-28T15:32:40Z</time>
      </trkpt>
      <trkpt lat="47.25794" lon="-1.64595">
        <ele>-109.75</ele>
        <time>2012-01-28T15:32:43Z</time>
      </trkpt>
      <trkpt lat="47.2579" lon="-1.64578">
        <ele>-109</ele>
        <time>2012-01-28T15:32:46Z</time>
      </trkpt>
      <trkpt lat="47.25784" lon="-1.6456">
        <ele>-109</ele>
        <time>2012-01-28T15:32:50Z</time>
      </trkpt>
      <trkpt lat="47.25779" lon="-1.64545">
        <ele>-109</ele>
        <time>2012-01-28T15:32:53Z</time>
      </trkpt>
      <trkpt lat="47.25772" lon="-1.64529">
        <ele>-108.75</ele>
        <time>2012-01-28T15:32:56Z</time>
      </trkpt>
      <trkpt lat="47.25767" lon="-1.64517">
        <ele>-108.25</ele>
        <time>2012-01-28T15:32:58Z</time>
      </trkpt>
      <trkpt lat="47.25762" lon="-1.64505">
        <ele>-108</ele>
        <time>2012-01-28T15:33:01Z</time>
      </trkpt>
      <trkpt lat="47.25755" lon="-1.64493">
        <ele>-108</ele>
        <time>2012-01-28T15:33:03Z</time>
      </trkpt>
      <trkpt lat="47.25748" lon="-1.64481">
        <ele>-108</ele>
        <time>2012-01-28T15:33:05Z</time>
      </trkpt>
      <trkpt lat="47.25739" lon="-1.64467">
        <ele>-107.5</ele>
        <time>2012-01-28T15:33:07Z</time>
      </trkpt>
      <trkpt lat="47.25729" lon="-1.64453">
        <ele>-107</ele>
        <time>2012-01-28T15:33:10Z</time>
      </trkpt>
      <trkpt lat="47.25721" lon="-1.64444">
        <ele>-106.75</ele>
        <time>2012-01-28T15:33:12Z</time>
      </trkpt>
      <trkpt lat="47.25713" lon="-1.64435">
        <ele>-106.25</ele>
        <time>2012-01-28T15:33:14Z</time>
      </trkpt>
      <trkpt lat="47.25705" lon="-1.64428">
        <ele>-106</ele>
        <time>2012-01-28T15:33:16Z</time>
      </trkpt>
      <trkpt lat="47.25696" lon="-1.6442">
        <ele>-106</ele>
        <time>2012-01-28T15:33:18Z</time>
      </trkpt>
      <trkpt lat="47.25686" lon="-1.64411">
        <ele>-105.5</ele>
        <time>2012-01-28T15:33:21Z</time>
      </trkpt>
      <trkpt lat="47.25676" lon="-1.64404">
        <ele>-105</ele>
        <time>2012-01-28T15:33:23Z</time>
      </trkpt>
      <trkpt lat="47.25667" lon="-1.64399">
        <ele>-105</ele>
        <time>2012-01-28T15:33:25Z</time>
      </trkpt>
      <trkpt lat="47.25658" lon="-1.64394">
        <ele>-105</ele>
        <time>2012-01-28T15:33:27Z</time>
      </trkpt>
      <trkpt lat="47.25648" lon="-1.64389">
        <ele>-105</ele>
        <time>2012-01-28T15:33:29Z</time>
      </trkpt>
      <trkpt lat="47.25636" lon="-1.64384">
        <ele>-104.5</ele>
        <time>2012-01-28T15:33:32Z</time>
      </trkpt>
      <trkpt lat="47.25625" lon="-1.64379">
        <ele>-104.25</ele>
        <time>2012-01-28T15:33:34Z</time>
      </trkpt>
      <trkpt lat="47.25617" lon="-1.6437">
        <ele>-103.25</ele>
        <time>2012-01-28T15:33:38Z</time>
      </trkpt>
      <trkpt lat="47.25605" lon="-1.64362">
        <ele>-101.5</ele>
        <time>2012-01-28T15:33:40Z</time>
      </trkpt>
      <trkpt lat="47.25591" lon="-1.64358">
        <ele>-100.75</ele>
        <time>2012-01-28T15:33:42Z</time>
      </trkpt>
      <trkpt lat="47.2558" lon="-1.64356">
        <ele>-102</ele>
        <time>2012-01-28T15:33:45Z</time>
      </trkpt>
      <trkpt lat="47.25571" lon="-1.64352">
        <ele>-102.75</ele>
        <time>2012-01-28T15:33:47Z</time>
      </trkpt>
      <trkpt lat="47.2556" lon="-1.64344">
        <ele>-103.25</ele>
        <time>2012-01-28T15:33:50Z</time>
      </trkpt>
      <trkpt lat="47.25549" lon="-1.64333">
        <ele>-104</ele>
        <time>2012-01-28T15:33:53Z</time>
      </trkpt>
      <trkpt lat="47.25542" lon="-1.64324">
        <ele>-104</ele>
        <time>2012-01-28T15:33:56Z</time>
      </trkpt>
      <trkpt lat="47.25534" lon="-1.64316">
        <ele>-104</ele>
        <time>2012-01-28T15:33:58Z</time>
      </trkpt>
      <trkpt lat="47.25524" lon="-1.64305">
        <ele>-104.25</ele>
        <time>2012-01-28T15:34:01Z</time>
      </trkpt>
      <trkpt lat="47.25512" lon="-1.64296">
        <ele>-105</ele>
        <time>2012-01-28T15:34:04Z</time>
      </trkpt>
      <trkpt lat="47.25502" lon="-1.64291">
        <ele>-105</ele>
        <time>2012-01-28T15:34:06Z</time>
      </trkpt>
      <trkpt lat="47.25493" lon="-1.64287">
        <ele>-105</ele>
        <time>2012-01-28T15:34:09Z</time>
      </trkpt>
      <trkpt lat="47.25482" lon="-1.64285">
        <ele>-105</ele>
        <time>2012-01-28T15:34:11Z</time>
      </trkpt>
      <trkpt lat="47.25472" lon="-1.64286">
        <ele>-104.75</ele>
        <time>2012-01-28T15:34:13Z</time>
      </trkpt>
      <trkpt lat="47.2546" lon="-1.64288">
        <ele>-104.25</ele>
        <time>2012-01-28T15:34:15Z</time>
      </trkpt>
      <trkpt lat="47.25446" lon="-1.64292">
        <ele>-103.75</ele>
        <time>2012-01-28T15:34:17Z</time>
      </trkpt>
      <trkpt lat="47.25431" lon="-1.64296">
        <ele>-103.25</ele>
        <time>2012-01-28T15:34:19Z</time>
      </trkpt>
      <trkpt lat="47.25419" lon="-1.64299">
        <ele>-103</ele>
        <time>2012-01-28T15:34:22Z</time>
      </trkpt>
      <trkpt lat="47.25408" lon="-1.64302">
        <ele>-103</ele>
        <time>2012-01-28T15:34:24Z</time>
      </trkpt>
      <trkpt lat="47.25398" lon="-1.64304">
        <ele>-102.75</ele>
        <time>2012-01-28T15:34:26Z</time>
      </trkpt>
      <trkpt lat="47.25387" lon="-1.64307">
        <ele>-102.25</ele>
        <time>2012-01-28T15:34:28Z</time>
      </trkpt>
      <trkpt lat="47.25376" lon="-1.6431">
        <ele>-102</ele>
        <time>2012-01-28T15:34:30Z</time>
      </trkpt>
      <trkpt lat="47.25362" lon="-1.64315">
        <ele>-101.5</ele>
        <time>2012-01-28T15:34:32Z</time>
      </trkpt>
      <trkpt lat="47.25346" lon="-1.64321">
        <ele>-101</ele>
        <time>2012-01-28T15:34:34Z</time>
      </trkpt>
      <trkpt lat="47.25333" lon="-1.64327">
        <ele>-101</ele>
        <time>2012-01-28T15:34:37Z</time>
      </trkpt>
      <trkpt lat="47.25321" lon="-1.64333">
        <ele>-101</ele>
        <time>2012-01-28T15:34:39Z</time>
      </trkpt>
      <trkpt lat="47.25311" lon="-1.64341">
        <ele>-101</ele>
        <time>2012-01-28T15:34:41Z</time>
      </trkpt>
      <trkpt lat="47.25301" lon="-1.64349">
        <ele>-100.5</ele>
        <time>2012-01-28T15:34:43Z</time>
      </trkpt>
      <trkpt lat="47.25288" lon="-1.64359">
        <ele>-100</ele>
        <time>2012-01-28T15:34:45Z</time>
      </trkpt>
      <trkpt lat="47.25275" lon="-1.64371">
        <ele>-100</ele>
        <time>2012-01-28T15:34:48Z</time>
      </trkpt>
      <trkpt lat="47.25264" lon="-1.6438">
        <ele>-99.75</ele>
        <time>2012-01-28T15:34:50Z</time>
      </trkpt>
      <trkpt lat="47.25253" lon="-1.6439">
        <ele>-99</ele>
        <time>2012-01-28T15:34:52Z</time>
      </trkpt>
      <trkpt lat="47.25242" lon="-1.64399">
        <ele>-98.25</ele>
        <time>2012-01-28T15:34:54Z</time>
      </trkpt>
      <trkpt lat="47.25231" lon="-1.64409">
        <ele>-98</ele>
        <time>2012-01-28T15:34:56Z</time>
      </trkpt>
      <trkpt lat="47.25218" lon="-1.64419">
        <ele>-98</ele>
        <time>2012-01-28T15:34:58Z</time>
      </trkpt>
      <trkpt lat="47.25209" lon="-1.64427">
        <ele>-98</ele>
        <time>2012-01-28T15:35:01Z</time>
      </trkpt>
      <trkpt lat="47.25199" lon="-1.64435">
        <ele>-97.75</ele>
        <time>2012-01-28T15:35:03Z</time>
      </trkpt>
      <trkpt lat="47.25189" lon="-1.64443">
        <ele>-97.25</ele>
        <time>2012-01-28T15:35:05Z</time>
      </trkpt>
      <trkpt lat="47.25179" lon="-1.64451">
        <ele>-97</ele>
        <time>2012-01-28T15:35:07Z</time>
      </trkpt>
      <trkpt lat="47.25169" lon="-1.64458">
        <ele>-96.75</ele>
        <time>2012-01-28T15:35:09Z</time>
      </trkpt>
      <trkpt lat="47.25156" lon="-1.64467">
        <ele>-96.25</ele>
        <time>2012-01-28T15:35:11Z</time>
      </trkpt>
      <trkpt lat="47.25144" lon="-1.64476">
        <ele>-95.5</ele>
        <time>2012-01-28T15:35:14Z</time>
      </trkpt>
      <trkpt lat="47.25134" lon="-1.64483">
        <ele>-94.5</ele>
        <time>2012-01-28T15:35:16Z</time>
      </trkpt>
      <trkpt lat="47.25124" lon="-1.6449">
        <ele>-94</ele>
        <time>2012-01-28T15:35:18Z</time>
      </trkpt>
      <trkpt lat="47.25114" lon="-1.64499">
        <ele>-93.25</ele>
        <time>2012-01-28T15:35:20Z</time>
      </trkpt>
      <trkpt lat="47.25104" lon="-1.6451">
        <ele>-92.25</ele>
        <time>2012-01-28T15:35:22Z</time>
      </trkpt>
      <trkpt lat="47.25093" lon="-1.64521">
        <ele>-91.75</ele>
        <time>2012-01-28T15:35:25Z</time>
      </trkpt>
      <trkpt lat="47.25083" lon="-1.6453">
        <ele>-91.25</ele>
        <time>2012-01-28T15:35:27Z</time>
      </trkpt>
      <trkpt lat="47.25073" lon="-1.6454">
        <ele>-90.5</ele>
        <time>2012-01-28T15:35:29Z</time>
      </trkpt>
      <trkpt lat="47.25061" lon="-1.64551">
        <ele>-89.75</ele>
        <time>2012-01-28T15:35:31Z</time>
      </trkpt>
      <trkpt lat="47.25048" lon="-1.64565">
        <ele>-88.5</ele>
        <time>2012-01-28T15:35:33Z</time>
      </trkpt>
      <trkpt lat="47.25034" lon="-1.64578">
        <ele>-87</ele>
        <time>2012-01-28T15:35:36Z</time>
      </trkpt>
      <trkpt lat="47.25025" lon="-1.64582">
        <ele>-86.25</ele>
        <time>2012-01-28T15:35:38Z</time>
      </trkpt>
      <trkpt lat="47.25014" lon="-1.64572">
        <ele>-86.25</ele>
        <time>2012-01-28T15:35:41Z</time>
      </trkpt>
      <trkpt lat="47.25009" lon="-1.64559">
        <ele>-86.75</ele>
        <time>2012-01-28T15:35:43Z</time>
      </trkpt>
      <trkpt lat="47.25004" lon="-1.64543">
        <ele>-88</ele>
        <time>2012-01-28T15:35:45Z</time>
      </trkpt>
      <trkpt lat="47.25" lon="-1.64527">
        <ele>-89.5</ele>
        <time>2012-01-28T15:35:48Z</time>
      </trkpt>
      <trkpt lat="47.24996" lon="-1.64514">
        <ele>-90.5</ele>
        <time>2012-01-28T15:35:50Z</time>
      </trkpt>
      <trkpt lat="47.24993" lon="-1.645">
        <ele>-91.25</ele>
        <time>2012-01-28T15:35:52Z</time>
      </trkpt>
      <trkpt lat="47.24989" lon="-1.64487">
        <ele>-91.75</ele>
        <time>2012-01-28T15:35:54Z</time>
      </trkpt>
      <trkpt lat="47.24983" lon="-1.64472">
        <ele>-92</ele>
        <time>2012-01-28T15:35:57Z</time>
      </trkpt>
      <trkpt lat="47.24979" lon="-1.64456">
        <ele>-92.5</ele>
        <time>2012-01-28T15:35:59Z</time>
      </trkpt>
      <trkpt lat="47.24975" lon="-1.64443">
        <ele>-93.5</ele>
        <time>2012-01-28T15:36:01Z</time>
      </trkpt>
      <trkpt lat="47.24972" lon="-1.64429">
        <ele>-94</ele>
        <time>2012-01-28T15:36:03Z</time>
      </trkpt>
      <trkpt lat="47.24967" lon="-1.64411">
        <ele>-94.5</ele>
        <time>2012-01-28T15:36:05Z</time>
      </trkpt>
      <trkpt lat="47.24962" lon="-1.64394">
        <ele>-95</ele>
        <time>2012-01-28T15:36:08Z</time>
      </trkpt>
      <trkpt lat="47.24958" lon="-1.64381">
        <ele>-95</ele>
        <time>2012-01-28T15:36:10Z</time>
      </trkpt>
      <trkpt lat="47.24953" lon="-1.64362">
        <ele>-95.25</ele>
        <time>2012-01-28T15:36:13Z</time>
      </trkpt>
      <trkpt lat="47.24949" lon="-1.64348">
        <ele>-95.75</ele>
        <time>2012-01-28T15:36:15Z</time>
      </trkpt>
      <trkpt lat="47.24945" lon="-1.64335">
        <ele>-96.5</ele>
        <time>2012-01-28T15:36:18Z</time>
      </trkpt>
      <trkpt lat="47.24941" lon="-1.64318">
        <ele>-97</ele>
        <time>2012-01-28T15:36:21Z</time>
      </trkpt>
      <trkpt lat="47.24937" lon="-1.64298">
        <ele>-97</ele>
        <time>2012-01-28T15:36:24Z</time>
      </trkpt>
      <trkpt lat="47.24934" lon="-1.64286">
        <ele>-97</ele>
        <time>2012-01-28T15:36:26Z</time>
      </trkpt>
      <trkpt lat="47.2493" lon="-1.64271">
        <ele>-97.5</ele>
        <time>2012-01-28T15:36:30Z</time>
      </trkpt>
      <trkpt lat="47.24928" lon="-1.64257">
        <ele>-98.5</ele>
        <time>2012-01-28T15:36:32Z</time>
      </trkpt>
      <trkpt lat="47.24928" lon="-1.64242">
        <ele>-99</ele>
        <time>2012-01-28T15:36:35Z</time>
      </trkpt>
      <trkpt lat="47.24925" lon="-1.64223">
        <ele>-99</ele>
        <time>2012-01-28T15:36:38Z</time>
      </trkpt>
      <trkpt lat="47.24922" lon="-1.64209">
        <ele>-98.5</ele>
        <time>2012-01-28T15:36:41Z</time>
      </trkpt>
      <trkpt lat="47.2492" lon="-1.64192">
        <ele>-97</ele>
        <time>2012-01-28T15:36:44Z</time>
      </trkpt>
      <trkpt lat="47.24917" lon="-1.64178">
        <ele>-95.75</ele>
        <time>2012-01-28T15:36:46Z</time>
      </trkpt>
      <trkpt lat="47.24913" lon="-1.64162">
        <ele>-95.25</ele>
        <time>2012-01-28T15:36:48Z</time>
      </trkpt>
      <trkpt lat="47.24911" lon="-1.64148">
        <ele>-95.75</ele>
        <time>2012-01-28T15:36:51Z</time>
      </trkpt>
      <trkpt lat="47.24907" lon="-1.64131">
        <ele>-96</ele>
        <time>2012-01-28T15:36:54Z</time>
      </trkpt>
      <trkpt lat="47.24901" lon="-1.64113">
        <ele>-95</ele>
        <time>2012-01-28T15:36:57Z</time>
      </trkpt>
      <trkpt lat="47.24897" lon="-1.64097">
        <ele>-94</ele>
        <time>2012-01-28T15:36:59Z</time>
      </trkpt>
      <trkpt lat="47.24893" lon="-1.64084">
        <ele>-93.25</ele>
        <time>2012-01-28T15:37:02Z</time>
      </trkpt>
      <trkpt lat="47.2489" lon="-1.6407">
        <ele>-93</ele>
        <time>2012-01-28T15:37:04Z</time>
      </trkpt>
      <trkpt lat="47.24891" lon="-1.64056">
        <ele>-92.5</ele>
        <time>2012-01-28T15:37:06Z</time>
      </trkpt>
      <trkpt lat="47.24892" lon="-1.64039">
        <ele>-92.75</ele>
        <time>2012-01-28T15:37:09Z</time>
      </trkpt>
      <trkpt lat="47.24887" lon="-1.64025">
        <ele>-93.25</ele>
        <time>2012-01-28T15:37:14Z</time>
      </trkpt>
      <trkpt lat="47.2488" lon="-1.6401">
        <ele>-94.5</ele>
        <time>2012-01-28T15:37:18Z</time>
      </trkpt>
      <trkpt lat="47.24872" lon="-1.63997">
        <ele>-94</ele>
        <time>2012-01-28T15:37:21Z</time>
      </trkpt>
      <trkpt lat="47.24867" lon="-1.63986">
        <ele>-93.25</ele>
        <time>2012-01-28T15:37:23Z</time>
      </trkpt>
      <trkpt lat="47.2486" lon="-1.63972">
        <ele>-93</ele>
        <time>2012-01-28T15:37:27Z</time>
      </trkpt>
      <trkpt lat="47.24853" lon="-1.63959">
        <ele>-93</ele>
        <time>2012-01-28T15:37:30Z</time>
      </trkpt>
      <trkpt lat="47.24846" lon="-1.63944">
        <ele>-93</ele>
        <time>2012-01-28T15:37:33Z</time>
      </trkpt>
      <trkpt lat="47.24838" lon="-1.6393">
        <ele>-93.25</ele>
        <time>2012-01-28T15:37:36Z</time>
      </trkpt>
      <trkpt lat="47.24831" lon="-1.63915">
        <ele>-94.25</ele>
        <time>2012-01-28T15:37:40Z</time>
      </trkpt>
      <trkpt lat="47.24823" lon="-1.63899">
        <ele>-96.5</ele>
        <time>2012-01-28T15:37:43Z</time>
      </trkpt>
      <trkpt lat="47.24817" lon="-1.63886">
        <ele>-98.5</ele>
        <time>2012-01-28T15:37:45Z</time>
      </trkpt>
      <trkpt lat="47.2481" lon="-1.63874">
        <ele>-100.25</ele>
        <time>2012-01-28T15:37:47Z</time>
      </trkpt>
      <trkpt lat="47.24803" lon="-1.63862">
        <ele>-101.5</ele>
        <time>2012-01-28T15:37:49Z</time>
      </trkpt>
      <trkpt lat="47.24797" lon="-1.63851">
        <ele>-102.25</ele>
        <time>2012-01-28T15:37:52Z</time>
      </trkpt>
      <trkpt lat="47.24791" lon="-1.63837">
        <ele>-102.25</ele>
        <time>2012-01-28T15:37:55Z</time>
      </trkpt>
      <trkpt lat="47.24785" lon="-1.63825">
        <ele>-102.75</ele>
        <time>2012-01-28T15:37:58Z</time>
      </trkpt>
      <trkpt lat="47.24778" lon="-1.6381">
        <ele>-104</ele>
        <time>2012-01-28T15:38:02Z</time>
      </trkpt>
      <trkpt lat="47.24773" lon="-1.63799">
        <ele>-105.25</ele>
        <time>2012-01-28T15:38:04Z</time>
      </trkpt>
      <trkpt lat="47.24767" lon="-1.63787">
        <ele>-105.75</ele>
        <time>2012-01-28T15:38:06Z</time>
      </trkpt>
      <trkpt lat="47.24759" lon="-1.63772">
        <ele>-103.75</ele>
        <time>2012-01-28T15:38:09Z</time>
      </trkpt>
      <trkpt lat="47.24753" lon="-1.63762">
        <ele>-101.25</ele>
        <time>2012-01-28T15:38:11Z</time>
      </trkpt>
      <trkpt lat="47.24748" lon="-1.6375">
        <ele>-100.25</ele>
        <time>2012-01-28T15:38:15Z</time>
      </trkpt>
      <trkpt lat="47.24743" lon="-1.63738">
        <ele>-103</ele>
        <time>2012-01-28T15:38:19Z</time>
      </trkpt>
      <trkpt lat="47.24734" lon="-1.63733">
        <ele>-106</ele>
        <time>2012-01-28T15:38:30Z</time>
      </trkpt>
      <trkpt lat="47.24733" lon="-1.63717">
        <ele>-102</ele>
        <time>2012-01-28T15:38:40Z</time>
      </trkpt>
      <trkpt lat="47.24737" lon="-1.63705">
        <ele>-102</ele>
        <time>2012-01-28T15:38:43Z</time>
      </trkpt>
      <trkpt lat="47.24742" lon="-1.63691">
        <ele>-101.75</ele>
        <time>2012-01-28T15:38:46Z</time>
      </trkpt>
      <trkpt lat="47.24746" lon="-1.63677">
        <ele>-102</ele>
        <time>2012-01-28T15:38:50Z</time>
      </trkpt>
      <trkpt lat="47.24751" lon="-1.63665">
        <ele>-102</ele>
        <time>2012-01-28T15:38:53Z</time>
      </trkpt>
      <trkpt lat="47.24756" lon="-1.63654">
        <ele>-102</ele>
        <time>2012-01-28T15:38:56Z</time>
      </trkpt>
      <trkpt lat="47.24761" lon="-1.63641">
        <ele>-101.25</ele>
        <time>2012-01-28T15:38:59Z</time>
      </trkpt>
      <trkpt lat="47.24766" lon="-1.6363">
        <ele>-99.5</ele>
        <time>2012-01-28T15:39:04Z</time>
      </trkpt>
      <trkpt lat="47.24771" lon="-1.63618">
        <ele>-99.25</ele>
        <time>2012-01-28T15:39:08Z</time>
      </trkpt>
      <trkpt lat="47.24776" lon="-1.63606">
        <ele>-101</ele>
        <time>2012-01-28T15:39:11Z</time>
      </trkpt>
      <trkpt lat="47.24781" lon="-1.63592">
        <ele>-102.25</ele>
        <time>2012-01-28T15:39:16Z</time>
      </trkpt>
      <trkpt lat="47.24787" lon="-1.63578">
        <ele>-102</ele>
        <time>2012-01-28T15:39:20Z</time>
      </trkpt>
      <trkpt lat="47.24793" lon="-1.63564">
        <ele>-102.25</ele>
        <time>2012-01-28T15:39:24Z</time>
      </trkpt>
      <trkpt lat="47.24799" lon="-1.63551">
        <ele>-102</ele>
        <time>2012-01-28T15:39:29Z</time>
      </trkpt>
      <trkpt lat="47.24804" lon="-1.63539">
        <ele>-102.25</ele>
        <time>2012-01-28T15:39:33Z</time>
      </trkpt>
      <trkpt lat="47.24811" lon="-1.63527">
        <ele>-102.75</ele>
        <time>2012-01-28T15:39:38Z</time>
      </trkpt>
      <trkpt lat="47.24815" lon="-1.63513">
        <ele>-103.75</ele>
        <time>2012-01-28T15:39:44Z</time>
      </trkpt>
      <trkpt lat="47.24819" lon="-1.635">
        <ele>-107.25</ele>
        <time>2012-01-28T15:39:51Z</time>
      </trkpt>
      <trkpt lat="47.24826" lon="-1.63488">
        <ele>-109.5</ele>
        <time>2012-01-28T15:39:56Z</time>
      </trkpt>
      <trkpt lat="47.24835" lon="-1.63481">
        <ele>-109.75</ele>
        <time>2012-01-28T15:40:00Z</time>
      </trkpt>
      <trkpt lat="47.24845" lon="-1.63479">
        <ele>-109</ele>
        <time>2012-01-28T15:40:03Z</time>
      </trkpt>
      <trkpt lat="47.24854" lon="-1.63478">
        <ele>-108.5</ele>
        <time>2012-01-28T15:40:05Z</time>
      </trkpt>
      <trkpt lat="47.24866" lon="-1.63472">
        <ele>-109.25</ele>
        <time>2012-01-28T15:40:08Z</time>
      </trkpt>
      <trkpt lat="47.24876" lon="-1.63463">
        <ele>-111.25</ele>
        <time>2012-01-28T15:40:11Z</time>
      </trkpt>
      <trkpt lat="47.2488" lon="-1.6345">
        <ele>-110.5</ele>
        <time>2012-01-28T15:40:18Z</time>
      </trkpt>
      <trkpt lat="47.24873" lon="-1.6344">
        <ele>-102</ele>
        <time>2012-01-28T15:41:19Z</time>
      </trkpt>
      <trkpt lat="47.24865" lon="-1.63427">
        <ele>-101.5</ele>
        <time>2012-01-28T15:41:22Z</time>
      </trkpt>
      <trkpt lat="47.2486" lon="-1.63413">
        <ele>-101</ele>
        <time>2012-01-28T15:41:25Z</time>
      </trkpt>
      <trkpt lat="47.24856" lon="-1.63399">
        <ele>-101</ele>
        <time>2012-01-28T15:41:27Z</time>
      </trkpt>
      <trkpt lat="47.24851" lon="-1.63385">
        <ele>-101</ele>
        <time>2012-01-28T15:41:29Z</time>
      </trkpt>
      <trkpt lat="47.24846" lon="-1.63371">
        <ele>-101</ele>
        <time>2012-01-28T15:41:31Z</time>
      </trkpt>
      <trkpt lat="47.2484" lon="-1.63357">
        <ele>-101</ele>
        <time>2012-01-28T15:41:33Z</time>
      </trkpt>
      <trkpt lat="47.24835" lon="-1.63344">
        <ele>-101.5</ele>
        <time>2012-01-28T15:41:36Z</time>
      </trkpt>
      <trkpt lat="47.24828" lon="-1.63328">
        <ele>-102</ele>
        <time>2012-01-28T15:41:39Z</time>
      </trkpt>
      <trkpt lat="47.24821" lon="-1.63313">
        <ele>-102</ele>
        <time>2012-01-28T15:41:42Z</time>
      </trkpt>
      <trkpt lat="47.24817" lon="-1.63301">
        <ele>-102</ele>
        <time>2012-01-28T15:41:44Z</time>
      </trkpt>
      <trkpt lat="47.24812" lon="-1.63289">
        <ele>-102</ele>
        <time>2012-01-28T15:41:47Z</time>
      </trkpt>
      <trkpt lat="47.24807" lon="-1.63275">
        <ele>-102.5</ele>
        <time>2012-01-28T15:41:50Z</time>
      </trkpt>
      <trkpt lat="47.24802" lon="-1.6326">
        <ele>-103</ele>
        <time>2012-01-28T15:41:53Z</time>
      </trkpt>
      <trkpt lat="47.24798" lon="-1.63248">
        <ele>-103</ele>
        <time>2012-01-28T15:41:55Z</time>
      </trkpt>
      <trkpt lat="47.24793" lon="-1.63235">
        <ele>-103.5</ele>
        <time>2012-01-28T15:41:58Z</time>
      </trkpt>
      <trkpt lat="47.24788" lon="-1.63219">
        <ele>-104</ele>
        <time>2012-01-28T15:42:01Z</time>
      </trkpt>
      <trkpt lat="47.24783" lon="-1.63202">
        <ele>-104.75</ele>
        <time>2012-01-28T15:42:04Z</time>
      </trkpt>
      <trkpt lat="47.24779" lon="-1.63188">
        <ele>-105.5</ele>
        <time>2012-01-28T15:42:06Z</time>
      </trkpt>
      <trkpt lat="47.24774" lon="-1.63174">
        <ele>-106</ele>
        <time>2012-01-28T15:42:09Z</time>
      </trkpt>
      <trkpt lat="47.24769" lon="-1.63156">
        <ele>-106.25</ele>
        <time>2012-01-28T15:42:12Z</time>
      </trkpt>
      <trkpt lat="47.24764" lon="-1.63137">
        <ele>-107</ele>
        <time>2012-01-28T15:42:15Z</time>
      </trkpt>
      <trkpt lat="47.2476" lon="-1.63123">
        <ele>-107</ele>
        <time>2012-01-28T15:42:17Z</time>
      </trkpt>
      <trkpt lat="47.24757" lon="-1.63111">
        <ele>-107</ele>
        <time>2012-01-28T15:42:20Z</time>
      </trkpt>
      <trkpt lat="47.24751" lon="-1.63093">
        <ele>-107</ele>
        <time>2012-01-28T15:42:23Z</time>
      </trkpt>
      <trkpt lat="47.24747" lon="-1.63081">
        <ele>-107.5</ele>
        <time>2012-01-28T15:42:25Z</time>
      </trkpt>
      <trkpt lat="47.24743" lon="-1.63065">
        <ele>-107.5</ele>
        <time>2012-01-28T15:42:27Z</time>
      </trkpt>
      <trkpt lat="47.24738" lon="-1.63047">
        <ele>-106.5</ele>
        <time>2012-01-28T15:42:30Z</time>
      </trkpt>
      <trkpt lat="47.24734" lon="-1.63034">
        <ele>-106</ele>
        <time>2012-01-28T15:42:32Z</time>
      </trkpt>
      <trkpt lat="47.2473" lon="-1.63021">
        <ele>-106</ele>
        <time>2012-01-28T15:42:34Z</time>
      </trkpt>
      <trkpt lat="47.24726" lon="-1.63009">
        <ele>-106</ele>
        <time>2012-01-28T15:42:36Z</time>
      </trkpt>
      <trkpt lat="47.24722" lon="-1.62995">
        <ele>-106</ele>
        <time>2012-01-28T15:42:38Z</time>
      </trkpt>
      <trkpt lat="47.24718" lon="-1.62981">
        <ele>-105.75</ele>
        <time>2012-01-28T15:42:41Z</time>
      </trkpt>
      <trkpt lat="47.24713" lon="-1.62964">
        <ele>-105</ele>
        <time>2012-01-28T15:42:44Z</time>
      </trkpt>
      <trkpt lat="47.24708" lon="-1.62947">
        <ele>-105</ele>
        <time>2012-01-28T15:42:47Z</time>
      </trkpt>
      <trkpt lat="47.24704" lon="-1.62933">
        <ele>-105</ele>
        <time>2012-01-28T15:42:49Z</time>
      </trkpt>
      <trkpt lat="47.24699" lon="-1.62918">
        <ele>-105</ele>
        <time>2012-01-28T15:42:51Z</time>
      </trkpt>
      <trkpt lat="47.24694" lon="-1.62902">
        <ele>-105.5</ele>
        <time>2012-01-28T15:42:54Z</time>
      </trkpt>
      <trkpt lat="47.2469" lon="-1.62887">
        <ele>-106</ele>
        <time>2012-01-28T15:42:56Z</time>
      </trkpt>
      <trkpt lat="47.24686" lon="-1.62874">
        <ele>-106.25</ele>
        <time>2012-01-28T15:42:58Z</time>
      </trkpt>
      <trkpt lat="47.24683" lon="-1.62861">
        <ele>-106.75</ele>
        <time>2012-01-28T15:43:00Z</time>
      </trkpt>
      <trkpt lat="47.24679" lon="-1.62846">
        <ele>-107.5</ele>
        <time>2012-01-28T15:43:02Z</time>
      </trkpt>
      <trkpt lat="47.24676" lon="-1.62831">
        <ele>-108</ele>
        <time>2012-01-28T15:43:05Z</time>
      </trkpt>
      <trkpt lat="47.24672" lon="-1.62815">
        <ele>-107.5</ele>
        <time>2012-01-28T15:43:08Z</time>
      </trkpt>
      <trkpt lat="47.24669" lon="-1.62799">
        <ele>-107</ele>
        <time>2012-01-28T15:43:11Z</time>
      </trkpt>
      <trkpt lat="47.24666" lon="-1.62782">
        <ele>-106.5</ele>
        <time>2012-01-28T15:43:14Z</time>
      </trkpt>
      <trkpt lat="47.24663" lon="-1.62769">
        <ele>-106.5</ele>
        <time>2012-01-28T15:43:16Z</time>
      </trkpt>
      <trkpt lat="47.24661" lon="-1.62756">
        <ele>-107.5</ele>
        <time>2012-01-28T15:43:19Z</time>
      </trkpt>
      <trkpt lat="47.24658" lon="-1.6274">
        <ele>-108.5</ele>
        <time>2012-01-28T15:43:22Z</time>
      </trkpt>
      <trkpt lat="47.24655" lon="-1.62722">
        <ele>-109</ele>
        <time>2012-01-28T15:43:25Z</time>
      </trkpt>
      <trkpt lat="47.24651" lon="-1.62708">
        <ele>-109</ele>
        <time>2012-01-28T15:43:27Z</time>
      </trkpt>
      <trkpt lat="47.24647" lon="-1.62693">
        <ele>-109.5</ele>
        <time>2012-01-28T15:43:30Z</time>
      </trkpt>
      <trkpt lat="47.24644" lon="-1.6268">
        <ele>-109.5</ele>
        <time>2012-01-28T15:43:32Z</time>
      </trkpt>
      <trkpt lat="47.24641" lon="-1.62667">
        <ele>-109</ele>
        <time>2012-01-28T15:43:34Z</time>
      </trkpt>
      <trkpt lat="47.24637" lon="-1.62653">
        <ele>-109</ele>
        <time>2012-01-28T15:43:36Z</time>
      </trkpt>
      <trkpt lat="47.24634" lon="-1.62639">
        <ele>-108.75</ele>
        <time>2012-01-28T15:43:38Z</time>
      </trkpt>
      <trkpt lat="47.24629" lon="-1.62622">
        <ele>-108.25</ele>
        <time>2012-01-28T15:43:40Z</time>
      </trkpt>
      <trkpt lat="47.24624" lon="-1.62605">
        <ele>-108</ele>
        <time>2012-01-28T15:43:43Z</time>
      </trkpt>
      <trkpt lat="47.2462" lon="-1.62592">
        <ele>-107.75</ele>
        <time>2012-01-28T15:43:45Z</time>
      </trkpt>
      <trkpt lat="47.24615" lon="-1.62579">
        <ele>-107.25</ele>
        <time>2012-01-28T15:43:47Z</time>
      </trkpt>
      <trkpt lat="47.2461" lon="-1.62566">
        <ele>-107.5</ele>
        <time>2012-01-28T15:43:49Z</time>
      </trkpt>
      <trkpt lat="47.24605" lon="-1.6255">
        <ele>-108</ele>
        <time>2012-01-28T15:43:51Z</time>
      </trkpt>
      <trkpt lat="47.246" lon="-1.62532">
        <ele>-107.5</ele>
        <time>2012-01-28T15:43:54Z</time>
      </trkpt>
      <trkpt lat="47.24594" lon="-1.62517">
        <ele>-106.25</ele>
        <time>2012-01-28T15:43:56Z</time>
      </trkpt>
      <trkpt lat="47.24589" lon="-1.62501">
        <ele>-105.25</ele>
        <time>2012-01-28T15:43:58Z</time>
      </trkpt>
      <trkpt lat="47.24584" lon="-1.62485">
        <ele>-105</ele>
        <time>2012-01-28T15:44:00Z</time>
      </trkpt>
      <trkpt lat="47.24578" lon="-1.62466">
        <ele>-104.5</ele>
        <time>2012-01-28T15:44:02Z</time>
      </trkpt>
      <trkpt lat="47.24573" lon="-1.62448">
        <ele>-104</ele>
        <time>2012-01-28T15:44:05Z</time>
      </trkpt>
      <trkpt lat="47.24568" lon="-1.62433">
        <ele>-103.75</ele>
        <time>2012-01-28T15:44:07Z</time>
      </trkpt>
      <trkpt lat="47.24563" lon="-1.62418">
        <ele>-103.25</ele>
        <time>2012-01-28T15:44:09Z</time>
      </trkpt>
      <trkpt lat="47.24558" lon="-1.62403">
        <ele>-102.5</ele>
        <time>2012-01-28T15:44:11Z</time>
      </trkpt>
      <trkpt lat="47.24553" lon="-1.62387">
        <ele>-101.75</ele>
        <time>2012-01-28T15:44:13Z</time>
      </trkpt>
      <trkpt lat="47.24548" lon="-1.62369">
        <ele>-101</ele>
        <time>2012-01-28T15:44:15Z</time>
      </trkpt>
      <trkpt lat="47.24543" lon="-1.62353">
        <ele>-100.25</ele>
        <time>2012-01-28T15:44:18Z</time>
      </trkpt>
      <trkpt lat="47.24538" lon="-1.62339">
        <ele>-99.75</ele>
        <time>2012-01-28T15:44:20Z</time>
      </trkpt>
      <trkpt lat="47.24534" lon="-1.62324">
        <ele>-99.25</ele>
        <time>2012-01-28T15:44:22Z</time>
      </trkpt>
      <trkpt lat="47.24529" lon="-1.62306">
        <ele>-98.75</ele>
        <time>2012-01-28T15:44:24Z</time>
      </trkpt>
      <trkpt lat="47.24523" lon="-1.62287">
        <ele>-98.25</ele>
        <time>2012-01-28T15:44:26Z</time>
      </trkpt>
      <trkpt lat="47.24517" lon="-1.62268">
        <ele>-98</ele>
        <time>2012-01-28T15:44:29Z</time>
      </trkpt>
      <trkpt lat="47.2451" lon="-1.6225">
        <ele>-98</ele>
        <time>2012-01-28T15:44:31Z</time>
      </trkpt>
      <trkpt lat="47.24505" lon="-1.62235">
        <ele>-98</ele>
        <time>2012-01-28T15:44:33Z</time>
      </trkpt>
      <trkpt lat="47.245" lon="-1.62221">
        <ele>-98</ele>
        <time>2012-01-28T15:44:35Z</time>
      </trkpt>
      <trkpt lat="47.24494" lon="-1.62203">
        <ele>-97.5</ele>
        <time>2012-01-28T15:44:37Z</time>
      </trkpt>
      <trkpt lat="47.24487" lon="-1.62185">
        <ele>-97</ele>
        <time>2012-01-28T15:44:40Z</time>
      </trkpt>
      <trkpt lat="47.24482" lon="-1.62171">
        <ele>-96.75</ele>
        <time>2012-01-28T15:44:42Z</time>
      </trkpt>
      <trkpt lat="47.24477" lon="-1.62157">
        <ele>-96.25</ele>
        <time>2012-01-28T15:44:44Z</time>
      </trkpt>
      <trkpt lat="47.24472" lon="-1.62143">
        <ele>-96</ele>
        <time>2012-01-28T15:44:46Z</time>
      </trkpt>
      <trkpt lat="47.24466" lon="-1.62127">
        <ele>-96</ele>
        <time>2012-01-28T15:44:48Z</time>
      </trkpt>
      <trkpt lat="47.24459" lon="-1.62108">
        <ele>-96.25</ele>
        <time>2012-01-28T15:44:50Z</time>
      </trkpt>
      <trkpt lat="47.24453" lon="-1.62092">
        <ele>-96.75</ele>
        <time>2012-01-28T15:44:53Z</time>
      </trkpt>
      <trkpt lat="47.24448" lon="-1.62078">
        <ele>-96.75</ele>
        <time>2012-01-28T15:44:55Z</time>
      </trkpt>
      <trkpt lat="47.24443" lon="-1.62065">
        <ele>-96.25</ele>
        <time>2012-01-28T15:44:57Z</time>
      </trkpt>
      <trkpt lat="47.24438" lon="-1.62052">
        <ele>-96</ele>
        <time>2012-01-28T15:44:59Z</time>
      </trkpt>
      <trkpt lat="47.24432" lon="-1.62037">
        <ele>-96</ele>
        <time>2012-01-28T15:45:01Z</time>
      </trkpt>
      <trkpt lat="47.24426" lon="-1.62021">
        <ele>-96</ele>
        <time>2012-01-28T15:45:03Z</time>
      </trkpt>
      <trkpt lat="47.24421" lon="-1.62009">
        <ele>-96</ele>
        <time>2012-01-28T15:45:06Z</time>
      </trkpt>
      <trkpt lat="47.24415" lon="-1.61993">
        <ele>-96</ele>
        <time>2012-01-28T15:45:09Z</time>
      </trkpt>
      <trkpt lat="47.24408" lon="-1.61976">
        <ele>-96.75</ele>
        <time>2012-01-28T15:45:12Z</time>
      </trkpt>
      <trkpt lat="47.244" lon="-1.61966">
        <ele>-97.25</ele>
        <time>2012-01-28T15:45:16Z</time>
      </trkpt>
      <trkpt lat="47.2439" lon="-1.61961">
        <ele>-96.25</ele>
        <time>2012-01-28T15:45:19Z</time>
      </trkpt>
      <trkpt lat="47.24379" lon="-1.61967">
        <ele>-96</ele>
        <time>2012-01-28T15:45:22Z</time>
      </trkpt>
      <trkpt lat="47.24371" lon="-1.61978">
        <ele>-96</ele>
        <time>2012-01-28T15:45:24Z</time>
      </trkpt>
      <trkpt lat="47.24364" lon="-1.6199">
        <ele>-96</ele>
        <time>2012-01-28T15:45:27Z</time>
      </trkpt>
      <trkpt lat="47.24356" lon="-1.62005">
        <ele>-96</ele>
        <time>2012-01-28T15:45:30Z</time>
      </trkpt>
      <trkpt lat="47.24347" lon="-1.6202">
        <ele>-96</ele>
        <time>2012-01-28T15:45:33Z</time>
      </trkpt>
      <trkpt lat="47.24341" lon="-1.62033">
        <ele>-96</ele>
        <time>2012-01-28T15:45:35Z</time>
      </trkpt>
      <trkpt lat="47.24334" lon="-1.62046">
        <ele>-96</ele>
        <time>2012-01-28T15:45:38Z</time>
      </trkpt>
      <trkpt lat="47.24325" lon="-1.62059">
        <ele>-96</ele>
        <time>2012-01-28T15:45:41Z</time>
      </trkpt>
      <trkpt lat="47.24312" lon="-1.62062">
        <ele>-96</ele>
        <time>2012-01-28T15:45:44Z</time>
      </trkpt>
      <trkpt lat="47.24302" lon="-1.62049">
        <ele>-96</ele>
        <time>2012-01-28T15:45:47Z</time>
      </trkpt>
      <trkpt lat="47.24296" lon="-1.62037">
        <ele>-96</ele>
        <time>2012-01-28T15:45:49Z</time>
      </trkpt>
      <trkpt lat="47.2429" lon="-1.62026">
        <ele>-96</ele>
        <time>2012-01-28T15:45:52Z</time>
      </trkpt>
      <trkpt lat="47.24283" lon="-1.6201">
        <ele>-95.5</ele>
        <time>2012-01-28T15:45:55Z</time>
      </trkpt>
      <trkpt lat="47.24276" lon="-1.61995">
        <ele>-95</ele>
        <time>2012-01-28T15:45:58Z</time>
      </trkpt>
      <trkpt lat="47.24271" lon="-1.61983">
        <ele>-95.5</ele>
        <time>2012-01-28T15:46:01Z</time>
      </trkpt>
      <trkpt lat="47.24265" lon="-1.61969">
        <ele>-96.5</ele>
        <time>2012-01-28T15:46:03Z</time>
      </trkpt>
      <trkpt lat="47.24258" lon="-1.61955">
        <ele>-97</ele>
        <time>2012-01-28T15:46:05Z</time>
      </trkpt>
      <trkpt lat="47.24249" lon="-1.61937">
        <ele>-97</ele>
        <time>2012-01-28T15:46:07Z</time>
      </trkpt>
      <trkpt lat="47.2424" lon="-1.61918">
        <ele>-97.25</ele>
        <time>2012-01-28T15:46:10Z</time>
      </trkpt>
      <trkpt lat="47.24233" lon="-1.61903">
        <ele>-97.75</ele>
        <time>2012-01-28T15:46:12Z</time>
      </trkpt>
      <trkpt lat="47.24226" lon="-1.61888">
        <ele>-98</ele>
        <time>2012-01-28T15:46:14Z</time>
      </trkpt>
      <trkpt lat="47.2422" lon="-1.61874">
        <ele>-98.5</ele>
        <time>2012-01-28T15:46:16Z</time>
      </trkpt>
      <trkpt lat="47.24213" lon="-1.61861">
        <ele>-99</ele>
        <time>2012-01-28T15:46:18Z</time>
      </trkpt>
      <trkpt lat="47.24206" lon="-1.61846">
        <ele>-99.25</ele>
        <time>2012-01-28T15:46:20Z</time>
      </trkpt>
      <trkpt lat="47.24198" lon="-1.6183">
        <ele>-99.75</ele>
        <time>2012-01-28T15:46:22Z</time>
      </trkpt>
      <trkpt lat="47.24191" lon="-1.61815">
        <ele>-100</ele>
        <time>2012-01-28T15:46:25Z</time>
      </trkpt>
      <trkpt lat="47.24186" lon="-1.61802">
        <ele>-100</ele>
        <time>2012-01-28T15:46:27Z</time>
      </trkpt>
      <trkpt lat="47.2418" lon="-1.61789">
        <ele>-100</ele>
        <time>2012-01-28T15:46:29Z</time>
      </trkpt>
      <trkpt lat="47.24173" lon="-1.61776">
        <ele>-99.75</ele>
        <time>2012-01-28T15:46:31Z</time>
      </trkpt>
      <trkpt lat="47.24166" lon="-1.6176">
        <ele>-99.25</ele>
        <time>2012-01-28T15:46:33Z</time>
      </trkpt>
      <trkpt lat="47.24161" lon="-1.61744">
        <ele>-98.5</ele>
        <time>2012-01-28T15:46:36Z</time>
      </trkpt>
      <trkpt lat="47.24156" lon="-1.61731">
        <ele>-98</ele>
        <time>2012-01-28T15:46:38Z</time>
      </trkpt>
      <trkpt lat="47.24151" lon="-1.61717">
        <ele>-97.5</ele>
        <time>2012-01-28T15:46:40Z</time>
      </trkpt>
      <trkpt lat="47.24145" lon="-1.61703">
        <ele>-97</ele>
        <time>2012-01-28T15:46:42Z</time>
      </trkpt>
      <trkpt lat="47.24137" lon="-1.61682">
        <ele>-96.5</ele>
        <time>2012-01-28T15:46:44Z</time>
      </trkpt>
      <trkpt lat="47.24128" lon="-1.61661">
        <ele>-95.75</ele>
        <time>2012-01-28T15:46:47Z</time>
      </trkpt>
      <trkpt lat="47.24122" lon="-1.61643">
        <ele>-95.25</ele>
        <time>2012-01-28T15:46:49Z</time>
      </trkpt>
      <trkpt lat="47.24115" lon="-1.61626">
        <ele>-94.5</ele>
        <time>2012-01-28T15:46:51Z</time>
      </trkpt>
      <trkpt lat="47.24109" lon="-1.61609">
        <ele>-93.5</ele>
        <time>2012-01-28T15:46:53Z</time>
      </trkpt>
      <trkpt lat="47.24102" lon="-1.61591">
        <ele>-93</ele>
        <time>2012-01-28T15:46:55Z</time>
      </trkpt>
      <trkpt lat="47.24095" lon="-1.61572">
        <ele>-92.5</ele>
        <time>2012-01-28T15:46:58Z</time>
      </trkpt>
      <trkpt lat="47.24087" lon="-1.61555">
        <ele>-91.5</ele>
        <time>2012-01-28T15:47:00Z</time>
      </trkpt>
      <trkpt lat="47.24079" lon="-1.61543">
        <ele>-90.5</ele>
        <time>2012-01-28T15:47:02Z</time>
      </trkpt>
      <trkpt lat="47.24068" lon="-1.61538">
        <ele>-89.75</ele>
        <time>2012-01-28T15:47:04Z</time>
      </trkpt>
      <trkpt lat="47.24056" lon="-1.61537">
        <ele>-89</ele>
        <time>2012-01-28T15:47:06Z</time>
      </trkpt>
      <trkpt lat="47.24046" lon="-1.61537">
        <ele>-88.25</ele>
        <time>2012-01-28T15:47:09Z</time>
      </trkpt>
      <trkpt lat="47.24037" lon="-1.61538">
        <ele>-88</ele>
        <time>2012-01-28T15:47:11Z</time>
      </trkpt>
      <trkpt lat="47.24027" lon="-1.61538">
        <ele>-88.25</ele>
        <time>2012-01-28T15:47:13Z</time>
      </trkpt>
      <trkpt lat="47.24014" lon="-1.61538">
        <ele>-88.75</ele>
        <time>2012-01-28T15:47:15Z</time>
      </trkpt>
      <trkpt lat="47.24" lon="-1.61538">
        <ele>-89</ele>
        <time>2012-01-28T15:47:18Z</time>
      </trkpt>
      <trkpt lat="47.23988" lon="-1.61538">
        <ele>-88.5</ele>
        <time>2012-01-28T15:47:20Z</time>
      </trkpt>
      <trkpt lat="47.23974" lon="-1.61537">
        <ele>-87.5</ele>
        <time>2012-01-28T15:47:22Z</time>
      </trkpt>
      <trkpt lat="47.2396" lon="-1.61536">
        <ele>-86.75</ele>
        <time>2012-01-28T15:47:24Z</time>
      </trkpt>
      <trkpt lat="47.23945" lon="-1.61533">
        <ele>-86</ele>
        <time>2012-01-28T15:47:26Z</time>
      </trkpt>
      <trkpt lat="47.23928" lon="-1.61531">
        <ele>-84.75</ele>
        <time>2012-01-28T15:47:29Z</time>
      </trkpt>
      <trkpt lat="47.23913" lon="-1.61529">
        <ele>-83.25</ele>
        <time>2012-01-28T15:47:31Z</time>
      </trkpt>
      <trkpt lat="47.23899" lon="-1.61528">
        <ele>-81.25</ele>
        <time>2012-01-28T15:47:33Z</time>
      </trkpt>
      <trkpt lat="47.23886" lon="-1.61526">
        <ele>-79</ele>
        <time>2012-01-28T15:47:35Z</time>
      </trkpt>
      <trkpt lat="47.23868" lon="-1.61525">
        <ele>-76.25</ele>
        <time>2012-01-28T15:47:37Z</time>
      </trkpt>
      <trkpt lat="47.23851" lon="-1.61523">
        <ele>-73.5</ele>
        <time>2012-01-28T15:47:40Z</time>
      </trkpt>
      <trkpt lat="47.23839" lon="-1.61522">
        <ele>-71.5</ele>
        <time>2012-01-28T15:47:42Z</time>
      </trkpt>
      <trkpt lat="47.23828" lon="-1.61519">
        <ele>-70</ele>
        <time>2012-01-28T15:47:44Z</time>
      </trkpt>
      <trkpt lat="47.23818" lon="-1.61513">
        <ele>-67.75</ele>
        <time>2012-01-28T15:47:47Z</time>
      </trkpt>
      <trkpt lat="47.23807" lon="-1.61505">
        <ele>-66</ele>
        <time>2012-01-28T15:47:51Z</time>
      </trkpt>
      <trkpt lat="47.23805" lon="-1.6149">
        <ele>-65.5</ele>
        <time>2012-01-28T15:47:54Z</time>
      </trkpt>
      <trkpt lat="47.23806" lon="-1.61472">
        <ele>-65</ele>
        <time>2012-01-28T15:47:56Z</time>
      </trkpt>
      <trkpt lat="47.23807" lon="-1.61455">
        <ele>-64.75</ele>
        <time>2012-01-28T15:47:58Z</time>
      </trkpt>
      <trkpt lat="47.23805" lon="-1.61438">
        <ele>-64.75</ele>
        <time>2012-01-28T15:48:01Z</time>
      </trkpt>
      <trkpt lat="47.23803" lon="-1.61423">
        <ele>-65</ele>
        <time>2012-01-28T15:48:03Z</time>
      </trkpt>
      <trkpt lat="47.23801" lon="-1.61407">
        <ele>-65</ele>
        <time>2012-01-28T15:48:05Z</time>
      </trkpt>
      <trkpt lat="47.23798" lon="-1.61392">
        <ele>-65</ele>
        <time>2012-01-28T15:48:07Z</time>
      </trkpt>
      <trkpt lat="47.23794" lon="-1.61374">
        <ele>-65.25</ele>
        <time>2012-01-28T15:48:09Z</time>
      </trkpt>
      <trkpt lat="47.23788" lon="-1.61355">
        <ele>-65.75</ele>
        <time>2012-01-28T15:48:11Z</time>
      </trkpt>
      <trkpt lat="47.23782" lon="-1.6134">
        <ele>-66.5</ele>
        <time>2012-01-28T15:48:14Z</time>
      </trkpt>
      <trkpt lat="47.23776" lon="-1.61328">
        <ele>-67</ele>
        <time>2012-01-28T15:48:16Z</time>
      </trkpt>
      <trkpt lat="47.2377" lon="-1.61317">
        <ele>-67.5</ele>
        <time>2012-01-28T15:48:18Z</time>
      </trkpt>
      <trkpt lat="47.23764" lon="-1.61305">
        <ele>-68</ele>
        <time>2012-01-28T15:48:20Z</time>
      </trkpt>
      <trkpt lat="47.23757" lon="-1.6129">
        <ele>-68.5</ele>
        <time>2012-01-28T15:48:23Z</time>
      </trkpt>
      <trkpt lat="47.2375" lon="-1.61276">
        <ele>-69.5</ele>
        <time>2012-01-28T15:48:25Z</time>
      </trkpt>
      <trkpt lat="47.23745" lon="-1.61265">
        <ele>-70.25</ele>
        <time>2012-01-28T15:48:27Z</time>
      </trkpt>
      <trkpt lat="47.23738" lon="-1.6125">
        <ele>-71</ele>
        <time>2012-01-28T15:48:30Z</time>
      </trkpt>
      <trkpt lat="47.2373" lon="-1.61237">
        <ele>-71.5</ele>
        <time>2012-01-28T15:48:33Z</time>
      </trkpt>
      <trkpt lat="47.23722" lon="-1.61225">
        <ele>-72</ele>
        <time>2012-01-28T15:48:37Z</time>
      </trkpt>
      <trkpt lat="47.23715" lon="-1.61212">
        <ele>-72</ele>
        <time>2012-01-28T15:48:41Z</time>
      </trkpt>
      <trkpt lat="47.2371" lon="-1.61199">
        <ele>-72.25</ele>
        <time>2012-01-28T15:48:44Z</time>
      </trkpt>
      <trkpt lat="47.23702" lon="-1.61193">
        <ele>-74.25</ele>
        <time>2012-01-28T15:48:58Z</time>
      </trkpt>
      <trkpt lat="47.23702" lon="-1.61192">
        <ele>-67.5</ele>
        <time>2012-01-28T15:49:18Z</time>
      </trkpt>
    </trkseg>
  </trk>
</gpx>